Time,TemperatureF,DewpointF,PressureIn,WindDirection,WindDirectionDegrees,WindSpeedMPH,WindSpeedGustMPH,Humidity,HourlyPrecipIn,Conditions,Clouds,dailyrainin,SoftwareType,DateUTC
2013-10-18 00:00:00,40.8,34.2,29.93,SW,225,0.0,0.0,77,0.00,,,0.00,VWS V14.01,2013-10-18 05:00:00,
2013-10-18 00:01:00,40.8,34.2,29.93,SW,225,0.0,0.0,77,0.00,,,0.00,VWS V14.01,2013-10-18 05:01:00,
2013-10-18 00:02:00,40.8,34.2,29.93,SW,225,0.0,0.0,77,0.00,,,0.00,VWS V14.01,2013-10-18 05:02:00,
2013-10-18 00:03:00,40.8,34.2,29.93,SW,225,0.0,0.0,77,0.00,,,0.00,VWS V14.01,2013-10-18 05:03:00,
2013-10-18 00:04:00,40.8,34.2,29.93,SW,225,0.0,0.0,77,0.00,,,0.00,VWS V14.01,2013-10-18 05:04:00,
2013-10-18 00:05:00,41.0,34.7,29.93,SW,225,0.0,0.0,78,0.00,,,0.00,VWS V14.01,2013-10-18 05:05:00,
2013-10-18 00:06:00,41.0,34.7,29.93,SW,225,0.0,0.0,78,0.00,,,0.00,VWS V14.01,2013-10-18 05:06:00,
2013-10-18 00:07:00,41.1,34.8,29.93,SW,225,0.0,0.0,78,0.00,,,0.00,VWS V14.01,2013-10-18 05:07:00,
2013-10-18 00:08:00,41.1,34.8,29.93,SW,225,0.0,0.0,78,0.00,,,0.00,VWS V14.01,2013-10-18 05:08:00,
2013-10-18 00:09:00,41.3,34.7,29.93,SW,225,0.0,0.0,77,0.00,,,0.00,VWS V14.01,2013-10-18 05:09:00,
2013-10-18 00:10:00,41.3,34.7,29.93,SW,225,0.0,0.0,77,0.00,,,0.00,VWS V14.01,2013-10-18 05:10:00,
2013-10-18 00:11:00,41.3,34.7,29.93,SW,225,0.0,0.0,77,0.00,,,0.00,VWS V14.01,2013-10-18 05:11:00,
2013-10-18 00:12:00,41.3,34.7,29.93,SW,225,0.0,0.0,77,0.00,,,0.00,VWS V14.01,2013-10-18 05:12:00,
2013-10-18 00:13:00,41.1,34.5,29.93,SW,225,0.0,0.0,77,0.00,,,0.00,VWS V14.01,2013-10-18 05:13:00,
2013-10-18 00:14:00,41.1,34.5,29.93,SW,225,0.0,0.0,77,0.00,,,0.00,VWS V14.01,2013-10-18 05:14:00,
2013-10-18 00:15:00,41.1,34.5,29.93,SW,225,0.0,0.0,77,0.00,,,0.00,VWS V14.01,2013-10-18 05:15:00,
2013-10-18 00:16:00,41.1,34.5,29.93,SW,225,0.0,0.0,77,0.00,,,0.00,VWS V14.01,2013-10-18 05:16:00,
2013-10-18 00:17:00,41.1,34.5,29.93,SW,225,0.0,0.0,77,0.00,,,0.00,VWS V14.01,2013-10-18 05:17:00,
2013-10-18 00:18:00,41.3,34.7,29.92,SW,225,0.0,0.0,77,0.00,,,0.00,VWS V14.01,2013-10-18 05:18:00,
2013-10-18 00:19:00,41.3,34.7,29.92,SW,225,0.0,0.0,77,0.00,,,0.00,VWS V14.01,2013-10-18 05:19:00,
2013-10-18 00:20:00,41.5,34.8,29.92,SW,225,0.0,0.0,77,0.00,,,0.00,VWS V14.01,2013-10-18 05:20:00,
2013-10-18 00:21:00,41.5,34.8,29.92,SW,225,0.0,0.0,77,0.00,,,0.00,VWS V14.01,2013-10-18 05:21:00,
2013-10-18 00:22:00,41.5,34.8,29.92,SW,225,0.6,0.6,77,0.00,,,0.00,VWS V14.01,2013-10-18 05:22:00,
2013-10-18 00:23:00,41.5,34.8,29.92,SW,225,0.6,0.6,77,0.00,,,0.00,VWS V14.01,2013-10-18 05:23:00,
2013-10-18 00:24:00,41.5,34.8,29.93,SW,225,0.0,0.6,77,0.00,,,0.00,VWS V14.01,2013-10-18 05:24:00,
2013-10-18 00:25:00,41.5,34.8,29.93,SW,225,0.0,0.0,77,0.00,,,0.00,VWS V14.01,2013-10-18 05:25:00,
2013-10-18 00:26:00,41.5,34.8,29.93,SW,225,0.0,0.0,77,0.00,,,0.00,VWS V14.01,2013-10-18 05:26:00,
2013-10-18 00:27:00,41.5,34.8,29.92,SW,225,0.0,0.0,77,0.00,,,0.00,VWS V14.01,2013-10-18 05:27:00,
2013-10-18 00:28:00,41.3,34.7,29.93,SW,225,0.0,0.0,77,0.00,,,0.00,VWS V14.01,2013-10-18 05:28:00,
2013-10-18 00:29:00,41.3,34.7,29.92,SW,225,0.0,0.0,77,0.00,,,0.00,VWS V14.01,2013-10-18 05:29:00,
2013-10-18 00:30:00,41.1,34.5,29.92,SW,225,0.0,0.0,77,0.00,,,0.00,VWS V14.01,2013-10-18 05:30:00,
2013-10-18 00:31:00,41.1,34.5,29.92,SW,225,0.0,0.0,77,0.00,,,0.00,VWS V14.01,2013-10-18 05:31:00,
2013-10-18 00:32:00,41.1,34.5,29.92,SW,225,0.0,0.0,77,0.00,,,0.00,VWS V14.01,2013-10-18 05:32:00,
2013-10-18 00:33:00,41.1,34.5,29.92,SW,225,0.0,0.0,77,0.00,,,0.00,VWS V14.01,2013-10-18 05:33:00,
2013-10-18 00:34:00,41.1,34.5,29.93,SW,225,0.0,0.0,77,0.00,,,0.00,VWS V14.01,2013-10-18 05:34:00,
2013-10-18 00:35:00,41.1,34.5,29.92,SW,225,0.4,0.4,77,0.00,,,0.00,VWS V14.01,2013-10-18 05:35:00,
2013-10-18 00:36:00,41.1,34.5,29.92,SW,225,0.4,0.4,77,0.00,,,0.00,VWS V14.01,2013-10-18 05:36:00,
2013-10-18 00:37:00,41.1,34.5,29.92,SW,225,0.0,0.4,77,0.00,,,0.00,VWS V14.01,2013-10-18 05:37:00,
2013-10-18 00:38:00,41.1,34.5,29.93,SW,225,0.0,0.0,77,0.00,,,0.00,VWS V14.01,2013-10-18 05:38:00,
2013-10-18 00:39:00,41.1,34.5,29.92,SW,225,0.0,0.0,77,0.00,,,0.00,VWS V14.01,2013-10-18 05:39:00,
2013-10-18 00:40:00,41.1,34.5,29.92,SW,225,0.0,0.0,77,0.00,,,0.00,VWS V14.01,2013-10-18 05:40:00,
2013-10-18 00:41:00,41.1,34.5,29.92,SW,225,0.0,0.0,77,0.00,,,0.00,VWS V14.01,2013-10-18 05:41:00,
2013-10-18 00:42:00,41.1,34.5,29.92,SW,225,0.0,0.0,77,0.00,,,0.00,VWS V14.01,2013-10-18 05:42:00,
2013-10-18 00:43:00,41.0,34.3,29.92,SW,225,0.0,0.0,77,0.00,,,0.00,VWS V14.01,2013-10-18 05:43:00,
2013-10-18 00:44:00,41.0,34.3,29.93,SW,225,0.0,0.0,77,0.00,,,0.00,VWS V14.01,2013-10-18 05:44:00,
2013-10-18 00:45:00,41.0,34.3,29.92,SW,225,0.0,0.0,77,0.00,,,0.00,VWS V14.01,2013-10-18 05:45:00,
2013-10-18 00:46:00,41.0,34.3,29.92,SW,225,0.0,0.0,77,0.00,,,0.00,VWS V14.01,2013-10-18 05:46:00,
2013-10-18 00:47:00,40.8,34.2,29.92,SW,225,0.0,0.0,77,0.00,,,0.00,VWS V14.01,2013-10-18 05:47:00,
2013-10-18 00:48:00,40.6,34.0,29.92,SW,225,0.0,0.0,77,0.00,,,0.00,VWS V14.01,2013-10-18 05:48:00,
2013-10-18 00:49:00,40.6,34.0,29.93,SW,225,0.0,0.0,77,0.00,,,0.00,VWS V14.01,2013-10-18 05:49:00,
2013-10-18 00:50:00,40.2,33.6,29.93,SW,225,0.0,0.0,77,0.00,,,0.00,VWS V14.01,2013-10-18 05:50:00,
2013-10-18 00:51:00,40.2,33.6,29.93,SW,225,0.0,0.0,77,0.00,,,0.00,VWS V14.01,2013-10-18 05:51:00,
2013-10-18 00:52:00,39.9,33.3,29.92,SW,225,0.0,0.0,77,0.00,,,0.00,VWS V14.01,2013-10-18 05:52:00,
2013-10-18 00:53:00,39.9,33.3,29.92,SW,225,0.0,0.0,77,0.00,,,0.00,VWS V14.01,2013-10-18 05:53:00,
2013-10-18 00:54:00,39.9,33.6,29.93,SW,225,2.2,2.2,78,0.00,,,0.00,VWS V14.01,2013-10-18 05:54:00,
2013-10-18 00:55:00,39.9,33.6,29.93,SW,225,2.2,2.2,78,0.00,,,0.00,VWS V14.01,2013-10-18 05:55:00,
2013-10-18 00:56:00,39.9,33.6,29.93,SW,225,2.2,2.2,78,0.00,,,0.00,VWS V14.01,2013-10-18 05:56:00,
2013-10-18 00:57:00,39.9,33.6,29.93,SW,225,0.0,0.0,78,0.00,,,0.00,VWS V14.01,2013-10-18 05:57:00,
2013-10-18 00:58:00,39.9,33.6,29.92,SW,225,0.8,0.8,78,0.00,,,0.00,VWS V14.01,2013-10-18 05:58:00,
2013-10-18 00:59:00,40.1,33.8,29.92,SW,225,0.8,0.8,78,0.00,,,0.00,VWS V14.01,2013-10-18 05:59:00,
2013-10-18 01:00:00,40.1,33.8,29.92,SW,225,0.8,0.8,78,0.00,,,0.00,VWS V14.01,2013-10-18 06:00:00,
2013-10-18 01:01:00,40.1,33.8,29.92,SW,225,0.8,0.8,78,0.00,,,0.00,VWS V14.01,2013-10-18 06:01:00,
2013-10-18 01:02:00,40.1,33.8,29.92,SW,225,0.8,0.8,78,0.00,,,0.00,VWS V14.01,2013-10-18 06:02:00,
2013-10-18 01:03:00,40.1,33.8,29.92,SW,225,0.8,0.8,78,0.00,,,0.00,VWS V14.01,2013-10-18 06:03:00,
2013-10-18 01:04:00,40.1,33.8,29.92,SW,225,0.8,0.8,78,0.00,,,0.00,VWS V14.01,2013-10-18 06:04:00,
2013-10-18 01:05:00,40.1,33.8,29.92,SW,225,2.2,2.2,78,0.00,,,0.00,VWS V14.01,2013-10-18 06:05:00,
2013-10-18 01:06:00,40.1,34.1,29.92,SW,225,2.2,2.2,79,0.00,,,0.00,VWS V14.01,2013-10-18 06:06:00,
2013-10-18 01:07:00,40.1,34.1,29.93,SW,225,0.6,2.2,79,0.00,,,0.00,VWS V14.01,2013-10-18 06:07:00,
2013-10-18 01:08:00,40.1,34.1,29.93,SW,225,0.6,0.6,79,0.00,,,0.00,VWS V14.01,2013-10-18 06:08:00,
2013-10-18 01:09:00,40.1,34.1,29.92,SW,225,0.6,0.6,79,0.00,,,0.00,VWS V14.01,2013-10-18 06:09:00,
2013-10-18 01:10:00,39.9,33.9,29.92,SW,225,1.1,1.1,79,0.00,,,0.00,VWS V14.01,2013-10-18 06:10:00,
2013-10-18 01:11:00,39.9,33.9,29.93,SW,225,1.1,1.1,79,0.00,,,0.00,VWS V14.01,2013-10-18 06:11:00,
2013-10-18 01:12:00,39.9,33.9,29.93,SW,225,1.5,1.5,79,0.00,,,0.00,VWS V14.01,2013-10-18 06:12:00,
2013-10-18 01:13:00,39.9,33.9,29.93,SW,225,1.5,1.5,79,0.00,,,0.00,VWS V14.01,2013-10-18 06:13:00,
2013-10-18 01:14:00,39.9,33.9,29.93,SW,225,1.7,1.7,79,0.00,,,0.00,VWS V14.01,2013-10-18 06:14:00,
2013-10-18 01:15:00,39.9,33.9,29.93,SW,225,1.7,1.7,79,0.00,,,0.00,VWS V14.01,2013-10-18 06:15:00,
2013-10-18 01:16:00,39.7,33.7,29.93,SW,225,1.7,1.7,79,0.00,,,0.00,VWS V14.01,2013-10-18 06:16:00,
2013-10-18 01:17:00,39.7,33.7,29.93,SW,225,1.7,1.7,79,0.00,,,0.00,VWS V14.01,2013-10-18 06:17:00,
2013-10-18 01:18:00,39.3,33.3,29.93,SW,225,1.3,1.7,79,0.00,,,0.00,VWS V14.01,2013-10-18 06:18:00,
2013-10-18 01:19:00,39.3,33.3,29.93,SW,225,1.3,1.3,79,0.00,,,0.00,VWS V14.01,2013-10-18 06:19:00,
2013-10-18 01:20:00,39.3,33.3,29.93,WSW,248,1.1,1.3,79,0.00,,,0.00,VWS V14.01,2013-10-18 06:20:00,
2013-10-18 01:21:00,39.3,33.3,29.93,WSW,248,1.1,1.1,79,0.00,,,0.00,VWS V14.01,2013-10-18 06:21:00,
2013-10-18 01:22:00,39.3,33.3,29.93,SW,225,2.9,2.9,79,0.00,,,0.00,VWS V14.01,2013-10-18 06:22:00,
2013-10-18 01:23:00,39.0,33.0,29.93,SW,225,2.9,2.9,79,0.00,,,0.00,VWS V14.01,2013-10-18 06:23:00,
2013-10-18 01:24:00,39.0,33.0,29.93,SW,225,2.9,2.9,79,0.00,,,0.00,VWS V14.01,2013-10-18 06:24:00,
2013-10-18 01:25:00,39.0,33.4,29.93,SW,225,1.3,2.9,80,0.00,,,0.00,VWS V14.01,2013-10-18 06:25:00,
2013-10-18 01:26:00,39.0,33.4,29.93,SW,225,1.3,1.3,80,0.00,,,0.00,VWS V14.01,2013-10-18 06:26:00,
2013-10-18 01:27:00,39.0,33.4,29.93,SW,225,3.5,3.5,80,0.00,,,0.00,VWS V14.01,2013-10-18 06:27:00,
2013-10-18 01:28:00,39.0,33.4,29.93,SW,225,3.5,3.5,80,0.00,,,0.00,VWS V14.01,2013-10-18 06:28:00,
2013-10-18 01:29:00,39.2,33.6,29.93,SW,225,2.2,3.5,80,0.00,,,0.00,VWS V14.01,2013-10-18 06:29:00,
2013-10-18 01:30:00,39.2,33.6,29.93,SW,225,2.2,2.2,80,0.00,,,0.00,VWS V14.01,2013-10-18 06:30:00,
2013-10-18 01:31:00,39.3,33.7,29.93,WSW,248,0.4,2.2,80,0.00,,,0.00,VWS V14.01,2013-10-18 06:31:00,
2013-10-18 01:32:00,39.3,33.7,29.93,WSW,248,0.4,0.4,80,0.00,,,0.00,VWS V14.01,2013-10-18 06:32:00,
2013-10-18 01:33:00,39.3,34.0,29.93,SW,225,3.8,3.8,81,0.00,,,0.00,VWS V14.01,2013-10-18 06:33:00,
2013-10-18 01:34:00,39.3,34.0,29.93,SW,225,3.8,3.8,81,0.00,,,0.00,VWS V14.01,2013-10-18 06:34:00,
2013-10-18 01:35:00,39.3,34.0,29.93,SW,225,4.2,4.2,81,0.00,,,0.00,VWS V14.01,2013-10-18 06:35:00,
2013-10-18 01:36:00,39.3,34.0,29.93,SW,225,4.2,4.2,81,0.00,,,0.00,VWS V14.01,2013-10-18 06:36:00,
2013-10-18 01:37:00,39.3,34.0,29.93,SW,225,2.6,4.2,81,0.00,,,0.00,VWS V14.01,2013-10-18 06:37:00,
2013-10-18 01:38:00,39.3,34.0,29.93,SW,225,2.6,2.6,81,0.00,,,0.00,VWS V14.01,2013-10-18 06:38:00,
2013-10-18 01:39:00,39.3,34.0,29.93,SW,225,2.6,2.6,81,0.00,,,0.00,VWS V14.01,2013-10-18 06:39:00,
2013-10-18 01:40:00,39.3,34.0,29.93,SSW,202,3.5,3.5,81,0.00,,,0.00,VWS V14.01,2013-10-18 06:40:00,
2013-10-18 01:41:00,39.3,34.0,29.93,SSW,202,3.5,3.5,81,0.00,,,0.00,VWS V14.01,2013-10-18 06:41:00,
2013-10-18 01:42:00,39.5,34.2,29.93,SSW,202,6.2,6.2,81,0.00,,,0.00,VWS V14.01,2013-10-18 06:42:00,
2013-10-18 01:43:00,39.5,34.2,29.93,SSW,202,6.2,6.2,81,0.00,,,0.00,VWS V14.01,2013-10-18 06:43:00,
2013-10-18 01:44:00,39.3,34.0,29.93,WSW,248,2.2,6.2,81,0.00,,,0.00,VWS V14.01,2013-10-18 06:44:00,
2013-10-18 01:45:00,39.3,34.0,29.93,WSW,248,2.2,2.2,81,0.00,,,0.00,VWS V14.01,2013-10-18 06:45:00,
2013-10-18 01:46:00,39.3,34.0,29.93,SSW,202,2.4,2.4,81,0.00,,,0.00,VWS V14.01,2013-10-18 06:46:00,
2013-10-18 01:47:00,39.3,34.0,29.93,SSW,202,2.4,2.4,81,0.00,,,0.00,VWS V14.01,2013-10-18 06:47:00,
2013-10-18 01:48:00,39.3,34.0,29.92,WNW,292,1.5,2.4,81,0.00,,,0.00,VWS V14.01,2013-10-18 06:48:00,
2013-10-18 01:49:00,39.3,34.0,29.93,WNW,292,1.5,1.5,81,0.00,,,0.00,VWS V14.01,2013-10-18 06:49:00,
2013-10-18 01:50:00,39.0,33.7,29.93,West,270,0.6,1.5,81,0.00,,,0.00,VWS V14.01,2013-10-18 06:50:00,
2013-10-18 01:51:00,39.0,33.7,29.93,West,270,0.6,0.6,81,0.00,,,0.00,VWS V14.01,2013-10-18 06:51:00,
2013-10-18 01:52:00,39.2,33.9,29.93,West,270,3.3,3.3,81,0.00,,,0.00,VWS V14.01,2013-10-18 06:52:00,
2013-10-18 01:53:00,39.2,33.9,29.93,West,270,3.3,3.3,81,0.00,,,0.00,VWS V14.01,2013-10-18 06:53:00,
2013-10-18 01:54:00,39.2,33.9,29.93,West,270,3.3,3.3,81,0.00,,,0.00,VWS V14.01,2013-10-18 06:54:00,
2013-10-18 01:55:00,39.2,33.9,29.93,WNW,292,3.1,3.3,81,0.00,,,0.00,VWS V14.01,2013-10-18 06:55:00,
2013-10-18 01:56:00,39.2,33.9,29.93,WNW,292,3.1,3.1,81,0.00,,,0.00,VWS V14.01,2013-10-18 06:56:00,
2013-10-18 01:57:00,39.3,34.3,29.93,West,270,1.7,3.1,82,0.00,,,0.00,VWS V14.01,2013-10-18 06:57:00,
2013-10-18 01:58:00,39.3,34.3,29.93,West,270,1.7,1.7,82,0.00,,,0.00,VWS V14.01,2013-10-18 06:58:00,
2013-10-18 01:59:00,39.3,34.3,29.93,WNW,292,7.1,7.1,82,0.00,,,0.00,VWS V14.01,2013-10-18 06:59:00,
2013-10-18 02:00:00,39.3,34.3,29.93,WNW,292,7.1,7.1,82,0.00,,,0.00,VWS V14.01,2013-10-18 07:00:00,
2013-10-18 02:01:00,39.3,34.3,29.93,WNW,292,7.1,7.1,82,0.00,,,0.00,VWS V14.01,2013-10-18 07:01:00,
2013-10-18 02:02:00,39.3,34.3,29.93,WNW,292,7.1,7.1,82,0.00,,,0.00,VWS V14.01,2013-10-18 07:02:00,
2013-10-18 02:03:00,39.3,34.3,29.93,WNW,292,7.1,7.1,82,0.00,,,0.00,VWS V14.01,2013-10-18 07:03:00,
2013-10-18 02:04:00,39.3,34.3,29.93,WNW,292,7.1,7.1,82,0.00,,,0.00,VWS V14.01,2013-10-18 07:04:00,
2013-10-18 02:05:00,39.3,34.3,29.93,WNW,292,7.1,7.1,82,0.00,,,0.00,VWS V14.01,2013-10-18 07:05:00,
2013-10-18 02:06:00,39.3,34.3,29.93,WNW,292,7.1,7.1,82,0.00,,,0.00,VWS V14.01,2013-10-18 07:06:00,
2013-10-18 02:07:00,40.2,35.5,29.93,WNW,292,7.1,7.1,83,0.00,,,0.00,VWS V14.01,2013-10-18 07:07:00,
2013-10-18 02:08:00,40.2,35.5,29.93,West,270,2.9,7.1,83,0.00,,,0.00,VWS V14.01,2013-10-18 07:08:00,
2013-10-18 02:09:00,40.2,35.5,29.93,West,270,2.9,2.9,83,0.00,,,0.00,VWS V14.01,2013-10-18 07:09:00,
2013-10-18 02:10:00,40.2,35.5,29.93,West,270,2.9,2.9,83,0.00,,,0.00,VWS V14.01,2013-10-18 07:10:00,
2013-10-18 02:11:00,40.2,35.5,29.93,West,270,2.9,2.9,83,0.00,,,0.00,VWS V14.01,2013-10-18 07:11:00,
2013-10-18 02:12:00,40.4,35.7,29.94,WNW,292,4.0,4.0,83,0.00,,,0.00,VWS V14.01,2013-10-18 07:12:00,
2013-10-18 02:13:00,40.4,35.7,29.94,WNW,292,4.0,4.0,83,0.00,,,0.00,VWS V14.01,2013-10-18 07:13:00,
2013-10-18 02:14:00,40.6,35.8,29.93,WNW,292,6.2,6.2,83,0.00,,,0.00,VWS V14.01,2013-10-18 07:14:00,
2013-10-18 02:15:00,40.6,35.8,29.94,WNW,292,6.2,6.2,83,0.00,,,0.00,VWS V14.01,2013-10-18 07:15:00,
2013-10-18 02:16:00,40.6,35.8,29.94,WNW,292,6.2,6.2,83,0.00,,,0.00,VWS V14.01,2013-10-18 07:16:00,
2013-10-18 02:17:00,40.8,36.0,29.93,West,270,4.2,4.2,83,0.00,,,0.00,VWS V14.01,2013-10-18 07:17:00,
2013-10-18 02:18:00,40.8,36.0,29.94,WNW,292,2.0,4.2,83,0.00,,,0.00,VWS V14.01,2013-10-18 07:18:00,
2013-10-18 02:19:00,40.8,36.0,29.94,WNW,292,2.0,2.0,83,0.00,,,0.00,VWS V14.01,2013-10-18 07:19:00,
2013-10-18 02:20:00,40.8,36.0,29.94,WNW,292,6.4,6.4,83,0.00,,,0.00,VWS V14.01,2013-10-18 07:20:00,
2013-10-18 02:21:00,40.8,36.0,29.94,WNW,292,6.4,6.4,83,0.00,,,0.00,VWS V14.01,2013-10-18 07:21:00,
2013-10-18 02:22:00,41.1,36.3,29.94,WNW,292,3.8,6.4,83,0.00,,,0.00,VWS V14.01,2013-10-18 07:22:00,
2013-10-18 02:23:00,41.1,36.3,29.94,WNW,292,3.8,3.8,83,0.00,,,0.00,VWS V14.01,2013-10-18 07:23:00,
2013-10-18 02:24:00,41.1,36.3,29.93,WNW,292,3.8,3.8,83,0.00,,,0.00,VWS V14.01,2013-10-18 07:24:00,
2013-10-18 02:25:00,41.1,36.3,29.93,West,270,5.1,5.1,83,0.00,,,0.00,VWS V14.01,2013-10-18 07:25:00,
2013-10-18 02:26:00,41.1,36.3,29.93,West,270,5.1,5.1,83,0.00,,,0.00,VWS V14.01,2013-10-18 07:26:00,
2013-10-18 02:27:00,41.1,36.3,29.93,WNW,292,5.3,5.3,83,0.00,,,0.00,VWS V14.01,2013-10-18 07:27:00,
2013-10-18 02:28:00,41.1,36.3,29.94,WNW,292,5.3,5.3,83,0.00,,,0.00,VWS V14.01,2013-10-18 07:28:00,
2013-10-18 02:29:00,41.1,36.3,29.93,West,270,6.0,6.0,83,0.00,,,0.00,VWS V14.01,2013-10-18 07:29:00,
2013-10-18 02:30:00,41.1,36.3,29.93,West,270,6.0,6.0,83,0.00,,,0.00,VWS V14.01,2013-10-18 07:30:00,
2013-10-18 02:31:00,41.1,36.3,29.93,West,270,6.0,6.0,83,0.00,,,0.00,VWS V14.01,2013-10-18 07:31:00,
2013-10-18 02:32:00,41.1,36.3,29.94,WSW,248,3.8,3.8,83,0.00,,,0.00,VWS V14.01,2013-10-18 07:32:00,
2013-10-18 02:33:00,41.1,36.3,29.93,West,270,0.8,3.8,83,0.00,,,0.00,VWS V14.01,2013-10-18 07:33:00,
2013-10-18 02:34:00,41.1,36.3,29.94,West,270,0.8,0.8,83,0.00,,,0.00,VWS V14.01,2013-10-18 07:34:00,
2013-10-18 02:35:00,41.0,36.2,29.94,West,270,2.9,2.9,83,0.00,,,0.00,VWS V14.01,2013-10-18 07:35:00,
2013-10-18 02:36:00,41.0,36.2,29.94,West,270,2.9,2.9,83,0.00,,,0.00,VWS V14.01,2013-10-18 07:36:00,
2013-10-18 02:37:00,40.8,36.0,29.94,West,270,0.8,2.9,83,0.00,,,0.00,VWS V14.01,2013-10-18 07:37:00,
2013-10-18 02:38:00,40.8,36.0,29.94,West,270,0.8,0.8,83,0.00,,,0.00,VWS V14.01,2013-10-18 07:38:00,
2013-10-18 02:39:00,40.8,36.0,29.93,West,270,0.8,0.8,83,0.00,,,0.00,VWS V14.01,2013-10-18 07:39:00,
2013-10-18 02:40:00,40.8,36.0,29.94,WNW,292,1.7,1.7,83,0.00,,,0.00,VWS V14.01,2013-10-18 07:40:00,
2013-10-18 02:41:00,40.8,36.0,29.94,WNW,292,1.7,1.7,83,0.00,,,0.00,VWS V14.01,2013-10-18 07:41:00,
2013-10-18 02:42:00,40.8,36.3,29.94,WSW,248,1.3,1.7,84,0.00,,,0.00,VWS V14.01,2013-10-18 07:42:00,
2013-10-18 02:43:00,40.8,36.3,29.94,WSW,248,1.3,1.3,84,0.00,,,0.00,VWS V14.01,2013-10-18 07:43:00,
2013-10-18 02:44:00,40.8,36.3,29.94,West,270,3.8,3.8,84,0.00,,,0.00,VWS V14.01,2013-10-18 07:44:00,
2013-10-18 02:45:00,40.8,36.3,29.94,West,270,3.8,3.8,84,0.00,,,0.00,VWS V14.01,2013-10-18 07:45:00,
2013-10-18 02:46:00,40.8,36.3,29.94,West,270,3.8,3.8,84,0.00,,,0.00,VWS V14.01,2013-10-18 07:46:00,
2013-10-18 02:47:00,40.8,36.3,29.94,WNW,292,3.8,3.8,84,0.00,,,0.00,VWS V14.01,2013-10-18 07:47:00,
2013-10-18 02:48:00,40.8,36.3,29.94,WSW,248,5.1,5.1,84,0.00,,,0.00,VWS V14.01,2013-10-18 07:48:00,
2013-10-18 02:49:00,40.8,36.3,29.94,WSW,248,5.1,5.1,84,0.00,,,0.00,VWS V14.01,2013-10-18 07:49:00,
2013-10-18 02:50:00,40.8,36.7,29.94,West,270,4.9,5.1,85,0.00,,,0.00,VWS V14.01,2013-10-18 07:50:00,
2013-10-18 02:51:00,40.8,36.7,29.94,West,270,4.9,4.9,85,0.00,,,0.00,VWS V14.01,2013-10-18 07:51:00,
2013-10-18 02:52:00,41.0,36.8,29.94,WNW,292,5.3,5.3,85,0.00,,,0.00,VWS V14.01,2013-10-18 07:52:00,
2013-10-18 02:53:00,41.0,36.8,29.94,WNW,292,5.3,5.3,85,0.00,,,0.00,VWS V14.01,2013-10-18 07:53:00,
2013-10-18 02:54:00,41.0,36.8,29.94,WNW,292,5.3,5.3,85,0.00,,,0.00,VWS V14.01,2013-10-18 07:54:00,
2013-10-18 02:55:00,41.0,36.8,29.94,West,270,6.0,6.0,85,0.00,,,0.00,VWS V14.01,2013-10-18 07:55:00,
2013-10-18 02:56:00,41.0,36.8,29.94,West,270,6.0,6.0,85,0.00,,,0.00,VWS V14.01,2013-10-18 07:56:00,
2013-10-18 02:57:00,41.0,36.8,29.94,West,270,2.9,6.0,85,0.00,,,0.00,VWS V14.01,2013-10-18 07:57:00,
2013-10-18 02:58:00,41.0,36.8,29.94,West,270,2.9,2.9,85,0.00,,,0.00,VWS V14.01,2013-10-18 07:58:00,
2013-10-18 02:59:00,41.0,36.8,29.94,West,270,4.4,4.4,85,0.00,,,0.00,VWS V14.01,2013-10-18 07:59:00,
2013-10-18 03:00:00,41.0,36.8,29.94,West,270,4.4,4.4,85,0.00,,,0.00,VWS V14.01,2013-10-18 08:00:00,
2013-10-18 03:01:00,41.0,36.8,29.94,West,270,4.4,4.4,85,0.00,,,0.00,VWS V14.01,2013-10-18 08:01:00,
2013-10-18 03:02:00,41.0,36.8,29.94,West,270,1.5,1.5,85,0.00,,,0.00,VWS V14.01,2013-10-18 08:02:00,
2013-10-18 03:03:00,40.8,36.7,29.94,West,270,0.8,1.5,85,0.00,,,0.00,VWS V14.01,2013-10-18 08:03:00,
2013-10-18 03:04:00,40.8,36.7,29.94,West,270,0.8,0.8,85,0.00,,,0.00,VWS V14.01,2013-10-18 08:04:00,
2013-10-18 03:05:00,40.8,36.7,29.94,West,270,3.1,3.1,85,0.00,,,0.00,VWS V14.01,2013-10-18 08:05:00,
2013-10-18 03:06:00,40.8,36.7,29.94,West,270,3.1,3.1,85,0.00,,,0.00,VWS V14.01,2013-10-18 08:06:00,
2013-10-18 03:07:00,40.8,36.7,29.94,WNW,292,2.0,3.1,85,0.00,,,0.00,VWS V14.01,2013-10-18 08:07:00,
2013-10-18 03:08:00,40.8,36.7,29.94,WNW,292,2.0,2.0,85,0.00,,,0.00,VWS V14.01,2013-10-18 08:08:00,
2013-10-18 03:09:00,40.8,36.7,29.94,WNW,292,2.0,2.0,85,0.00,,,0.00,VWS V14.01,2013-10-18 08:09:00,
2013-10-18 03:10:00,40.8,36.9,29.94,WNW,292,7.3,7.3,86,0.00,,,0.00,VWS V14.01,2013-10-18 08:10:00,
2013-10-18 03:11:00,40.8,36.9,29.94,WNW,292,7.3,7.3,86,0.00,,,0.00,VWS V14.01,2013-10-18 08:11:00,
2013-10-18 03:12:00,41.1,37.2,29.95,WNW,292,9.8,9.8,86,0.00,,,0.00,VWS V14.01,2013-10-18 08:12:00,
2013-10-18 03:13:00,41.1,37.2,29.95,WNW,292,9.8,9.8,86,0.00,,,0.00,VWS V14.01,2013-10-18 08:13:00,
2013-10-18 03:14:00,41.5,37.6,29.95,WNW,292,12.5,12.5,86,0.00,,,0.00,VWS V14.01,2013-10-18 08:14:00,
2013-10-18 03:15:00,41.5,37.6,29.95,WNW,292,12.5,12.5,86,0.00,,,0.00,VWS V14.01,2013-10-18 08:15:00,
2013-10-18 03:16:00,41.5,37.6,29.95,WNW,292,12.5,12.5,86,0.00,,,0.00,VWS V14.01,2013-10-18 08:16:00,
2013-10-18 03:17:00,41.9,38.0,29.95,WNW,292,9.3,9.3,86,0.00,,,0.00,VWS V14.01,2013-10-18 08:17:00,
2013-10-18 03:18:00,41.9,38.0,29.95,WNW,292,9.3,9.3,86,0.00,,,0.00,VWS V14.01,2013-10-18 08:18:00,
2013-10-18 03:19:00,42.2,38.3,29.95,WNW,292,8.2,9.3,86,0.00,,,0.00,VWS V14.01,2013-10-18 08:19:00,
2013-10-18 03:20:00,42.2,38.3,29.95,WNW,292,8.2,8.2,86,0.00,,,0.00,VWS V14.01,2013-10-18 08:20:00,
2013-10-18 03:21:00,42.2,38.3,29.95,WNW,292,8.2,8.2,86,0.00,,,0.00,VWS V14.01,2013-10-18 08:21:00,
2013-10-18 03:22:00,42.4,38.8,29.95,West,270,8.0,8.0,87,0.00,,,0.00,VWS V14.01,2013-10-18 08:22:00,
2013-10-18 03:23:00,42.6,39.0,29.95,NNW,338,6.4,8.0,87,0.00,,,0.00,VWS V14.01,2013-10-18 08:23:00,
2013-10-18 03:24:00,42.6,39.0,29.95,NNW,338,6.4,6.4,87,0.00,,,0.00,VWS V14.01,2013-10-18 08:24:00,
2013-10-18 03:25:00,42.6,39.0,29.95,WNW,292,4.4,6.4,87,0.00,,,0.00,VWS V14.01,2013-10-18 08:25:00,
2013-10-18 03:26:00,42.6,39.0,29.95,WNW,292,4.4,4.4,87,0.00,,,0.00,VWS V14.01,2013-10-18 08:26:00,
2013-10-18 03:27:00,42.6,39.0,29.95,West,270,8.2,8.2,87,0.00,,,0.00,VWS V14.01,2013-10-18 08:27:00,
2013-10-18 03:28:00,42.6,39.0,29.95,West,270,8.2,8.2,87,0.00,,,0.00,VWS V14.01,2013-10-18 08:28:00,
2013-10-18 03:29:00,42.6,39.0,29.95,NW,315,7.6,8.2,87,0.00,,,0.00,VWS V14.01,2013-10-18 08:29:00,
2013-10-18 03:30:00,42.6,39.0,29.95,NW,315,7.6,7.6,87,0.00,,,0.00,VWS V14.01,2013-10-18 08:30:00,
2013-10-18 03:31:00,42.6,39.0,29.95,NW,315,7.6,7.6,87,0.00,,,0.00,VWS V14.01,2013-10-18 08:31:00,
2013-10-18 03:32:00,42.9,39.3,29.95,North,0,2.9,2.9,87,0.00,,,0.00,VWS V14.01,2013-10-18 08:32:00,
2013-10-18 03:33:00,42.9,39.3,29.94,North,0,2.9,2.9,87,0.00,,,0.00,VWS V14.01,2013-10-18 08:33:00,
2013-10-18 03:34:00,42.9,39.3,29.94,WNW,292,6.0,6.0,87,0.00,,,0.00,VWS V14.01,2013-10-18 08:34:00,
2013-10-18 03:35:00,42.9,39.3,29.95,WNW,292,6.0,6.0,87,0.00,,,0.00,VWS V14.01,2013-10-18 08:35:00,
2013-10-18 03:36:00,42.9,39.3,29.95,WNW,292,6.0,6.0,87,0.00,,,0.00,VWS V14.01,2013-10-18 08:36:00,
2013-10-18 03:37:00,42.9,39.3,29.94,WNW,292,8.2,8.2,87,0.00,,,0.00,VWS V14.01,2013-10-18 08:37:00,
2013-10-18 03:38:00,42.9,39.3,29.94,WNW,292,3.3,8.2,87,0.00,,,0.00,VWS V14.01,2013-10-18 08:38:00,
2013-10-18 03:39:00,42.9,39.3,29.94,WNW,292,3.3,3.3,87,0.00,,,0.00,VWS V14.01,2013-10-18 08:39:00,
2013-10-18 03:40:00,42.9,39.3,29.94,WNW,292,6.7,6.7,87,0.00,,,0.00,VWS V14.01,2013-10-18 08:40:00,
2013-10-18 03:41:00,42.9,39.3,29.94,WNW,292,6.7,6.7,87,0.00,,,0.00,VWS V14.01,2013-10-18 08:41:00,
2013-10-18 03:42:00,43.1,39.5,29.94,WNW,292,4.6,6.7,87,0.00,,,0.00,VWS V14.01,2013-10-18 08:42:00,
2013-10-18 03:43:00,43.1,39.5,29.94,WNW,292,4.6,4.6,87,0.00,,,0.00,VWS V14.01,2013-10-18 08:43:00,
2013-10-18 03:44:00,43.1,39.5,29.94,WNW,292,9.1,9.1,87,0.00,,,0.00,VWS V14.01,2013-10-18 08:44:00,
2013-10-18 03:45:00,43.1,39.5,29.94,WNW,292,9.1,9.1,87,0.00,,,0.00,VWS V14.01,2013-10-18 08:45:00,
2013-10-18 03:46:00,43.1,39.5,29.94,WNW,292,9.1,9.1,87,0.00,,,0.00,VWS V14.01,2013-10-18 08:46:00,
2013-10-18 03:47:00,43.1,39.5,29.94,WNW,292,10.9,10.9,87,0.00,,,0.00,VWS V14.01,2013-10-18 08:47:00,
2013-10-18 03:48:00,43.1,39.5,29.95,WNW,292,10.9,10.9,87,0.00,,,0.00,VWS V14.01,2013-10-18 08:48:00,
2013-10-18 03:49:00,43.3,39.7,29.94,WNW,292,11.4,11.4,87,0.00,,,0.00,VWS V14.01,2013-10-18 08:49:00,
2013-10-18 03:50:00,43.3,39.7,29.94,WNW,292,11.4,11.4,87,0.00,,,0.00,VWS V14.01,2013-10-18 08:50:00,
2013-10-18 03:51:00,43.3,39.7,29.94,WNW,292,11.4,11.4,87,0.00,,,0.00,VWS V14.01,2013-10-18 08:51:00,
2013-10-18 03:52:00,43.3,39.7,29.95,WNW,292,6.4,6.4,87,0.00,,,0.00,VWS V14.01,2013-10-18 08:52:00,
2013-10-18 03:53:00,43.5,39.9,29.94,West,270,3.1,6.4,87,0.00,,,0.00,VWS V14.01,2013-10-18 08:53:00,
2013-10-18 03:54:00,43.5,39.9,29.95,West,270,3.1,3.1,87,0.00,,,0.00,VWS V14.01,2013-10-18 08:54:00,
2013-10-18 03:55:00,43.5,39.9,29.95,West,270,11.4,11.4,87,0.00,,,0.00,VWS V14.01,2013-10-18 08:55:00,
2013-10-18 03:56:00,43.5,39.9,29.95,West,270,11.4,11.4,87,0.00,,,0.00,VWS V14.01,2013-10-18 08:56:00,
2013-10-18 03:57:00,43.5,39.9,29.95,NW,315,6.9,11.4,87,0.00,,,0.00,VWS V14.01,2013-10-18 08:57:00,
2013-10-18 03:58:00,43.5,39.9,29.95,NW,315,6.9,6.9,87,0.00,,,0.00,VWS V14.01,2013-10-18 08:58:00,
2013-10-18 03:59:00,43.7,40.1,29.95,WNW,292,9.8,9.8,87,0.00,,,0.00,VWS V14.01,2013-10-18 08:59:00,
2013-10-18 04:00:00,43.7,40.1,29.95,WNW,292,9.8,9.8,87,0.00,,,0.00,VWS V14.01,2013-10-18 09:00:00,
2013-10-18 04:01:00,43.7,40.1,29.95,WNW,292,9.8,9.8,87,0.00,,,0.00,VWS V14.01,2013-10-18 09:01:00,
2013-10-18 04:02:00,43.8,40.2,29.95,WNW,292,3.5,3.5,87,0.00,,,0.00,VWS V14.01,2013-10-18 09:02:00,
2013-10-18 04:03:00,43.8,40.2,29.95,WNW,292,3.5,3.5,87,0.00,,,0.00,VWS V14.01,2013-10-18 09:03:00,
2013-10-18 04:04:00,43.8,40.2,29.95,WNW,292,8.5,8.5,87,0.00,,,0.00,VWS V14.01,2013-10-18 09:04:00,
2013-10-18 04:05:00,43.8,40.2,29.95,WNW,292,8.5,8.5,87,0.00,,,0.00,VWS V14.01,2013-10-18 09:05:00,
2013-10-18 04:06:00,43.8,40.2,29.95,WNW,292,8.5,8.5,87,0.00,,,0.00,VWS V14.01,2013-10-18 09:06:00,
2013-10-18 04:07:00,43.8,40.2,29.95,WNW,292,6.7,6.7,87,0.00,,,0.00,VWS V14.01,2013-10-18 09:07:00,
2013-10-18 04:08:00,43.8,40.2,29.95,WNW,292,12.3,12.3,87,0.00,,,0.00,VWS V14.01,2013-10-18 09:08:00,
2013-10-18 04:09:00,43.8,40.2,29.95,WNW,292,12.3,12.3,87,0.00,,,0.00,VWS V14.01,2013-10-18 09:09:00,
2013-10-18 04:10:00,44.0,40.4,29.95,WNW,292,5.8,12.3,87,0.00,,,0.00,VWS V14.01,2013-10-18 09:10:00,
2013-10-18 04:11:00,44.0,40.4,29.95,WNW,292,5.8,5.8,87,0.00,,,0.00,VWS V14.01,2013-10-18 09:11:00,
2013-10-18 04:12:00,44.0,40.4,29.95,WNW,292,4.0,5.8,87,0.00,,,0.00,VWS V14.01,2013-10-18 09:12:00,
2013-10-18 04:13:00,44.0,40.4,29.95,WNW,292,4.0,4.0,87,0.00,,,0.00,VWS V14.01,2013-10-18 09:13:00,
2013-10-18 04:14:00,44.2,40.6,29.96,WNW,292,3.1,4.0,87,0.00,,,0.00,VWS V14.01,2013-10-18 09:14:00,
2013-10-18 04:15:00,44.2,40.6,29.95,WNW,292,3.1,3.1,87,0.00,,,0.00,VWS V14.01,2013-10-18 09:15:00,
2013-10-18 04:16:00,44.2,40.6,29.96,WNW,292,6.7,6.7,87,0.00,,,0.00,VWS V14.01,2013-10-18 09:16:00,
2013-10-18 04:17:00,44.2,40.6,29.95,WNW,292,6.7,6.7,87,0.00,,,0.00,VWS V14.01,2013-10-18 09:17:00,
2013-10-18 04:18:00,44.2,40.6,29.95,WNW,292,6.7,6.7,87,0.00,,,0.00,VWS V14.01,2013-10-18 09:18:00,
2013-10-18 04:19:00,44.2,40.6,29.96,WNW,292,6.7,6.7,87,0.00,,,0.00,VWS V14.01,2013-10-18 09:19:00,
2013-10-18 04:20:00,44.2,40.6,29.96,WNW,292,6.7,6.7,87,0.00,,,0.00,VWS V14.01,2013-10-18 09:20:00,
2013-10-18 04:21:00,44.2,40.6,29.96,WNW,292,9.1,9.1,87,0.00,,,0.00,VWS V14.01,2013-10-18 09:21:00,
2013-10-18 04:22:00,44.2,40.6,29.95,WNW,292,9.1,9.1,87,0.00,,,0.00,VWS V14.01,2013-10-18 09:22:00,
2013-10-18 04:23:00,44.2,40.6,29.95,WNW,292,7.6,9.1,87,0.00,,,0.00,VWS V14.01,2013-10-18 09:23:00,
2013-10-18 04:24:00,44.2,40.6,29.95,WNW,292,7.6,7.6,87,0.00,,,0.00,VWS V14.01,2013-10-18 09:24:00,
2013-10-18 04:25:00,44.2,40.6,29.95,West,270,5.1,5.1,87,0.00,,,0.00,VWS V14.01,2013-10-18 09:25:00,
2013-10-18 04:26:00,44.2,40.6,29.95,West,270,5.1,5.1,87,0.00,,,0.00,VWS V14.01,2013-10-18 09:26:00,
2013-10-18 04:27:00,44.2,40.6,29.95,WNW,292,9.6,9.6,87,0.00,,,0.00,VWS V14.01,2013-10-18 09:27:00,
2013-10-18 04:28:00,44.2,40.6,29.95,WNW,292,9.6,9.6,87,0.00,,,0.00,VWS V14.01,2013-10-18 09:28:00,
2013-10-18 04:29:00,44.2,40.6,29.95,WNW,292,6.2,9.6,87,0.00,,,0.00,VWS V14.01,2013-10-18 09:29:00,
2013-10-18 04:30:00,44.2,40.6,29.95,WNW,292,6.2,6.2,87,0.00,,,0.00,VWS V14.01,2013-10-18 09:30:00,
2013-10-18 04:31:00,44.2,40.6,29.95,WNW,292,5.1,6.2,87,0.00,,,0.00,VWS V14.01,2013-10-18 09:31:00,
2013-10-18 04:32:00,44.2,40.6,29.95,WNW,292,5.1,5.1,87,0.00,,,0.00,VWS V14.01,2013-10-18 09:32:00,
2013-10-18 04:33:00,44.2,40.6,29.95,WNW,292,5.1,5.1,87,0.00,,,0.00,VWS V14.01,2013-10-18 09:33:00,
2013-10-18 04:34:00,44.2,40.6,29.95,WNW,292,0.8,5.1,87,0.00,,,0.00,VWS V14.01,2013-10-18 09:34:00,
2013-10-18 04:35:00,44.2,40.6,29.95,WNW,292,0.8,0.8,87,0.00,,,0.00,VWS V14.01,2013-10-18 09:35:00,
2013-10-18 04:36:00,44.2,40.6,29.96,WNW,292,9.1,9.1,87,0.00,,,0.00,VWS V14.01,2013-10-18 09:36:00,
2013-10-18 04:37:00,44.2,40.6,29.95,WNW,292,9.1,9.1,87,0.00,,,0.00,VWS V14.01,2013-10-18 09:37:00,
2013-10-18 04:38:00,44.2,40.6,29.95,WNW,292,5.1,9.1,87,0.00,,,0.00,VWS V14.01,2013-10-18 09:38:00,
2013-10-18 04:39:00,44.2,40.6,29.96,WNW,292,5.1,5.1,87,0.00,,,0.00,VWS V14.01,2013-10-18 09:39:00,
2013-10-18 04:40:00,44.0,40.1,29.96,WNW,292,6.7,6.7,86,0.00,,,0.00,VWS V14.01,2013-10-18 09:40:00,
2013-10-18 04:41:00,44.0,40.1,29.96,WNW,292,6.7,6.7,86,0.00,,,0.00,VWS V14.01,2013-10-18 09:41:00,
2013-10-18 04:42:00,44.0,40.1,29.96,WNW,292,11.4,11.4,86,0.00,,,0.00,VWS V14.01,2013-10-18 09:42:00,
2013-10-18 04:43:00,44.0,40.1,29.96,WNW,292,11.4,11.4,86,0.00,,,0.00,VWS V14.01,2013-10-18 09:43:00,
2013-10-18 04:44:00,44.0,40.1,29.96,WNW,292,4.9,11.4,86,0.00,,,0.00,VWS V14.01,2013-10-18 09:44:00,
2013-10-18 04:45:00,44.0,40.1,29.96,WNW,292,4.9,4.9,86,0.00,,,0.00,VWS V14.01,2013-10-18 09:45:00,
2013-10-18 04:46:00,44.0,40.1,29.96,West,270,4.9,4.9,86,0.00,,,0.00,VWS V14.01,2013-10-18 09:46:00,
2013-10-18 04:47:00,44.0,40.1,29.96,West,270,4.9,4.9,86,0.00,,,0.00,VWS V14.01,2013-10-18 09:47:00,
2013-10-18 04:48:00,44.0,40.1,29.96,West,270,4.9,4.9,86,0.00,,,0.00,VWS V14.01,2013-10-18 09:48:00,
2013-10-18 04:49:00,44.0,40.1,29.96,WSW,248,2.6,4.9,86,0.00,,,0.00,VWS V14.01,2013-10-18 09:49:00,
2013-10-18 04:50:00,44.0,40.1,29.96,WSW,248,2.6,2.6,86,0.00,,,0.00,VWS V14.01,2013-10-18 09:50:00,
2013-10-18 04:51:00,43.8,39.9,29.96,West,270,6.7,6.7,86,0.00,,,0.00,VWS V14.01,2013-10-18 09:51:00,
2013-10-18 04:52:00,43.8,39.9,29.96,West,270,6.7,6.7,86,0.00,,,0.00,VWS V14.01,2013-10-18 09:52:00,
2013-10-18 04:53:00,43.8,39.9,29.96,SSW,202,6.9,6.9,86,0.00,,,0.00,VWS V14.01,2013-10-18 09:53:00,
2013-10-18 04:54:00,43.8,39.9,29.96,SSW,202,6.9,6.9,86,0.00,,,0.00,VWS V14.01,2013-10-18 09:54:00,
2013-10-18 04:55:00,43.7,39.8,29.96,WNW,292,6.0,6.0,86,0.00,,,0.00,VWS V14.01,2013-10-18 09:55:00,
2013-10-18 04:56:00,43.7,39.8,29.96,WNW,292,6.0,6.0,86,0.00,,,0.00,VWS V14.01,2013-10-18 09:56:00,
2013-10-18 04:57:00,43.5,39.6,29.96,West,270,6.0,6.0,86,0.00,,,0.00,VWS V14.01,2013-10-18 09:57:00,
2013-10-18 04:58:00,43.5,39.6,29.96,West,270,6.0,6.0,86,0.00,,,0.00,VWS V14.01,2013-10-18 09:58:00,
2013-10-18 04:59:00,43.3,39.4,29.96,West,270,2.9,6.0,86,0.00,,,0.00,VWS V14.01,2013-10-18 09:59:00,
2013-10-18 05:00:00,43.3,39.4,29.96,West,270,2.9,2.9,86,0.00,,,0.00,VWS V14.01,2013-10-18 10:00:00,
2013-10-18 05:01:00,43.1,39.2,29.96,WNW,292,2.9,2.9,86,0.00,,,0.00,VWS V14.01,2013-10-18 10:01:00,
2013-10-18 05:02:00,43.1,39.2,29.97,WNW,292,2.9,2.9,86,0.00,,,0.00,VWS V14.01,2013-10-18 10:02:00,
2013-10-18 05:03:00,43.1,39.2,29.97,WNW,292,2.9,2.9,86,0.00,,,0.00,VWS V14.01,2013-10-18 10:03:00,
2013-10-18 05:04:00,42.9,39.0,29.97,WNW,292,10.2,10.2,86,0.00,,,0.00,VWS V14.01,2013-10-18 10:04:00,
2013-10-18 05:05:00,42.9,39.0,29.97,WNW,292,10.2,10.2,86,0.00,,,0.00,VWS V14.01,2013-10-18 10:05:00,
2013-10-18 05:06:00,42.9,39.0,29.97,West,270,14.3,14.3,86,0.00,,,0.00,VWS V14.01,2013-10-18 10:06:00,
2013-10-18 05:07:00,42.9,39.0,29.97,West,270,14.3,14.3,86,0.00,,,0.00,VWS V14.01,2013-10-18 10:07:00,
2013-10-18 05:08:00,42.6,38.7,29.97,WNW,292,5.8,14.3,86,0.00,,,0.00,VWS V14.01,2013-10-18 10:08:00,
2013-10-18 05:09:00,42.6,38.7,29.97,WNW,292,5.8,5.8,86,0.00,,,0.00,VWS V14.01,2013-10-18 10:09:00,
2013-10-18 05:10:00,42.6,38.7,29.97,SSW,202,6.7,6.7,86,0.00,,,0.00,VWS V14.01,2013-10-18 10:10:00,
2013-10-18 05:11:00,42.6,38.7,29.97,SSW,202,6.7,6.7,86,0.00,,,0.00,VWS V14.01,2013-10-18 10:11:00,
2013-10-18 05:12:00,42.6,38.7,29.97,West,270,4.9,6.7,86,0.00,,,0.00,VWS V14.01,2013-10-18 10:12:00,
2013-10-18 05:13:00,42.6,38.7,29.97,West,270,4.9,4.9,86,0.00,,,0.00,VWS V14.01,2013-10-18 10:13:00,
2013-10-18 05:14:00,42.4,38.5,29.97,WNW,292,7.6,7.6,86,0.00,,,0.00,VWS V14.01,2013-10-18 10:14:00,
2013-10-18 05:15:00,42.4,38.5,29.97,WNW,292,7.6,7.6,86,0.00,,,0.00,VWS V14.01,2013-10-18 10:15:00,
2013-10-18 05:16:00,42.4,38.5,29.97,WNW,292,6.0,7.6,86,0.00,,,0.00,VWS V14.01,2013-10-18 10:16:00,
2013-10-18 05:17:00,42.4,38.5,29.97,WNW,292,6.0,6.0,86,0.00,,,0.00,VWS V14.01,2013-10-18 10:17:00,
2013-10-18 05:18:00,42.4,38.5,29.97,WNW,292,6.0,6.0,86,0.00,,,0.00,VWS V14.01,2013-10-18 10:18:00,
2013-10-18 05:19:00,42.4,38.5,29.97,WSW,248,9.1,9.1,86,0.00,,,0.00,VWS V14.01,2013-10-18 10:19:00,
2013-10-18 05:20:00,42.4,38.5,29.97,WSW,248,9.1,9.1,86,0.00,,,0.00,VWS V14.01,2013-10-18 10:20:00,
2013-10-18 05:21:00,42.4,38.5,29.97,WNW,292,6.4,9.1,86,0.00,,,0.00,VWS V14.01,2013-10-18 10:21:00,
2013-10-18 05:22:00,42.4,38.5,29.97,WNW,292,6.4,6.4,86,0.00,,,0.00,VWS V14.01,2013-10-18 10:22:00,
2013-10-18 05:23:00,42.4,38.5,29.97,WSW,248,5.1,6.4,86,0.00,,,0.00,VWS V14.01,2013-10-18 10:23:00,
2013-10-18 05:24:00,42.4,38.5,29.97,WSW,248,5.1,5.1,86,0.00,,,0.00,VWS V14.01,2013-10-18 10:24:00,
2013-10-18 05:25:00,42.2,38.3,29.97,WNW,292,4.6,4.6,86,0.00,,,0.00,VWS V14.01,2013-10-18 10:25:00,
2013-10-18 05:26:00,42.2,38.3,29.97,WNW,292,4.6,4.6,86,0.00,,,0.00,VWS V14.01,2013-10-18 10:26:00,
2013-10-18 05:27:00,42.2,38.3,29.97,WNW,292,4.4,4.6,86,0.00,,,0.00,VWS V14.01,2013-10-18 10:27:00,
2013-10-18 05:28:00,42.2,38.3,29.97,WNW,292,4.4,4.4,86,0.00,,,0.00,VWS V14.01,2013-10-18 10:28:00,
2013-10-18 05:29:00,42.2,38.3,29.97,West,270,8.2,8.2,86,0.00,,,0.00,VWS V14.01,2013-10-18 10:29:00,
2013-10-18 05:30:00,42.2,38.3,29.97,West,270,8.2,8.2,86,0.00,,,0.00,VWS V14.01,2013-10-18 10:30:00,
2013-10-18 05:31:00,42.4,38.2,29.97,West,270,6.0,8.2,85,0.00,,,0.00,VWS V14.01,2013-10-18 10:31:00,
2013-10-18 05:32:00,42.4,38.2,29.97,West,270,6.0,6.0,85,0.00,,,0.00,VWS V14.01,2013-10-18 10:32:00,
2013-10-18 05:33:00,42.4,38.2,29.97,West,270,6.0,6.0,85,0.00,,,0.00,VWS V14.01,2013-10-18 10:33:00,
2013-10-18 05:34:00,42.4,38.2,29.97,NW,315,12.7,12.7,85,0.00,,,0.00,VWS V14.01,2013-10-18 10:34:00,
2013-10-18 05:35:00,42.4,38.2,29.97,NW,315,12.7,12.7,85,0.00,,,0.00,VWS V14.01,2013-10-18 10:35:00,
2013-10-18 05:36:00,42.4,38.2,29.97,WNW,292,12.7,12.7,85,0.00,,,0.00,VWS V14.01,2013-10-18 10:36:00,
2013-10-18 05:37:00,42.4,38.2,29.97,WNW,292,12.7,12.7,85,0.00,,,0.00,VWS V14.01,2013-10-18 10:37:00,
2013-10-18 05:38:00,42.4,38.2,29.97,NW,315,5.3,12.7,85,0.00,,,0.00,VWS V14.01,2013-10-18 10:38:00,
2013-10-18 05:39:00,42.4,38.2,29.97,NW,315,5.3,5.3,85,0.00,,,0.00,VWS V14.01,2013-10-18 10:39:00,
2013-10-18 05:40:00,42.4,38.2,29.97,West,270,5.5,5.5,85,0.00,,,0.00,VWS V14.01,2013-10-18 10:40:00,
2013-10-18 05:41:00,42.4,38.2,29.97,West,270,5.5,5.5,85,0.00,,,0.00,VWS V14.01,2013-10-18 10:41:00,
2013-10-18 05:42:00,42.4,38.2,29.97,WNW,292,2.4,5.5,85,0.00,,,0.00,VWS V14.01,2013-10-18 10:42:00,
2013-10-18 05:43:00,42.4,38.2,29.97,WNW,292,2.4,2.4,85,0.00,,,0.00,VWS V14.01,2013-10-18 10:43:00,
2013-10-18 05:44:00,42.4,38.2,29.97,WNW,292,4.4,4.4,85,0.00,,,0.00,VWS V14.01,2013-10-18 10:44:00,
2013-10-18 05:45:00,42.4,38.2,29.97,WNW,292,4.4,4.4,85,0.00,,,0.00,VWS V14.01,2013-10-18 10:45:00,
2013-10-18 05:46:00,42.4,38.2,29.98,WNW,292,6.2,6.2,85,0.00,,,0.00,VWS V14.01,2013-10-18 10:46:00,
2013-10-18 05:47:00,42.4,38.2,29.98,WNW,292,6.2,6.2,85,0.00,,,0.00,VWS V14.01,2013-10-18 10:47:00,
2013-10-18 05:48:00,42.4,38.2,29.98,WNW,292,6.2,6.2,85,0.00,,,0.00,VWS V14.01,2013-10-18 10:48:00,
2013-10-18 05:49:00,42.4,38.2,29.98,WNW,292,8.5,8.5,85,0.00,,,0.00,VWS V14.01,2013-10-18 10:49:00,
2013-10-18 05:50:00,42.4,38.2,29.98,WNW,292,8.5,8.5,85,0.00,,,0.00,VWS V14.01,2013-10-18 10:50:00,
2013-10-18 05:51:00,42.4,38.2,29.98,West,270,6.7,8.5,85,0.00,,,0.00,VWS V14.01,2013-10-18 10:51:00,
2013-10-18 05:52:00,42.4,38.2,29.98,West,270,6.7,6.7,85,0.00,,,0.00,VWS V14.01,2013-10-18 10:52:00,
2013-10-18 05:53:00,42.4,38.2,29.98,WNW,292,3.8,6.7,85,0.00,,,0.00,VWS V14.01,2013-10-18 10:53:00,
2013-10-18 05:54:00,42.4,38.2,29.97,WNW,292,3.8,3.8,85,0.00,,,0.00,VWS V14.01,2013-10-18 10:54:00,
2013-10-18 05:55:00,42.4,38.2,29.98,WNW,292,5.3,5.3,85,0.00,,,0.00,VWS V14.01,2013-10-18 10:55:00,
2013-10-18 05:56:00,42.4,38.2,29.97,WNW,292,5.3,5.3,85,0.00,,,0.00,VWS V14.01,2013-10-18 10:56:00,
2013-10-18 05:57:00,42.4,38.2,29.98,West,270,3.8,5.3,85,0.00,,,0.00,VWS V14.01,2013-10-18 10:57:00,
2013-10-18 05:58:00,42.4,38.2,29.98,West,270,3.8,3.8,85,0.00,,,0.00,VWS V14.01,2013-10-18 10:58:00,
2013-10-18 05:59:00,42.4,38.2,29.98,SSW,202,4.2,4.2,85,0.00,,,0.00,VWS V14.01,2013-10-18 10:59:00,
2013-10-18 06:00:00,42.4,38.2,29.97,SSW,202,4.2,4.2,85,0.00,,,0.00,VWS V14.01,2013-10-18 11:00:00,
2013-10-18 06:01:00,42.4,38.2,29.97,SSW,202,4.2,4.2,85,0.00,,,0.00,VWS V14.01,2013-10-18 11:01:00,
2013-10-18 06:02:00,42.4,38.2,29.97,West,270,5.5,5.5,85,0.00,,,0.00,VWS V14.01,2013-10-18 11:02:00,
2013-10-18 06:03:00,42.4,38.2,29.98,West,270,5.5,5.5,85,0.00,,,0.00,VWS V14.01,2013-10-18 11:03:00,
2013-10-18 06:04:00,42.6,38.4,29.98,West,270,2.4,5.5,85,0.00,,,0.00,VWS V14.01,2013-10-18 11:04:00,
2013-10-18 06:05:00,42.6,38.4,29.98,West,270,2.4,2.4,85,0.00,,,0.00,VWS V14.01,2013-10-18 11:05:00,
2013-10-18 06:06:00,42.6,38.4,29.98,WNW,292,7.6,7.6,85,0.00,,,0.00,VWS V14.01,2013-10-18 11:06:00,
2013-10-18 06:07:00,42.6,38.4,29.98,WNW,292,7.6,7.6,85,0.00,,,0.00,VWS V14.01,2013-10-18 11:07:00,
2013-10-18 06:08:00,42.6,38.4,29.98,WNW,292,9.8,9.8,85,0.00,,,0.00,VWS V14.01,2013-10-18 11:08:00,
2013-10-18 06:09:00,42.6,38.4,29.98,WNW,292,9.8,9.8,85,0.00,,,0.00,VWS V14.01,2013-10-18 11:09:00,
2013-10-18 06:10:00,42.6,38.4,29.97,WNW,292,8.9,8.9,85,0.00,,,0.00,VWS V14.01,2013-10-18 11:10:00,
2013-10-18 06:11:00,42.6,38.4,29.98,WNW,292,8.9,8.9,85,0.00,,,0.00,VWS V14.01,2013-10-18 11:11:00,
2013-10-18 06:12:00,42.6,38.4,29.98,WNW,292,9.8,9.8,85,0.00,,,0.00,VWS V14.01,2013-10-18 11:12:00,
2013-10-18 06:13:00,42.6,38.4,29.98,WNW,292,9.8,9.8,85,0.00,,,0.00,VWS V14.01,2013-10-18 11:13:00,
2013-10-18 06:14:00,42.6,38.4,29.98,WNW,292,7.8,9.8,85,0.00,,,0.00,VWS V14.01,2013-10-18 11:14:00,
2013-10-18 06:15:00,42.6,38.4,29.98,WNW,292,7.8,7.8,85,0.00,,,0.00,VWS V14.01,2013-10-18 11:15:00,
2013-10-18 06:16:00,42.6,38.4,29.98,SSW,202,4.9,7.8,85,0.00,,,0.00,VWS V14.01,2013-10-18 11:16:00,
2013-10-18 06:17:00,42.6,38.4,29.98,SSW,202,4.9,4.9,85,0.00,,,0.00,VWS V14.01,2013-10-18 11:17:00,
2013-10-18 06:18:00,42.6,38.4,29.98,SSW,202,4.9,4.9,85,0.00,,,0.00,VWS V14.01,2013-10-18 11:18:00,
2013-10-18 06:19:00,42.8,38.6,29.98,WNW,292,6.2,6.2,85,0.00,,,0.00,VWS V14.01,2013-10-18 11:19:00,
2013-10-18 06:20:00,42.8,38.6,29.99,WNW,292,6.2,6.2,85,0.00,,,0.00,VWS V14.01,2013-10-18 11:20:00,
2013-10-18 06:21:00,42.9,38.7,29.99,WNW,292,7.8,7.8,85,0.00,,,0.00,VWS V14.01,2013-10-18 11:21:00,
2013-10-18 06:22:00,42.9,38.7,29.99,WNW,292,7.8,7.8,85,0.00,,,0.00,VWS V14.01,2013-10-18 11:22:00,
2013-10-18 06:23:00,42.9,38.4,29.99,WNW,292,6.9,7.8,84,0.00,,,0.00,VWS V14.01,2013-10-18 11:23:00,
2013-10-18 06:24:00,42.9,38.4,29.99,WNW,292,6.9,6.9,84,0.00,,,0.00,VWS V14.01,2013-10-18 11:24:00,
2013-10-18 06:25:00,42.9,38.4,29.99,NW,315,8.9,8.9,84,0.00,,,0.00,VWS V14.01,2013-10-18 11:25:00,
2013-10-18 06:26:00,42.9,38.4,29.98,NW,315,8.9,8.9,84,0.00,,,0.00,VWS V14.01,2013-10-18 11:26:00,
2013-10-18 06:27:00,42.9,38.4,29.99,West,270,6.2,8.9,84,0.00,,,0.00,VWS V14.01,2013-10-18 11:27:00,
2013-10-18 06:28:00,42.9,38.4,29.99,West,270,6.2,6.2,84,0.00,,,0.00,VWS V14.01,2013-10-18 11:28:00,
2013-10-18 06:29:00,42.9,38.4,29.99,SW,225,5.3,6.2,84,0.00,,,0.00,VWS V14.01,2013-10-18 11:29:00,
2013-10-18 06:30:00,42.9,38.4,29.99,SW,225,5.3,5.3,84,0.00,,,0.00,VWS V14.01,2013-10-18 11:30:00,
2013-10-18 06:31:00,42.9,38.4,29.99,WNW,292,8.5,8.5,84,0.00,,,0.00,VWS V14.01,2013-10-18 11:31:00,
2013-10-18 06:32:00,42.9,38.4,29.99,WNW,292,8.5,8.5,84,0.00,,,0.00,VWS V14.01,2013-10-18 11:32:00,
2013-10-18 06:33:00,42.9,38.4,29.99,WNW,292,7.3,8.5,84,0.00,,,0.00,VWS V14.01,2013-10-18 11:33:00,
2013-10-18 06:34:00,42.9,38.4,29.99,WNW,292,7.3,7.3,84,0.00,,,0.00,VWS V14.01,2013-10-18 11:34:00,
2013-10-18 06:35:00,42.9,38.4,29.99,WNW,292,7.3,7.3,84,0.00,,,0.00,VWS V14.01,2013-10-18 11:35:00,
2013-10-18 06:36:00,42.9,38.4,29.99,West,270,5.5,7.3,84,0.00,,,0.00,VWS V14.01,2013-10-18 11:36:00,
2013-10-18 06:37:00,42.9,38.4,29.99,West,270,5.5,5.5,84,0.00,,,0.00,VWS V14.01,2013-10-18 11:37:00,
2013-10-18 06:38:00,42.9,38.4,29.99,WNW,292,13.8,13.8,84,0.00,,,0.00,VWS V14.01,2013-10-18 11:38:00,
2013-10-18 06:39:00,42.9,38.4,29.99,WNW,292,13.8,13.8,84,0.00,,,0.00,VWS V14.01,2013-10-18 11:39:00,
2013-10-18 06:40:00,42.9,38.4,29.99,WSW,248,4.9,4.9,84,0.00,,,0.00,VWS V14.01,2013-10-18 11:40:00,
2013-10-18 06:41:00,42.9,38.4,29.99,WSW,248,4.9,4.9,84,0.00,,,0.00,VWS V14.01,2013-10-18 11:41:00,
2013-10-18 06:42:00,42.9,38.4,29.99,WNW,292,14.7,14.7,84,0.00,,,0.00,VWS V14.01,2013-10-18 11:42:00,
2013-10-18 06:43:00,42.9,38.4,29.99,WNW,292,14.7,14.7,84,0.00,,,0.00,VWS V14.01,2013-10-18 11:43:00,
2013-10-18 06:44:00,42.9,38.4,29.99,WNW,292,1.3,14.7,84,0.00,,,0.00,VWS V14.01,2013-10-18 11:44:00,
2013-10-18 06:45:00,42.9,38.4,29.99,WNW,292,1.3,1.3,84,0.00,,,0.00,VWS V14.01,2013-10-18 11:45:00,
2013-10-18 06:46:00,42.9,38.1,30.00,WNW,292,8.2,8.2,83,0.00,,,0.00,VWS V14.01,2013-10-18 11:46:00,
2013-10-18 06:47:00,42.9,38.1,30.00,WNW,292,8.2,8.2,83,0.00,,,0.00,VWS V14.01,2013-10-18 11:47:00,
2013-10-18 06:48:00,42.9,38.1,29.99,West,270,8.7,8.7,83,0.00,,,0.00,VWS V14.01,2013-10-18 11:48:00,
2013-10-18 06:49:00,42.9,38.1,30.00,West,270,8.7,8.7,83,0.00,,,0.00,VWS V14.01,2013-10-18 11:49:00,
2013-10-18 06:50:00,42.9,38.1,30.00,West,270,8.7,8.7,83,0.00,,,0.00,VWS V14.01,2013-10-18 11:50:00,
2013-10-18 06:51:00,42.9,38.1,30.00,WNW,292,7.1,8.7,83,0.00,,,0.00,VWS V14.01,2013-10-18 11:51:00,
2013-10-18 06:52:00,42.9,38.1,30.00,WNW,292,7.1,7.1,83,0.00,,,0.00,VWS V14.01,2013-10-18 11:52:00,
2013-10-18 06:53:00,42.9,38.1,30.00,WNW,292,9.8,9.8,83,0.00,,,0.00,VWS V14.01,2013-10-18 11:53:00,
2013-10-18 06:54:00,42.9,38.1,30.00,WNW,292,9.8,9.8,83,0.00,,,0.00,VWS V14.01,2013-10-18 11:54:00,
2013-10-18 06:55:00,42.8,38.0,30.00,West,270,6.2,6.2,83,0.00,,,0.00,VWS V14.01,2013-10-18 11:55:00,
2013-10-18 06:56:00,42.8,38.0,30.00,West,270,6.2,6.2,83,0.00,,,0.00,VWS V14.01,2013-10-18 11:56:00,
2013-10-18 06:57:00,42.8,38.0,30.00,WNW,292,4.0,6.2,83,0.00,,,0.00,VWS V14.01,2013-10-18 11:57:00,
2013-10-18 06:58:00,42.8,38.0,30.00,WNW,292,4.0,4.0,83,0.00,,,0.00,VWS V14.01,2013-10-18 11:58:00,
2013-10-18 06:59:00,42.8,38.0,30.00,WNW,292,9.3,9.3,83,0.00,,,0.00,VWS V14.01,2013-10-18 11:59:00,
2013-10-18 07:00:00,42.8,38.0,29.99,WNW,292,9.3,9.3,83,0.00,,,0.00,VWS V14.01,2013-10-18 12:00:00,
2013-10-18 07:01:00,42.8,38.0,29.99,WNW,292,1.5,9.3,83,0.00,,,0.00,VWS V14.01,2013-10-18 12:01:00,
2013-10-18 07:02:00,42.8,38.0,29.99,WNW,292,1.5,1.5,83,0.00,,,0.00,VWS V14.01,2013-10-18 12:02:00,
2013-10-18 07:03:00,42.8,38.0,29.99,West,270,3.3,3.3,83,0.00,,,0.00,VWS V14.01,2013-10-18 12:03:00,
2013-10-18 07:04:00,42.8,38.0,29.99,West,270,3.3,3.3,83,0.00,,,0.00,VWS V14.01,2013-10-18 12:04:00,
2013-10-18 07:05:00,42.8,38.0,30.00,West,270,3.3,3.3,83,0.00,,,0.00,VWS V14.01,2013-10-18 12:05:00,
2013-10-18 07:06:00,42.6,37.8,30.00,West,270,5.1,5.1,83,0.00,,,0.00,VWS V14.01,2013-10-18 12:06:00,
2013-10-18 07:07:00,42.6,37.8,30.00,West,270,5.1,5.1,83,0.00,,,0.00,VWS V14.01,2013-10-18 12:07:00,
2013-10-18 07:08:00,42.6,38.1,29.99,West,270,6.9,6.9,84,0.00,,,0.00,VWS V14.01,2013-10-18 12:08:00,
2013-10-18 07:09:00,42.6,38.1,30.00,West,270,6.9,6.9,84,0.00,,,0.00,VWS V14.01,2013-10-18 12:09:00,
2013-10-18 07:10:00,42.6,38.1,30.00,West,270,6.7,6.7,84,0.00,,,0.00,VWS V14.01,2013-10-18 12:10:00,
2013-10-18 07:11:00,42.6,38.1,30.00,West,270,6.7,6.7,84,0.00,,,0.00,VWS V14.01,2013-10-18 12:11:00,
2013-10-18 07:12:00,42.6,38.1,30.00,West,270,6.2,6.7,84,0.00,,,0.00,VWS V14.01,2013-10-18 12:12:00,
2013-10-18 07:13:00,42.6,38.1,30.00,West,270,6.2,6.2,84,0.00,,,0.00,VWS V14.01,2013-10-18 12:13:00,
2013-10-18 07:14:00,42.6,38.1,30.00,West,270,5.1,6.2,84,0.00,,,0.00,VWS V14.01,2013-10-18 12:14:00,
2013-10-18 07:15:00,42.6,38.1,30.00,West,270,5.1,5.1,84,0.00,,,0.00,VWS V14.01,2013-10-18 12:15:00,
2013-10-18 07:16:00,42.6,38.1,30.00,West,270,4.0,5.1,84,0.00,,,0.00,VWS V14.01,2013-10-18 12:16:00,
2013-10-18 07:17:00,42.6,38.1,30.00,West,270,4.0,4.0,84,0.00,,,0.00,VWS V14.01,2013-10-18 12:17:00,
2013-10-18 07:18:00,42.6,38.1,30.00,WNW,292,5.8,5.8,84,0.00,,,0.00,VWS V14.01,2013-10-18 12:18:00,
2013-10-18 07:19:00,42.6,38.1,30.00,WNW,292,5.8,5.8,84,0.00,,,0.00,VWS V14.01,2013-10-18 12:19:00,
2013-10-18 07:20:00,42.6,38.1,30.00,WNW,292,5.8,5.8,84,0.00,,,0.00,VWS V14.01,2013-10-18 12:20:00,
2013-10-18 07:21:00,42.6,38.1,30.00,WNW,292,6.0,6.0,84,0.00,,,0.00,VWS V14.01,2013-10-18 12:21:00,
2013-10-18 07:22:00,42.6,38.1,30.00,WNW,292,6.0,6.0,84,0.00,,,0.00,VWS V14.01,2013-10-18 12:22:00,
2013-10-18 07:23:00,42.6,38.1,30.00,WNW,292,8.5,8.5,84,0.00,,,0.00,VWS V14.01,2013-10-18 12:23:00,
2013-10-18 07:24:00,42.6,38.1,30.00,WNW,292,8.5,8.5,84,0.00,,,0.00,VWS V14.01,2013-10-18 12:24:00,
2013-10-18 07:25:00,42.6,38.1,30.00,WNW,292,6.2,6.2,84,0.00,,,0.00,VWS V14.01,2013-10-18 12:25:00,
2013-10-18 07:26:00,42.6,38.1,30.00,WNW,292,6.2,6.2,84,0.00,,,0.00,VWS V14.01,2013-10-18 12:26:00,
2013-10-18 07:27:00,42.6,38.1,30.00,WNW,292,7.8,7.8,84,0.00,,,0.00,VWS V14.01,2013-10-18 12:27:00,
2013-10-18 07:28:00,42.6,38.1,30.01,WNW,292,7.8,7.8,84,0.00,,,0.00,VWS V14.01,2013-10-18 12:28:00,
2013-10-18 07:29:00,42.6,38.1,30.01,WNW,292,3.3,7.8,84,0.00,,,0.00,VWS V14.01,2013-10-18 12:29:00,
2013-10-18 07:30:00,42.6,38.1,30.00,WNW,292,3.3,3.3,84,0.00,,,0.00,VWS V14.01,2013-10-18 12:30:00,
2013-10-18 07:31:00,42.6,38.1,30.01,WNW,292,8.9,8.9,84,0.00,,,0.00,VWS V14.01,2013-10-18 12:31:00,
2013-10-18 07:32:00,42.6,38.1,30.01,WNW,292,8.9,8.9,84,0.00,,,0.00,VWS V14.01,2013-10-18 12:32:00,
2013-10-18 07:33:00,42.6,38.1,30.01,WSW,248,1.1,8.9,84,0.00,,,0.00,VWS V14.01,2013-10-18 12:33:00,
2013-10-18 07:34:00,42.6,38.1,30.01,WSW,248,1.1,1.1,84,0.00,,,0.00,VWS V14.01,2013-10-18 12:34:00,
2013-10-18 07:35:00,42.6,38.1,30.01,WNW,292,8.0,8.0,84,0.00,,,0.00,VWS V14.01,2013-10-18 12:35:00,
2013-10-18 07:36:00,42.6,38.1,30.01,WNW,292,8.0,8.0,84,0.00,,,0.00,VWS V14.01,2013-10-18 12:36:00,
2013-10-18 07:37:00,42.6,38.1,30.00,WNW,292,8.0,8.0,84,0.00,,,0.00,VWS V14.01,2013-10-18 12:37:00,
2013-10-18 07:38:00,42.6,38.1,30.01,NW,315,6.0,8.0,84,0.00,,,0.00,VWS V14.01,2013-10-18 12:38:00,
2013-10-18 07:39:00,42.6,38.1,30.01,NW,315,6.0,6.0,84,0.00,,,0.00,VWS V14.01,2013-10-18 12:39:00,
2013-10-18 07:40:00,42.8,38.3,30.01,WNW,292,9.8,9.8,84,0.00,,,0.00,VWS V14.01,2013-10-18 12:40:00,
2013-10-18 07:41:00,42.8,38.3,30.01,WNW,292,9.8,9.8,84,0.00,,,0.00,VWS V14.01,2013-10-18 12:41:00,
2013-10-18 07:42:00,42.9,38.1,30.01,WNW,292,4.9,9.8,83,0.00,,,0.00,VWS V14.01,2013-10-18 12:42:00,
2013-10-18 07:43:00,42.9,38.1,30.01,WNW,292,4.9,4.9,83,0.00,,,0.00,VWS V14.01,2013-10-18 12:43:00,
2013-10-18 07:44:00,42.9,38.1,30.01,WNW,292,10.5,10.5,83,0.00,,,0.00,VWS V14.01,2013-10-18 12:44:00,
2013-10-18 07:45:00,42.9,38.1,30.01,WNW,292,10.5,10.5,83,0.00,,,0.00,VWS V14.01,2013-10-18 12:45:00,
2013-10-18 07:46:00,42.9,38.1,30.02,WNW,292,2.9,10.5,83,0.00,,,0.00,VWS V14.01,2013-10-18 12:46:00,
2013-10-18 07:47:00,42.9,38.1,30.01,WNW,292,2.9,2.9,83,0.00,,,0.00,VWS V14.01,2013-10-18 12:47:00,
2013-10-18 07:48:00,42.9,38.1,30.01,WNW,292,6.2,6.2,83,0.00,,,0.00,VWS V14.01,2013-10-18 12:48:00,
2013-10-18 07:49:00,42.9,38.1,30.02,WNW,292,6.2,6.2,83,0.00,,,0.00,VWS V14.01,2013-10-18 12:49:00,
2013-10-18 07:50:00,42.9,38.1,30.01,WNW,292,6.2,6.2,83,0.00,,,0.00,VWS V14.01,2013-10-18 12:50:00,
2013-10-18 07:51:00,42.9,38.1,30.02,West,270,6.0,6.2,83,0.00,,,0.00,VWS V14.01,2013-10-18 12:51:00,
2013-10-18 07:52:00,42.9,38.1,30.01,West,270,6.0,6.0,83,0.00,,,0.00,VWS V14.01,2013-10-18 12:52:00,
2013-10-18 07:53:00,42.9,38.1,30.02,West,270,2.6,6.0,83,0.00,,,0.00,VWS V14.01,2013-10-18 12:53:00,
2013-10-18 07:54:00,42.9,38.1,30.02,West,270,2.6,2.6,83,0.00,,,0.00,VWS V14.01,2013-10-18 12:54:00,
2013-10-18 07:55:00,42.9,38.1,30.02,WNW,292,6.0,6.0,83,0.00,,,0.00,VWS V14.01,2013-10-18 12:55:00,
2013-10-18 07:56:00,42.9,38.1,30.02,WNW,292,6.0,6.0,83,0.00,,,0.00,VWS V14.01,2013-10-18 12:56:00,
2013-10-18 07:57:00,42.9,37.8,30.02,WNW,292,9.1,9.1,82,0.00,,,0.00,VWS V14.01,2013-10-18 12:57:00,
2013-10-18 07:58:00,42.9,37.8,30.02,WNW,292,9.1,9.1,82,0.00,,,0.00,VWS V14.01,2013-10-18 12:58:00,
2013-10-18 07:59:00,42.9,37.8,30.02,WNW,292,4.4,9.1,82,0.00,,,0.00,VWS V14.01,2013-10-18 12:59:00,
2013-10-18 08:00:00,42.9,37.8,30.02,WNW,292,4.4,4.4,82,0.00,,,0.00,VWS V14.01,2013-10-18 13:00:00,
2013-10-18 08:01:00,42.9,37.8,30.02,WSW,248,2.9,4.4,82,0.00,,,0.00,VWS V14.01,2013-10-18 13:01:00,
2013-10-18 08:02:00,42.9,37.8,30.02,WSW,248,2.9,2.9,82,0.00,,,0.00,VWS V14.01,2013-10-18 13:02:00,
2013-10-18 08:03:00,42.9,37.8,30.02,West,270,5.3,5.3,82,0.00,,,0.00,VWS V14.01,2013-10-18 13:03:00,
2013-10-18 08:04:00,42.9,37.8,30.01,West,270,5.3,5.3,82,0.00,,,0.00,VWS V14.01,2013-10-18 13:04:00,
2013-10-18 08:05:00,42.9,37.8,30.02,WNW,292,9.3,9.3,82,0.00,,,0.00,VWS V14.01,2013-10-18 13:05:00,
2013-10-18 08:06:00,42.9,37.5,30.02,WNW,292,9.3,9.3,81,0.00,,,0.00,VWS V14.01,2013-10-18 13:06:00,
2013-10-18 08:07:00,42.9,37.5,30.02,WNW,292,9.3,9.3,81,0.00,,,0.00,VWS V14.01,2013-10-18 13:07:00,
2013-10-18 08:08:00,42.9,37.5,30.02,West,270,9.6,9.6,81,0.00,,,0.00,VWS V14.01,2013-10-18 13:08:00,
2013-10-18 08:09:00,42.9,37.5,30.02,West,270,9.6,9.6,81,0.00,,,0.00,VWS V14.01,2013-10-18 13:09:00,
2013-10-18 08:10:00,42.9,37.5,30.02,West,270,5.3,5.3,81,0.00,,,0.00,VWS V14.01,2013-10-18 13:10:00,
2013-10-18 08:11:00,42.9,37.5,30.02,West,270,5.3,5.3,81,0.00,,,0.00,VWS V14.01,2013-10-18 13:11:00,
2013-10-18 08:12:00,42.9,37.5,30.02,WNW,292,5.1,5.3,81,0.00,,,0.00,VWS V14.01,2013-10-18 13:12:00,
2013-10-18 08:13:00,42.9,37.5,30.02,WNW,292,5.1,5.1,81,0.00,,,0.00,VWS V14.01,2013-10-18 13:13:00,
2013-10-18 08:14:00,42.9,37.5,30.02,WNW,292,6.7,6.7,81,0.00,,,0.00,VWS V14.01,2013-10-18 13:14:00,
2013-10-18 08:15:00,42.9,37.5,30.02,WNW,292,6.7,6.7,81,0.00,,,0.00,VWS V14.01,2013-10-18 13:15:00,
2013-10-18 08:16:00,42.9,37.5,30.02,WSW,248,2.4,6.7,81,0.00,,,0.00,VWS V14.01,2013-10-18 13:16:00,
2013-10-18 08:17:00,42.9,37.5,30.02,WSW,248,2.4,2.4,81,0.00,,,0.00,VWS V14.01,2013-10-18 13:17:00,
2013-10-18 08:18:00,42.9,37.5,30.02,WNW,292,6.7,6.7,81,0.00,,,0.00,VWS V14.01,2013-10-18 13:18:00,
2013-10-18 08:19:00,42.9,37.5,30.02,WNW,292,6.7,6.7,81,0.00,,,0.00,VWS V14.01,2013-10-18 13:19:00,
2013-10-18 08:20:00,42.9,37.5,30.02,WNW,292,8.5,8.5,81,0.00,,,0.00,VWS V14.01,2013-10-18 13:20:00,
2013-10-18 08:21:00,42.9,37.5,30.02,WNW,292,8.5,8.5,81,0.00,,,0.00,VWS V14.01,2013-10-18 13:21:00,
2013-10-18 08:22:00,42.9,37.5,30.02,WNW,292,8.5,8.5,81,0.00,,,0.00,VWS V14.01,2013-10-18 13:22:00,
2013-10-18 08:23:00,42.9,37.5,30.02,WNW,292,11.4,11.4,81,0.00,,,0.00,VWS V14.01,2013-10-18 13:23:00,
2013-10-18 08:24:00,42.9,37.5,30.02,WNW,292,11.4,11.4,81,0.00,,,0.00,VWS V14.01,2013-10-18 13:24:00,
2013-10-18 08:25:00,42.9,37.5,30.03,NW,315,3.5,3.5,81,0.00,,,0.00,VWS V14.01,2013-10-18 13:25:00,
2013-10-18 08:26:00,42.9,37.5,30.02,NW,315,3.5,3.5,81,0.00,,,0.00,VWS V14.01,2013-10-18 13:26:00,
2013-10-18 08:27:00,42.9,37.5,30.03,WNW,292,20.1,20.1,81,0.00,,,0.00,VWS V14.01,2013-10-18 13:27:00,
2013-10-18 08:28:00,42.9,37.5,30.03,WNW,292,20.1,20.1,81,0.00,,,0.00,VWS V14.01,2013-10-18 13:28:00,
2013-10-18 08:29:00,42.9,37.2,30.03,West,270,6.9,20.1,80,0.00,,,0.00,VWS V14.01,2013-10-18 13:29:00,
2013-10-18 08:30:00,42.9,37.2,30.03,West,270,6.9,6.9,80,0.00,,,0.00,VWS V14.01,2013-10-18 13:30:00,
2013-10-18 08:31:00,42.9,37.2,30.03,WNW,292,6.2,6.9,80,0.00,,,0.00,VWS V14.01,2013-10-18 13:31:00,
2013-10-18 08:32:00,42.9,37.2,30.03,WNW,292,6.2,6.2,80,0.00,,,0.00,VWS V14.01,2013-10-18 13:32:00,
2013-10-18 08:33:00,42.9,36.8,30.03,WNW,292,10.0,10.0,79,0.00,,,0.00,VWS V14.01,2013-10-18 13:33:00,
2013-10-18 08:34:00,42.9,36.8,30.04,WNW,292,10.0,10.0,79,0.00,,,0.00,VWS V14.01,2013-10-18 13:34:00,
2013-10-18 08:35:00,42.9,36.8,30.04,West,270,4.6,4.6,79,0.00,,,0.00,VWS V14.01,2013-10-18 13:35:00,
2013-10-18 08:36:00,42.9,36.8,30.04,West,270,4.6,4.6,79,0.00,,,0.00,VWS V14.01,2013-10-18 13:36:00,
2013-10-18 08:37:00,42.9,36.8,30.04,West,270,4.6,4.6,79,0.00,,,0.00,VWS V14.01,2013-10-18 13:37:00,
2013-10-18 08:38:00,42.9,36.8,30.04,WNW,292,5.1,5.1,79,0.00,,,0.00,VWS V14.01,2013-10-18 13:38:00,
2013-10-18 08:39:00,42.9,36.8,30.04,WNW,292,5.1,5.1,79,0.00,,,0.00,VWS V14.01,2013-10-18 13:39:00,
2013-10-18 08:40:00,42.9,36.8,30.04,West,270,3.8,3.8,79,0.00,,,0.00,VWS V14.01,2013-10-18 13:40:00,
2013-10-18 08:41:00,42.9,36.8,30.04,West,270,3.8,3.8,79,0.00,,,0.00,VWS V14.01,2013-10-18 13:41:00,
2013-10-18 08:42:00,42.9,37.2,30.04,WNW,292,6.4,6.4,80,0.00,,,0.00,VWS V14.01,2013-10-18 13:42:00,
2013-10-18 08:43:00,42.9,37.2,30.04,WNW,292,6.4,6.4,80,0.00,,,0.00,VWS V14.01,2013-10-18 13:43:00,
2013-10-18 08:44:00,42.9,36.8,30.04,WNW,292,8.2,8.2,79,0.00,,,0.00,VWS V14.01,2013-10-18 13:44:00,
2013-10-18 08:45:00,42.9,36.8,30.04,WNW,292,8.2,8.2,79,0.00,,,0.00,VWS V14.01,2013-10-18 13:45:00,
2013-10-18 08:46:00,43.1,37.4,30.04,West,270,10.5,10.5,80,0.00,,,0.00,VWS V14.01,2013-10-18 13:46:00,
2013-10-18 08:47:00,43.1,37.4,30.04,West,270,10.5,10.5,80,0.00,,,0.00,VWS V14.01,2013-10-18 13:47:00,
2013-10-18 08:48:00,42.9,36.8,30.04,WSW,248,8.0,10.5,79,0.00,,,0.00,VWS V14.01,2013-10-18 13:48:00,
2013-10-18 08:49:00,42.9,36.8,30.04,WSW,248,8.0,8.0,79,0.00,,,0.00,VWS V14.01,2013-10-18 13:49:00,
2013-10-18 08:50:00,42.9,36.8,30.04,WSW,248,8.0,8.0,79,0.00,,,0.00,VWS V14.01,2013-10-18 13:50:00,
2013-10-18 08:51:00,42.9,36.8,30.04,WNW,292,9.8,9.8,79,0.00,,,0.00,VWS V14.01,2013-10-18 13:51:00,
2013-10-18 08:52:00,42.9,36.8,30.05,WNW,292,9.8,9.8,79,0.00,,,0.00,VWS V14.01,2013-10-18 13:52:00,
2013-10-18 08:53:00,42.9,36.8,30.04,WNW,292,4.9,9.8,79,0.00,,,0.00,VWS V14.01,2013-10-18 13:53:00,
2013-10-18 08:54:00,42.9,36.8,30.05,WNW,292,4.9,4.9,79,0.00,,,0.00,VWS V14.01,2013-10-18 13:54:00,
2013-10-18 08:55:00,42.9,36.8,30.05,West,270,13.6,13.6,79,0.00,,,0.00,VWS V14.01,2013-10-18 13:55:00,
2013-10-18 08:56:00,42.9,36.8,30.05,West,270,13.6,13.6,79,0.00,,,0.00,VWS V14.01,2013-10-18 13:56:00,
2013-10-18 08:57:00,42.9,36.8,30.05,WNW,292,6.4,13.6,79,0.00,,,0.00,VWS V14.01,2013-10-18 13:57:00,
2013-10-18 08:58:00,42.9,36.8,30.05,WNW,292,6.4,6.4,79,0.00,,,0.00,VWS V14.01,2013-10-18 13:58:00,
2013-10-18 08:59:00,43.1,37.0,30.05,NW,315,5.3,6.4,79,0.00,,,0.00,VWS V14.01,2013-10-18 13:59:00,
2013-10-18 09:00:00,43.1,37.0,30.05,NW,315,5.3,5.3,79,0.00,,,0.00,VWS V14.01,2013-10-18 14:00:00,
2013-10-18 09:01:00,43.1,36.7,30.05,WNW,292,7.8,7.8,78,0.00,,,0.00,VWS V14.01,2013-10-18 14:01:00,
2013-10-18 09:02:00,43.1,36.7,30.04,WNW,292,7.8,7.8,78,0.00,,,0.00,VWS V14.01,2013-10-18 14:02:00,
2013-10-18 09:03:00,43.1,36.4,30.04,WNW,292,17.2,17.2,77,0.00,,,0.00,VWS V14.01,2013-10-18 14:03:00,
2013-10-18 09:04:00,43.1,36.4,30.04,WNW,292,17.2,17.2,77,0.00,,,0.00,VWS V14.01,2013-10-18 14:04:00,
2013-10-18 09:05:00,43.1,36.4,30.04,WNW,292,6.2,6.2,77,0.00,,,0.00,VWS V14.01,2013-10-18 14:05:00,
2013-10-18 09:06:00,43.3,36.9,30.04,WNW,292,6.2,6.2,78,0.00,,,0.00,VWS V14.01,2013-10-18 14:06:00,
2013-10-18 09:07:00,43.3,36.9,30.04,WNW,292,6.2,6.2,78,0.00,,,0.00,VWS V14.01,2013-10-18 14:07:00,
2013-10-18 09:08:00,43.3,36.9,30.04,NW,315,8.7,8.7,78,0.00,,,0.00,VWS V14.01,2013-10-18 14:08:00,
2013-10-18 09:09:00,43.3,36.9,30.05,NW,315,8.7,8.7,78,0.00,,,0.00,VWS V14.01,2013-10-18 14:09:00,
2013-10-18 09:10:00,43.5,37.1,30.05,WNW,292,2.0,2.0,78,0.00,,,0.00,VWS V14.01,2013-10-18 14:10:00,
2013-10-18 09:11:00,42.9,37.5,30.02,West,270,5.3,5.3,81,0.00,,,0.00,VWS V14.01,2013-10-18 14:11:00,
2013-10-18 09:12:00,43.5,37.1,30.05,WNW,292,6.9,6.9,78,0.00,,,0.00,VWS V14.01,2013-10-18 14:12:00,
2013-10-18 09:13:00,43.5,37.1,30.04,WNW,292,6.9,6.9,78,0.00,,,0.00,VWS V14.01,2013-10-18 14:13:00,
2013-10-18 09:14:00,43.5,37.1,30.05,WNW,292,12.3,12.3,78,0.00,,,0.00,VWS V14.01,2013-10-18 14:14:00,
2013-10-18 09:15:00,43.5,37.1,30.05,WNW,292,12.3,12.3,78,0.00,,,0.00,VWS V14.01,2013-10-18 14:15:00,
2013-10-18 09:16:00,43.5,36.8,30.04,NW,315,9.6,12.3,77,0.00,,,0.00,VWS V14.01,2013-10-18 14:16:00,
2013-10-18 09:17:00,43.5,36.8,30.04,NW,315,9.6,9.6,77,0.00,,,0.00,VWS V14.01,2013-10-18 14:17:00,
2013-10-18 09:18:00,43.5,36.8,30.04,NW,315,6.0,9.6,77,0.00,,,0.00,VWS V14.01,2013-10-18 14:18:00,
2013-10-18 09:19:00,43.5,36.8,30.04,NW,315,6.0,6.0,77,0.00,,,0.00,VWS V14.01,2013-10-18 14:19:00,
2013-10-18 09:20:00,43.7,37.0,30.04,WNW,292,5.8,5.8,77,0.00,,,0.00,VWS V14.01,2013-10-18 14:20:00,
2013-10-18 09:21:00,43.7,37.0,30.05,WNW,292,5.8,5.8,77,0.00,,,0.00,VWS V14.01,2013-10-18 14:21:00,
2013-10-18 09:22:00,43.7,37.0,30.04,WNW,292,5.8,5.8,77,0.00,,,0.00,VWS V14.01,2013-10-18 14:22:00,
2013-10-18 09:23:00,43.8,37.1,30.04,West,270,8.7,8.7,77,0.00,,,0.00,VWS V14.01,2013-10-18 14:23:00,
2013-10-18 09:24:00,43.8,37.1,30.04,West,270,8.7,8.7,77,0.00,,,0.00,VWS V14.01,2013-10-18 14:24:00,
2013-10-18 09:25:00,43.7,36.6,30.04,NW,315,6.9,6.9,76,0.00,,,0.00,VWS V14.01,2013-10-18 14:25:00,
2013-10-18 09:26:00,43.7,36.6,30.04,NW,315,6.9,6.9,76,0.00,,,0.00,VWS V14.01,2013-10-18 14:26:00,
2013-10-18 09:27:00,43.8,37.1,30.04,North,0,4.6,6.9,77,0.00,,,0.00,VWS V14.01,2013-10-18 14:27:00,
2013-10-18 09:28:00,43.8,37.1,30.04,North,0,4.6,4.6,77,0.00,,,0.00,VWS V14.01,2013-10-18 14:28:00,
2013-10-18 09:29:00,43.8,36.7,30.04,WNW,292,6.4,6.4,76,0.00,,,0.00,VWS V14.01,2013-10-18 14:29:00,
2013-10-18 09:30:00,43.8,36.7,30.04,WNW,292,6.4,6.4,76,0.00,,,0.00,VWS V14.01,2013-10-18 14:30:00,
2013-10-18 09:31:00,43.8,36.7,30.04,WNW,292,6.4,6.4,76,0.00,,,0.00,VWS V14.01,2013-10-18 14:31:00,
2013-10-18 09:32:00,44.0,36.9,30.04,WNW,292,11.4,11.4,76,0.00,,,0.00,VWS V14.01,2013-10-18 14:32:00,
2013-10-18 09:33:00,44.2,37.1,30.04,WNW,292,6.0,11.4,76,0.00,,,0.00,VWS V14.01,2013-10-18 14:33:00,
2013-10-18 09:34:00,44.2,37.1,30.04,WNW,292,6.0,6.0,76,0.00,,,0.00,VWS V14.01,2013-10-18 14:34:00,
2013-10-18 09:35:00,44.2,37.1,30.05,West,270,5.3,5.3,76,0.00,,,0.00,VWS V14.01,2013-10-18 14:35:00,
2013-10-18 09:36:00,44.2,37.1,30.05,West,270,5.3,5.3,76,0.00,,,0.00,VWS V14.01,2013-10-18 14:36:00,
2013-10-18 09:37:00,44.2,37.1,30.05,West,270,5.3,5.3,76,0.00,,,0.00,VWS V14.01,2013-10-18 14:37:00,
2013-10-18 09:38:00,44.2,36.8,30.05,NW,315,11.8,11.8,75,0.00,,,0.00,VWS V14.01,2013-10-18 14:38:00,
2013-10-18 09:39:00,44.2,36.8,30.05,NW,315,11.8,11.8,75,0.00,,,0.00,VWS V14.01,2013-10-18 14:39:00,
2013-10-18 09:40:00,44.4,37.0,30.05,WNW,292,11.1,11.1,75,0.00,,,0.00,VWS V14.01,2013-10-18 14:40:00,
2013-10-18 09:41:00,44.4,37.0,30.05,WNW,292,11.1,11.1,75,0.00,,,0.00,VWS V14.01,2013-10-18 14:41:00,
2013-10-18 09:42:00,44.4,37.0,30.05,WNW,292,10.0,11.1,75,0.00,,,0.00,VWS V14.01,2013-10-18 14:42:00,
2013-10-18 09:43:00,44.4,37.0,30.05,WNW,292,10.0,10.0,75,0.00,,,0.00,VWS V14.01,2013-10-18 14:43:00,
2013-10-18 09:44:00,44.4,37.0,30.04,WNW,292,8.5,10.0,75,0.00,,,0.00,VWS V14.01,2013-10-18 14:44:00,
2013-10-18 09:45:00,44.4,37.0,30.05,WNW,292,8.5,8.5,75,0.00,,,0.00,VWS V14.01,2013-10-18 14:45:00,
2013-10-18 09:46:00,44.4,37.0,30.05,WNW,292,6.9,8.5,75,0.00,,,0.00,VWS V14.01,2013-10-18 14:46:00,
2013-10-18 09:47:00,44.4,37.0,30.05,WNW,292,6.9,6.9,75,0.00,,,0.00,VWS V14.01,2013-10-18 14:47:00,
2013-10-18 09:48:00,44.7,37.3,30.05,WNW,292,8.0,8.0,75,0.00,,,0.00,VWS V14.01,2013-10-18 14:48:00,
2013-10-18 09:49:00,44.7,37.3,30.05,WNW,292,8.0,8.0,75,0.00,,,0.00,VWS V14.01,2013-10-18 14:49:00,
2013-10-18 09:50:00,44.7,37.3,30.05,WNW,292,11.1,11.1,75,0.00,,,0.00,VWS V14.01,2013-10-18 14:50:00,
2013-10-18 09:51:00,44.9,37.5,30.05,WNW,292,11.1,11.1,75,0.00,,,0.00,VWS V14.01,2013-10-18 14:51:00,
2013-10-18 09:52:00,44.9,37.5,30.05,WNW,292,11.1,11.1,75,0.00,,,0.00,VWS V14.01,2013-10-18 14:52:00,
2013-10-18 09:53:00,44.9,37.5,30.05,WSW,248,6.4,11.1,75,0.00,,,0.00,VWS V14.01,2013-10-18 14:53:00,
2013-10-18 09:54:00,44.9,37.5,30.05,WSW,248,6.4,6.4,75,0.00,,,0.00,VWS V14.01,2013-10-18 14:54:00,
2013-10-18 09:55:00,45.1,37.7,30.05,WNW,292,8.2,8.2,75,0.00,,,0.00,VWS V14.01,2013-10-18 14:55:00,
2013-10-18 09:56:00,45.1,37.7,30.05,WNW,292,8.2,8.2,75,0.00,,,0.00,VWS V14.01,2013-10-18 14:56:00,
2013-10-18 09:57:00,45.1,37.7,30.05,WNW,292,5.8,8.2,75,0.00,,,0.00,VWS V14.01,2013-10-18 14:57:00,
2013-10-18 09:58:00,45.1,37.7,30.05,WNW,292,5.8,5.8,75,0.00,,,0.00,VWS V14.01,2013-10-18 14:58:00,
2013-10-18 09:59:00,45.1,37.7,30.05,WNW,292,5.5,5.8,75,0.00,,,0.00,VWS V14.01,2013-10-18 14:59:00,
2013-10-18 10:00:00,45.1,37.7,30.05,WNW,292,5.5,5.5,75,0.00,,,0.00,VWS V14.01,2013-10-18 15:00:00,
2013-10-18 10:01:00,45.1,37.7,30.05,North,0,5.1,5.5,75,0.00,,,0.00,VWS V14.01,2013-10-18 15:01:00,
2013-10-18 10:02:00,45.1,37.7,30.05,North,0,5.1,5.1,75,0.00,,,0.00,VWS V14.01,2013-10-18 15:02:00,
2013-10-18 10:03:00,45.1,37.7,30.05,WNW,292,6.9,6.9,75,0.00,,,0.00,VWS V14.01,2013-10-18 15:03:00,
2013-10-18 10:04:00,45.1,37.7,30.05,WNW,292,6.9,6.9,75,0.00,,,0.00,VWS V14.01,2013-10-18 15:04:00,
2013-10-18 10:05:00,45.1,37.7,30.05,WNW,292,5.1,5.1,75,0.00,,,0.00,VWS V14.01,2013-10-18 15:05:00,
2013-10-18 10:06:00,45.1,37.7,30.05,WNW,292,5.1,5.1,75,0.00,,,0.00,VWS V14.01,2013-10-18 15:06:00,
2013-10-18 10:07:00,45.1,37.7,30.05,WNW,292,5.1,5.1,75,0.00,,,0.00,VWS V14.01,2013-10-18 15:07:00,
2013-10-18 10:08:00,45.3,37.8,30.06,NNE,22,6.0,6.0,75,0.00,,,0.00,VWS V14.01,2013-10-18 15:08:00,
2013-10-18 10:09:00,45.3,37.8,30.06,NNE,22,6.0,6.0,75,0.00,,,0.00,VWS V14.01,2013-10-18 15:09:00,
2013-10-18 10:10:00,45.3,37.9,30.06,WNW,292,6.9,6.9,75,0.00,,,0.00,VWS V14.01,2013-10-18 15:10:00,
2013-10-18 10:11:00,45.3,37.8,30.06,WNW,292,6.9,6.9,75,0.00,,,0.00,VWS V14.01,2013-10-18 15:11:00,
2013-10-18 10:12:00,45.1,37.3,30.06,West,270,6.2,6.9,74,0.00,,,0.00,VWS V14.01,2013-10-18 15:12:00,
2013-10-18 10:13:00,45.1,37.3,30.06,West,270,6.2,6.2,74,0.00,,,0.00,VWS V14.01,2013-10-18 15:13:00,
2013-10-18 10:14:00,45.1,37.7,30.06,West,270,12.0,12.0,75,0.00,,,0.00,VWS V14.01,2013-10-18 15:14:00,
2013-10-18 10:15:00,45.1,37.7,30.06,West,270,12.0,12.0,75,0.00,,,0.00,VWS V14.01,2013-10-18 15:15:00,
2013-10-18 10:16:00,45.1,37.7,30.06,West,270,6.7,12.0,75,0.00,,,0.00,VWS V14.01,2013-10-18 15:16:00,
2013-10-18 10:17:00,45.1,37.7,30.06,West,270,6.7,6.7,75,0.00,,,0.00,VWS V14.01,2013-10-18 15:17:00,
2013-10-18 10:18:00,45.3,37.8,30.06,WNW,292,5.3,6.7,75,0.00,,,0.00,VWS V14.01,2013-10-18 15:18:00,
2013-10-18 10:19:00,45.3,37.8,30.06,WNW,292,5.3,5.3,75,0.00,,,0.00,VWS V14.01,2013-10-18 15:19:00,
2013-10-18 10:20:00,45.3,37.9,30.06,WNW,292,5.3,5.3,75,0.00,,,0.00,VWS V14.01,2013-10-18 15:20:00,
2013-10-18 10:21:00,45.3,37.8,30.06,WNW,292,6.2,6.2,75,0.00,,,0.00,VWS V14.01,2013-10-18 15:21:00,
2013-10-18 10:22:00,45.3,37.8,30.06,WNW,292,6.2,6.2,75,0.00,,,0.00,VWS V14.01,2013-10-18 15:22:00,
2013-10-18 10:23:00,45.3,37.8,30.06,WNW,292,6.7,6.7,75,0.00,,,0.00,VWS V14.01,2013-10-18 15:23:00,
2013-10-18 10:24:00,45.3,37.8,30.06,WNW,292,6.7,6.7,75,0.00,,,0.00,VWS V14.01,2013-10-18 15:24:00,
2013-10-18 10:25:00,45.1,37.7,30.06,WNW,292,6.4,6.4,75,0.00,,,0.00,VWS V14.01,2013-10-18 15:25:00,
2013-10-18 10:26:00,45.1,37.7,30.06,WNW,292,6.4,6.4,75,0.00,,,0.00,VWS V14.01,2013-10-18 15:26:00,
2013-10-18 10:27:00,45.1,37.7,30.06,NNW,338,5.1,6.4,75,0.00,,,0.00,VWS V14.01,2013-10-18 15:27:00,
2013-10-18 10:28:00,45.1,37.7,30.05,NNW,338,5.1,5.1,75,0.00,,,0.00,VWS V14.01,2013-10-18 15:28:00,
2013-10-18 10:29:00,45.3,37.5,30.06,WNW,292,8.2,8.2,74,0.00,,,0.00,VWS V14.01,2013-10-18 15:29:00,
2013-10-18 10:30:00,45.3,37.5,30.06,WNW,292,8.2,8.2,74,0.00,,,0.00,VWS V14.01,2013-10-18 15:30:00,
2013-10-18 10:31:00,45.3,37.5,30.06,West,270,2.9,8.2,74,0.00,,,0.00,VWS V14.01,2013-10-18 15:31:00,
2013-10-18 10:32:00,45.3,37.5,30.06,West,270,2.9,2.9,74,0.00,,,0.00,VWS V14.01,2013-10-18 15:32:00,
2013-10-18 10:33:00,45.5,37.7,30.06,North,0,8.5,8.5,74,0.00,,,0.00,VWS V14.01,2013-10-18 15:33:00,
2013-10-18 10:34:00,45.5,37.7,30.06,North,0,8.5,8.5,74,0.00,,,0.00,VWS V14.01,2013-10-18 15:34:00,
2013-10-18 10:35:00,45.5,37.7,30.06,WNW,292,6.2,6.2,74,0.00,,,0.00,VWS V14.01,2013-10-18 15:35:00,
2013-10-18 10:36:00,45.5,37.7,30.06,WNW,292,6.2,6.2,74,0.00,,,0.00,VWS V14.01,2013-10-18 15:36:00,
2013-10-18 10:37:00,45.5,37.7,30.06,WNW,292,6.2,6.2,74,0.00,,,0.00,VWS V14.01,2013-10-18 15:37:00,
2013-10-18 10:38:00,45.6,37.8,30.06,West,270,7.3,7.3,74,0.00,,,0.00,VWS V14.01,2013-10-18 15:38:00,
2013-10-18 10:39:00,45.6,37.8,30.06,West,270,7.3,7.3,74,0.00,,,0.00,VWS V14.01,2013-10-18 15:39:00,
2013-10-18 10:40:00,45.6,37.8,30.06,WNW,292,5.5,5.5,74,0.00,,,0.00,VWS V14.01,2013-10-18 15:40:00,
2013-10-18 10:41:00,45.6,37.8,30.06,WNW,292,5.5,5.5,74,0.00,,,0.00,VWS V14.01,2013-10-18 15:41:00,
2013-10-18 10:42:00,45.6,37.5,30.06,West,270,7.8,7.8,73,0.00,,,0.00,VWS V14.01,2013-10-18 15:42:00,
2013-10-18 10:43:00,45.6,37.5,30.06,West,270,7.8,7.8,73,0.00,,,0.00,VWS V14.01,2013-10-18 15:43:00,
2013-10-18 10:44:00,45.8,37.7,30.06,West,270,2.4,7.8,73,0.00,,,0.00,VWS V14.01,2013-10-18 15:44:00,
2013-10-18 10:45:00,45.8,37.7,30.06,West,270,2.4,2.4,73,0.00,,,0.00,VWS V14.01,2013-10-18 15:45:00,
2013-10-18 10:46:00,46.0,37.8,30.06,WNW,292,7.6,7.6,73,0.00,,,0.00,VWS V14.01,2013-10-18 15:46:00,
2013-10-18 10:47:00,46.0,37.8,30.06,WNW,292,7.6,7.6,73,0.00,,,0.00,VWS V14.01,2013-10-18 15:47:00,
2013-10-18 10:48:00,46.2,38.0,30.06,West,270,3.8,7.6,73,0.00,,,0.00,VWS V14.01,2013-10-18 15:48:00,
2013-10-18 10:49:00,46.2,38.0,30.06,West,270,3.8,3.8,73,0.00,,,0.00,VWS V14.01,2013-10-18 15:49:00,
2013-10-18 10:50:00,46.5,38.3,30.06,West,270,7.1,7.1,73,0.00,,,0.00,VWS V14.01,2013-10-18 15:50:00,
2013-10-18 10:51:00,46.5,38.3,30.06,West,270,7.1,7.1,73,0.00,,,0.00,VWS V14.01,2013-10-18 15:51:00,
2013-10-18 10:52:00,46.5,38.3,30.06,WNW,292,8.9,8.9,73,0.00,,,0.00,VWS V14.01,2013-10-18 15:52:00,
2013-10-18 10:53:00,46.5,38.0,30.06,WNW,292,8.9,8.9,72,0.00,,,0.00,VWS V14.01,2013-10-18 15:53:00,
2013-10-18 10:54:00,46.5,38.0,30.06,WNW,292,8.9,8.9,72,0.00,,,0.00,VWS V14.01,2013-10-18 15:54:00,
2013-10-18 10:55:00,46.5,38.0,30.06,WNW,292,18.5,18.5,72,0.00,,,0.00,VWS V14.01,2013-10-18 15:55:00,
2013-10-18 10:56:00,46.5,38.0,30.06,WNW,292,18.5,18.5,72,0.00,,,0.00,VWS V14.01,2013-10-18 15:56:00,
2013-10-18 10:57:00,46.5,38.0,30.06,NW,315,6.0,18.5,72,0.00,,,0.00,VWS V14.01,2013-10-18 15:57:00,
2013-10-18 10:58:00,46.5,38.0,30.06,NW,315,6.0,6.0,72,0.00,,,0.00,VWS V14.01,2013-10-18 15:58:00,
2013-10-18 10:59:00,46.5,38.0,30.06,West,270,9.1,9.1,72,0.00,,,0.00,VWS V14.01,2013-10-18 15:59:00,
2013-10-18 11:00:00,46.5,38.0,30.06,West,270,9.1,9.1,72,0.00,,,0.00,VWS V14.01,2013-10-18 16:00:00,
2013-10-18 11:01:00,46.7,37.8,30.06,West,270,9.1,9.1,71,0.00,,,0.00,VWS V14.01,2013-10-18 16:01:00,
2013-10-18 11:02:00,46.7,37.8,30.06,West,270,9.1,9.1,71,0.00,,,0.00,VWS V14.01,2013-10-18 16:02:00,
2013-10-18 11:03:00,46.9,38.4,30.06,NW,315,5.5,9.1,72,0.00,,,0.00,VWS V14.01,2013-10-18 16:03:00,
2013-10-18 11:04:00,46.9,38.4,30.06,NW,315,5.5,5.5,72,0.00,,,0.00,VWS V14.01,2013-10-18 16:04:00,
2013-10-18 11:05:00,47.1,38.2,30.06,WNW,292,3.8,3.8,71,0.00,,,0.00,VWS V14.01,2013-10-18 16:05:00,
2013-10-18 11:06:00,47.1,38.2,30.06,WNW,292,3.8,3.8,71,0.00,,,0.00,VWS V14.01,2013-10-18 16:06:00,
2013-10-18 11:07:00,47.1,38.2,30.06,NW,315,7.1,7.1,71,0.00,,,0.00,VWS V14.01,2013-10-18 16:07:00,
2013-10-18 11:08:00,47.1,38.2,30.06,NW,315,7.1,7.1,71,0.00,,,0.00,VWS V14.01,2013-10-18 16:08:00,
2013-10-18 11:09:00,47.1,38.2,30.06,NW,315,7.1,7.1,71,0.00,,,0.00,VWS V14.01,2013-10-18 16:09:00,
2013-10-18 11:10:00,47.1,37.8,30.06,West,270,9.6,9.6,70,0.00,,,0.00,VWS V14.01,2013-10-18 16:10:00,
2013-10-18 11:11:00,47.1,37.8,30.06,West,270,9.6,9.6,70,0.00,,,0.00,VWS V14.01,2013-10-18 16:11:00,
2013-10-18 11:12:00,47.1,37.8,30.06,North,0,1.3,9.6,70,0.00,,,0.00,VWS V14.01,2013-10-18 16:12:00,
2013-10-18 11:13:00,47.1,37.8,30.06,North,0,1.3,1.3,70,0.00,,,0.00,VWS V14.01,2013-10-18 16:13:00,
2013-10-18 11:14:00,47.1,37.8,30.06,WNW,292,6.2,6.2,70,0.00,,,0.00,VWS V14.01,2013-10-18 16:14:00,
2013-10-18 11:15:00,47.1,37.8,30.06,WNW,292,6.2,6.2,70,0.00,,,0.00,VWS V14.01,2013-10-18 16:15:00,
2013-10-18 11:16:00,47.1,37.8,30.06,NW,315,8.9,8.9,70,0.00,,,0.00,VWS V14.01,2013-10-18 16:16:00,
2013-10-18 11:17:00,47.1,37.8,30.06,NW,315,8.9,8.9,70,0.00,,,0.00,VWS V14.01,2013-10-18 16:17:00,
2013-10-18 11:18:00,47.1,37.8,30.06,WNW,292,8.7,8.9,70,0.00,,,0.00,VWS V14.01,2013-10-18 16:18:00,
2013-10-18 11:19:00,47.1,37.8,30.05,WNW,292,8.7,8.7,70,0.00,,,0.00,VWS V14.01,2013-10-18 16:19:00,
2013-10-18 11:20:00,47.1,37.8,30.05,NNW,338,2.6,2.6,70,0.00,,,0.00,VWS V14.01,2013-10-18 16:20:00,
2013-10-18 11:21:00,47.1,37.8,30.05,NNW,338,2.6,2.6,70,0.00,,,0.00,VWS V14.01,2013-10-18 16:21:00,
2013-10-18 11:22:00,47.1,37.8,30.05,NW,315,5.5,5.5,70,0.00,,,0.00,VWS V14.01,2013-10-18 16:22:00,
2013-10-18 11:23:00,47.1,38.2,30.05,NW,315,5.5,5.5,71,0.00,,,0.00,VWS V14.01,2013-10-18 16:23:00,
2013-10-18 11:24:00,47.1,38.2,30.06,NW,315,5.5,5.5,71,0.00,,,0.00,VWS V14.01,2013-10-18 16:24:00,
2013-10-18 11:25:00,47.1,38.2,30.06,WNW,292,8.0,8.0,71,0.00,,,0.00,VWS V14.01,2013-10-18 16:25:00,
2013-10-18 11:26:00,47.1,38.2,30.06,WNW,292,8.0,8.0,71,0.00,,,0.00,VWS V14.01,2013-10-18 16:26:00,
2013-10-18 11:27:00,47.3,38.4,30.06,North,0,7.3,8.0,71,0.00,,,0.00,VWS V14.01,2013-10-18 16:27:00,
2013-10-18 11:28:00,47.3,38.4,30.05,North,0,7.3,7.3,71,0.00,,,0.00,VWS V14.01,2013-10-18 16:28:00,
2013-10-18 11:29:00,47.3,38.7,30.05,West,270,5.1,7.3,72,0.00,,,0.00,VWS V14.01,2013-10-18 16:29:00,
2013-10-18 11:30:00,47.3,38.7,30.05,West,270,5.1,5.1,72,0.00,,,0.00,VWS V14.01,2013-10-18 16:30:00,
2013-10-18 11:31:00,47.3,38.4,30.05,WNW,292,7.1,7.1,71,0.00,,,0.00,VWS V14.01,2013-10-18 16:31:00,
2013-10-18 11:32:00,47.3,38.4,30.05,WNW,292,7.1,7.1,71,0.00,,,0.00,VWS V14.01,2013-10-18 16:32:00,
2013-10-18 11:33:00,47.1,38.2,30.05,West,270,12.7,12.7,71,0.00,,,0.00,VWS V14.01,2013-10-18 16:33:00,
2013-10-18 11:34:00,47.1,38.2,30.05,West,270,12.7,12.7,71,0.00,,,0.00,VWS V14.01,2013-10-18 16:34:00,
2013-10-18 11:35:00,47.1,38.2,30.05,West,270,5.3,5.3,71,0.00,,,0.00,VWS V14.01,2013-10-18 16:35:00,
2013-10-18 11:36:00,47.1,38.2,30.05,West,270,5.3,5.3,71,0.00,,,0.00,VWS V14.01,2013-10-18 16:36:00,
2013-10-18 11:37:00,47.1,38.2,30.05,WNW,292,3.5,5.3,71,0.00,,,0.00,VWS V14.01,2013-10-18 16:37:00,
2013-10-18 11:38:00,47.1,38.5,30.05,WNW,292,3.5,3.5,72,0.00,,,0.00,VWS V14.01,2013-10-18 16:38:00,
2013-10-18 11:39:00,47.1,38.5,30.05,WNW,292,3.5,3.5,72,0.00,,,0.00,VWS V14.01,2013-10-18 16:39:00,
2013-10-18 11:40:00,47.1,38.5,30.05,WNW,292,10.0,10.0,72,0.00,,,0.00,VWS V14.01,2013-10-18 16:40:00,
2013-10-18 11:41:00,47.1,38.5,30.05,WNW,292,10.0,10.0,72,0.00,,,0.00,VWS V14.01,2013-10-18 16:41:00,
2013-10-18 11:42:00,47.1,38.5,30.05,WNW,292,5.1,10.0,72,0.00,,,0.00,VWS V14.01,2013-10-18 16:42:00,
2013-10-18 11:43:00,47.1,38.5,30.05,WNW,292,5.1,5.1,72,0.00,,,0.00,VWS V14.01,2013-10-18 16:43:00,
2013-10-18 11:44:00,47.1,38.5,30.05,WNW,292,8.7,8.7,72,0.00,,,0.00,VWS V14.01,2013-10-18 16:44:00,
2013-10-18 11:45:00,47.1,38.5,30.05,WNW,292,8.7,8.7,72,0.00,,,0.00,VWS V14.01,2013-10-18 16:45:00,
2013-10-18 11:46:00,47.1,38.5,30.05,WNW,292,8.7,8.7,72,0.00,,,0.00,VWS V14.01,2013-10-18 16:46:00,
2013-10-18 11:47:00,47.1,38.5,30.06,WNW,292,8.7,8.7,72,0.00,,,0.00,VWS V14.01,2013-10-18 16:47:00,
2013-10-18 11:48:00,47.3,38.7,30.06,NW,315,4.4,8.7,72,0.00,,,0.00,VWS V14.01,2013-10-18 16:48:00,
2013-10-18 11:49:00,47.3,38.7,30.06,NW,315,4.4,4.4,72,0.00,,,0.00,VWS V14.01,2013-10-18 16:49:00,
2013-10-18 11:50:00,47.3,38.4,30.06,WSW,248,5.1,5.1,71,0.00,,,0.00,VWS V14.01,2013-10-18 16:50:00,
2013-10-18 11:51:00,47.3,38.4,30.06,WSW,248,5.1,5.1,71,0.00,,,0.00,VWS V14.01,2013-10-18 16:51:00,
2013-10-18 11:52:00,47.3,38.4,30.06,SSW,202,7.1,7.1,71,0.00,,,0.00,VWS V14.01,2013-10-18 16:52:00,
2013-10-18 11:53:00,47.3,38.4,30.06,SSW,202,7.1,7.1,71,0.00,,,0.00,VWS V14.01,2013-10-18 16:53:00,
2013-10-18 11:54:00,47.3,38.4,30.06,SSW,202,7.1,7.1,71,0.00,,,0.00,VWS V14.01,2013-10-18 16:54:00,
2013-10-18 11:55:00,47.3,38.4,30.06,WNW,292,8.2,8.2,71,0.00,,,0.00,VWS V14.01,2013-10-18 16:55:00,
2013-10-18 11:56:00,47.3,38.4,30.06,WNW,292,8.2,8.2,71,0.00,,,0.00,VWS V14.01,2013-10-18 16:56:00,
2013-10-18 11:57:00,47.3,38.4,30.06,WSW,248,10.2,10.2,71,0.00,,,0.00,VWS V14.01,2013-10-18 16:57:00,
2013-10-18 11:58:00,47.3,38.4,30.06,WSW,248,10.2,10.2,71,0.00,,,0.00,VWS V14.01,2013-10-18 16:58:00,
2013-10-18 11:59:00,47.1,38.5,30.06,West,270,5.1,10.2,72,0.00,,,0.00,VWS V14.01,2013-10-18 16:59:00,
2013-10-18 12:00:00,47.1,38.5,30.06,West,270,5.1,5.1,72,0.00,,,0.00,VWS V14.01,2013-10-18 17:00:00,
2013-10-18 12:01:00,47.1,38.5,30.07,NNW,338,13.8,13.8,72,0.00,,,0.00,VWS V14.01,2013-10-18 17:01:00,
2013-10-18 12:02:00,47.1,38.5,30.06,NNW,338,13.8,13.8,72,0.00,,,0.00,VWS V14.01,2013-10-18 17:02:00,
2013-10-18 12:03:00,47.3,38.7,30.06,West,270,5.8,13.8,72,0.00,,,0.00,VWS V14.01,2013-10-18 17:03:00,
2013-10-18 12:04:00,47.3,38.7,30.06,West,270,5.8,5.8,72,0.00,,,0.00,VWS V14.01,2013-10-18 17:04:00,
2013-10-18 12:05:00,47.1,38.5,30.06,WNW,292,6.4,6.4,72,0.00,,,0.00,VWS V14.01,2013-10-18 17:05:00,
2013-10-18 12:06:00,47.1,38.5,30.06,WNW,292,6.4,6.4,72,0.00,,,0.00,VWS V14.01,2013-10-18 17:06:00,
2013-10-18 12:07:00,46.9,38.4,30.06,WNW,292,5.8,6.4,72,0.00,,,0.00,VWS V14.01,2013-10-18 17:07:00,
2013-10-18 12:08:00,46.9,38.4,30.06,WNW,292,5.8,5.8,72,0.00,,,0.00,VWS V14.01,2013-10-18 17:08:00,
2013-10-18 12:09:00,46.9,38.4,30.06,WNW,292,5.8,5.8,72,0.00,,,0.00,VWS V14.01,2013-10-18 17:09:00,
2013-10-18 12:10:00,46.9,38.4,30.06,WNW,292,4.6,4.6,72,0.00,,,0.00,VWS V14.01,2013-10-18 17:10:00,
2013-10-18 12:11:00,46.9,38.4,30.06,WNW,292,4.6,4.6,72,0.00,,,0.00,VWS V14.01,2013-10-18 17:11:00,
2013-10-18 12:12:00,46.7,38.2,30.06,NNW,338,6.9,6.9,72,0.00,,,0.00,VWS V14.01,2013-10-18 17:12:00,
2013-10-18 12:13:00,46.7,38.2,30.06,NNW,338,6.9,6.9,72,0.00,,,0.00,VWS V14.01,2013-10-18 17:13:00,
2013-10-18 12:14:00,46.5,38.0,30.06,WNW,292,6.7,6.9,72,0.00,,,0.00,VWS V14.01,2013-10-18 17:14:00,
2013-10-18 12:15:00,46.5,38.0,30.06,WNW,292,6.7,6.7,72,0.00,,,0.00,VWS V14.01,2013-10-18 17:15:00,
2013-10-18 12:16:00,46.5,38.0,30.06,WNW,292,4.6,6.7,72,0.00,,,0.00,VWS V14.01,2013-10-18 17:16:00,
2013-10-18 12:17:00,46.5,38.0,30.06,WNW,292,4.6,4.6,72,0.00,,,0.00,VWS V14.01,2013-10-18 17:17:00,
2013-10-18 12:18:00,46.7,38.2,30.06,WNW,292,5.8,5.8,72,0.00,,,0.00,VWS V14.01,2013-10-18 17:18:00,
2013-10-18 12:19:00,46.7,38.2,30.06,WNW,292,5.8,5.8,72,0.00,,,0.00,VWS V14.01,2013-10-18 17:19:00,
2013-10-18 12:20:00,46.9,38.4,30.06,NW,315,7.8,7.8,72,0.00,,,0.00,VWS V14.01,2013-10-18 17:20:00,
2013-10-18 12:21:00,46.9,38.4,30.06,NW,315,7.8,7.8,72,0.00,,,0.00,VWS V14.01,2013-10-18 17:21:00,
2013-10-18 12:22:00,47.1,38.2,30.06,WNW,292,7.6,7.8,71,0.00,,,0.00,VWS V14.01,2013-10-18 17:22:00,
2013-10-18 12:23:00,47.1,38.2,30.06,WNW,292,7.6,7.6,71,0.00,,,0.00,VWS V14.01,2013-10-18 17:23:00,
2013-10-18 12:24:00,47.1,38.2,30.06,WNW,292,7.6,7.6,71,0.00,,,0.00,VWS V14.01,2013-10-18 17:24:00,
2013-10-18 12:25:00,47.1,38.2,30.05,North,0,7.1,7.1,71,0.00,,,0.00,VWS V14.01,2013-10-18 17:25:00,
2013-10-18 12:26:00,47.1,38.2,30.06,North,0,7.1,7.1,71,0.00,,,0.00,VWS V14.01,2013-10-18 17:26:00,
2013-10-18 12:27:00,47.1,38.5,30.06,NW,315,5.5,7.1,72,0.00,,,0.00,VWS V14.01,2013-10-18 17:27:00,
2013-10-18 12:28:00,47.1,38.5,30.06,NW,315,5.5,5.5,72,0.00,,,0.00,VWS V14.01,2013-10-18 17:28:00,
2013-10-18 12:29:00,47.3,38.4,30.06,West,270,6.9,6.9,71,0.00,,,0.00,VWS V14.01,2013-10-18 17:29:00,
2013-10-18 12:30:00,47.3,38.4,30.05,West,270,6.9,6.9,71,0.00,,,0.00,VWS V14.01,2013-10-18 17:30:00,
2013-10-18 12:31:00,47.3,38.0,30.06,NW,315,8.0,8.0,70,0.00,,,0.00,VWS V14.01,2013-10-18 17:31:00,
2013-10-18 12:32:00,47.3,38.0,30.06,NW,315,8.0,8.0,70,0.00,,,0.00,VWS V14.01,2013-10-18 17:32:00,
2013-10-18 12:33:00,47.3,38.0,30.06,WNW,292,5.3,8.0,70,0.00,,,0.00,VWS V14.01,2013-10-18 17:33:00,
2013-10-18 12:34:00,47.3,38.0,30.06,WNW,292,5.3,5.3,70,0.00,,,0.00,VWS V14.01,2013-10-18 17:34:00,
2013-10-18 12:35:00,47.4,38.1,30.06,NW,315,7.1,7.1,70,0.00,,,0.00,VWS V14.01,2013-10-18 17:35:00,
2013-10-18 12:36:00,47.4,38.1,30.06,NW,315,7.1,7.1,70,0.00,,,0.00,VWS V14.01,2013-10-18 17:36:00,
2013-10-18 12:37:00,47.4,38.1,30.06,WNW,292,9.3,9.3,70,0.00,,,0.00,VWS V14.01,2013-10-18 17:37:00,
2013-10-18 12:38:00,47.4,38.1,30.06,WNW,292,9.3,9.3,70,0.00,,,0.00,VWS V14.01,2013-10-18 17:38:00,
2013-10-18 12:39:00,47.4,38.1,30.06,WNW,292,9.3,9.3,70,0.00,,,0.00,VWS V14.01,2013-10-18 17:39:00,
2013-10-18 12:40:00,47.6,38.3,30.06,North,0,5.3,5.3,70,0.00,,,0.00,VWS V14.01,2013-10-18 17:40:00,
2013-10-18 12:41:00,47.6,38.3,30.06,North,0,5.3,5.3,70,0.00,,,0.00,VWS V14.01,2013-10-18 17:41:00,
2013-10-18 12:42:00,48.0,38.7,30.06,NNW,338,5.3,5.3,70,0.00,,,0.00,VWS V14.01,2013-10-18 17:42:00,
2013-10-18 12:43:00,48.0,38.7,30.06,NNW,338,5.3,5.3,70,0.00,,,0.00,VWS V14.01,2013-10-18 17:43:00,
2013-10-18 12:44:00,48.0,38.7,30.05,NW,315,6.9,6.9,70,0.00,,,0.00,VWS V14.01,2013-10-18 17:44:00,
2013-10-18 12:45:00,48.0,38.7,30.06,NW,315,6.9,6.9,70,0.00,,,0.00,VWS V14.01,2013-10-18 17:45:00,
2013-10-18 12:46:00,48.2,38.5,30.05,NW,315,1.7,6.9,69,0.00,,,0.00,VWS V14.01,2013-10-18 17:46:00,
2013-10-18 12:47:00,48.2,38.5,30.06,NW,315,1.7,1.7,69,0.00,,,0.00,VWS V14.01,2013-10-18 17:47:00,
2013-10-18 12:48:00,48.3,38.6,30.06,North,0,5.3,5.3,69,0.00,,,0.00,VWS V14.01,2013-10-18 17:48:00,
2013-10-18 12:49:00,48.3,38.6,30.05,North,0,5.3,5.3,69,0.00,,,0.00,VWS V14.01,2013-10-18 17:49:00,
2013-10-18 12:50:00,48.5,38.8,30.05,WNW,292,4.9,4.9,69,0.00,,,0.00,VWS V14.01,2013-10-18 17:50:00,
2013-10-18 12:51:00,48.5,38.8,30.06,WNW,292,4.9,4.9,69,0.00,,,0.00,VWS V14.01,2013-10-18 17:51:00,
2013-10-18 12:52:00,48.5,38.4,30.05,NNW,338,0.0,4.9,68,0.00,,,0.00,VWS V14.01,2013-10-18 17:52:00,
2013-10-18 12:53:00,48.5,38.4,30.05,NNW,338,0.0,0.0,68,0.00,,,0.00,VWS V14.01,2013-10-18 17:53:00,
2013-10-18 12:54:00,48.5,38.1,30.05,NNW,338,0.0,0.0,67,0.00,,,0.00,VWS V14.01,2013-10-18 17:54:00,
2013-10-18 12:55:00,48.5,38.1,30.05,West,270,4.4,4.4,67,0.00,,,0.00,VWS V14.01,2013-10-18 17:55:00,
2013-10-18 12:56:00,48.5,38.1,30.05,West,270,4.4,4.4,67,0.00,,,0.00,VWS V14.01,2013-10-18 17:56:00,
2013-10-18 12:57:00,48.3,38.2,30.05,West,270,6.9,6.9,68,0.00,,,0.00,VWS V14.01,2013-10-18 17:57:00,
2013-10-18 12:58:00,48.3,38.2,30.05,West,270,6.9,6.9,68,0.00,,,0.00,VWS V14.01,2013-10-18 17:58:00,
2013-10-18 12:59:00,48.0,37.6,30.05,WNW,292,11.6,11.6,67,0.00,,,0.00,VWS V14.01,2013-10-18 17:59:00,
2013-10-18 13:00:00,48.0,37.6,30.05,WNW,292,11.6,11.6,67,0.00,,,0.00,VWS V14.01,2013-10-18 18:00:00,
2013-10-18 13:01:00,47.8,37.8,30.05,WNW,292,8.5,11.6,68,0.00,,,0.00,VWS V14.01,2013-10-18 18:01:00,
2013-10-18 13:02:00,47.8,37.8,30.06,WNW,292,8.5,8.5,68,0.00,,,0.00,VWS V14.01,2013-10-18 18:02:00,
2013-10-18 13:03:00,47.4,37.4,30.05,WNW,292,10.0,10.0,68,0.00,,,0.00,VWS V14.01,2013-10-18 18:03:00,
2013-10-18 13:04:00,47.4,37.4,30.05,WNW,292,10.0,10.0,68,0.00,,,0.00,VWS V14.01,2013-10-18 18:04:00,
2013-10-18 13:05:00,47.4,37.8,30.05,NNW,338,6.4,6.4,69,0.00,,,0.00,VWS V14.01,2013-10-18 18:05:00,
2013-10-18 13:06:00,47.4,37.8,30.05,NNW,338,6.4,6.4,69,0.00,,,0.00,VWS V14.01,2013-10-18 18:06:00,
2013-10-18 13:07:00,47.4,37.8,30.05,WNW,292,8.9,8.9,69,0.00,,,0.00,VWS V14.01,2013-10-18 18:07:00,
2013-10-18 13:08:00,47.4,37.8,30.05,WNW,292,8.9,8.9,69,0.00,,,0.00,VWS V14.01,2013-10-18 18:08:00,
2013-10-18 13:09:00,47.4,37.8,30.05,WNW,292,8.9,8.9,69,0.00,,,0.00,VWS V14.01,2013-10-18 18:09:00,
2013-10-18 13:10:00,47.4,37.8,30.05,NNW,338,6.7,6.7,69,0.00,,,0.00,VWS V14.01,2013-10-18 18:10:00,
2013-10-18 13:11:00,47.4,37.8,30.05,NNW,338,6.7,6.7,69,0.00,,,0.00,VWS V14.01,2013-10-18 18:11:00,
2013-10-18 13:12:00,47.4,37.8,30.05,NW,315,7.3,7.3,69,0.00,,,0.00,VWS V14.01,2013-10-18 18:12:00,
2013-10-18 13:13:00,47.4,37.8,30.05,NW,315,7.3,7.3,69,0.00,,,0.00,VWS V14.01,2013-10-18 18:13:00,
2013-10-18 13:14:00,47.4,37.8,30.05,West,270,9.3,9.3,69,0.00,,,0.00,VWS V14.01,2013-10-18 18:14:00,
2013-10-18 13:15:00,47.4,37.8,30.05,West,270,9.3,9.3,69,0.00,,,0.00,VWS V14.01,2013-10-18 18:15:00,
2013-10-18 13:16:00,47.3,37.3,30.05,WNW,292,4.4,9.3,68,0.00,,,0.00,VWS V14.01,2013-10-18 18:16:00,
2013-10-18 13:17:00,47.3,37.3,30.05,WNW,292,4.4,4.4,68,0.00,,,0.00,VWS V14.01,2013-10-18 18:17:00,
2013-10-18 13:18:00,47.3,37.7,30.05,West,270,6.9,6.9,69,0.00,,,0.00,VWS V14.01,2013-10-18 18:18:00,
2013-10-18 13:19:00,47.3,37.7,30.05,West,270,6.9,6.9,69,0.00,,,0.00,VWS V14.01,2013-10-18 18:19:00,
2013-10-18 13:20:00,47.3,37.3,30.05,WNW,292,8.5,8.5,68,0.00,,,0.00,VWS V14.01,2013-10-18 18:20:00,
2013-10-18 13:21:00,47.3,37.3,30.05,WNW,292,8.5,8.5,68,0.00,,,0.00,VWS V14.01,2013-10-18 18:21:00,
2013-10-18 13:22:00,47.3,37.3,30.05,West,270,11.8,11.8,68,0.00,,,0.00,VWS V14.01,2013-10-18 18:22:00,
2013-10-18 13:23:00,47.4,37.4,30.05,West,270,11.8,11.8,68,0.00,,,0.00,VWS V14.01,2013-10-18 18:23:00,
2013-10-18 13:24:00,47.4,37.4,30.05,NW,315,5.8,11.8,68,0.00,,,0.00,VWS V14.01,2013-10-18 18:24:00,
2013-10-18 13:25:00,47.6,38.0,30.05,NW,315,5.8,5.8,69,0.00,,,0.00,VWS V14.01,2013-10-18 18:25:00,
2013-10-18 13:26:00,47.6,38.0,30.05,NW,315,5.8,5.8,69,0.00,,,0.00,VWS V14.01,2013-10-18 18:26:00,
2013-10-18 13:27:00,48.0,37.6,30.05,NW,315,5.5,5.8,67,0.00,,,0.00,VWS V14.01,2013-10-18 18:27:00,
2013-10-18 13:28:00,48.0,37.6,30.05,NW,315,5.5,5.5,67,0.00,,,0.00,VWS V14.01,2013-10-18 18:28:00,
2013-10-18 13:29:00,48.3,37.9,30.05,West,270,11.6,11.6,67,0.00,,,0.00,VWS V14.01,2013-10-18 18:29:00,
2013-10-18 13:30:00,48.3,37.9,30.05,West,270,11.6,11.6,67,0.00,,,0.00,VWS V14.01,2013-10-18 18:30:00,
2013-10-18 13:31:00,48.7,37.9,30.05,WNW,292,4.6,11.6,66,0.00,,,0.00,VWS V14.01,2013-10-18 18:31:00,
2013-10-18 13:32:00,48.7,37.9,30.05,WNW,292,4.6,4.6,66,0.00,,,0.00,VWS V14.01,2013-10-18 18:32:00,
2013-10-18 13:33:00,48.9,38.1,30.05,WNW,292,4.6,4.6,66,0.00,,,0.00,VWS V14.01,2013-10-18 18:33:00,
2013-10-18 13:34:00,48.9,38.1,30.05,WNW,292,4.6,4.6,66,0.00,,,0.00,VWS V14.01,2013-10-18 18:34:00,
2013-10-18 13:35:00,49.1,38.2,30.05,NW,315,11.8,11.8,66,0.00,,,0.00,VWS V14.01,2013-10-18 18:35:00,
2013-10-18 13:36:00,49.1,38.2,30.05,NW,315,11.8,11.8,66,0.00,,,0.00,VWS V14.01,2013-10-18 18:36:00,
2013-10-18 13:37:00,49.2,38.0,30.04,WNW,292,11.1,11.8,65,0.00,,,0.00,VWS V14.01,2013-10-18 18:37:00,
2013-10-18 13:38:00,49.2,38.0,30.04,WNW,292,11.1,11.1,65,0.00,,,0.00,VWS V14.01,2013-10-18 18:38:00,
2013-10-18 13:39:00,49.2,37.6,30.05,WNW,292,11.1,11.1,64,0.00,,,0.00,VWS V14.01,2013-10-18 18:39:00,
2013-10-18 13:40:00,49.2,37.6,30.04,WNW,292,5.8,11.1,64,0.00,,,0.00,VWS V14.01,2013-10-18 18:40:00,
2013-10-18 13:41:00,49.2,37.6,30.04,WNW,292,5.8,5.8,64,0.00,,,0.00,VWS V14.01,2013-10-18 18:41:00,
2013-10-18 13:42:00,48.9,37.3,30.04,NW,315,11.4,11.4,64,0.00,,,0.00,VWS V14.01,2013-10-18 18:42:00,
2013-10-18 13:43:00,48.9,37.3,30.04,NW,315,11.4,11.4,64,0.00,,,0.00,VWS V14.01,2013-10-18 18:43:00,
2013-10-18 13:44:00,48.9,37.3,30.04,WNW,292,2.2,11.4,64,0.00,,,0.00,VWS V14.01,2013-10-18 18:44:00,
2013-10-18 13:45:00,48.9,37.3,30.04,WNW,292,2.2,2.2,64,0.00,,,0.00,VWS V14.01,2013-10-18 18:45:00,
2013-10-18 13:46:00,48.9,37.7,30.04,NNW,338,5.5,5.5,65,0.00,,,0.00,VWS V14.01,2013-10-18 18:46:00,
2013-10-18 13:47:00,48.9,37.7,30.04,NNW,338,5.5,5.5,65,0.00,,,0.00,VWS V14.01,2013-10-18 18:47:00,
2013-10-18 13:48:00,49.1,37.9,30.04,WNW,292,5.1,5.5,65,0.00,,,0.00,VWS V14.01,2013-10-18 18:48:00,
2013-10-18 13:49:00,49.1,37.9,30.04,WNW,292,5.1,5.1,65,0.00,,,0.00,VWS V14.01,2013-10-18 18:49:00,
2013-10-18 13:50:00,49.1,37.5,30.04,NNW,338,4.0,5.1,64,0.00,,,0.00,VWS V14.01,2013-10-18 18:50:00,
2013-10-18 13:51:00,49.1,37.5,30.04,NNW,338,4.0,4.0,64,0.00,,,0.00,VWS V14.01,2013-10-18 18:51:00,
2013-10-18 13:52:00,49.4,37.8,30.04,WNW,292,8.7,8.7,64,0.00,,,0.00,VWS V14.01,2013-10-18 18:52:00,
2013-10-18 13:53:00,49.4,37.8,30.04,WNW,292,8.7,8.7,64,0.00,,,0.00,VWS V14.01,2013-10-18 18:53:00,
2013-10-18 13:54:00,49.8,37.7,30.04,WNW,292,6.2,8.7,63,0.00,,,0.00,VWS V14.01,2013-10-18 18:54:00,
2013-10-18 13:55:00,49.8,37.7,30.04,WNW,292,6.2,6.2,63,0.00,,,0.00,VWS V14.01,2013-10-18 18:55:00,
2013-10-18 13:56:00,49.8,37.7,30.04,WNW,292,6.2,6.2,63,0.00,,,0.00,VWS V14.01,2013-10-18 18:56:00,
2013-10-18 13:57:00,50.0,37.9,30.04,WNW,292,10.7,10.7,63,0.00,,,0.00,VWS V14.01,2013-10-18 18:57:00,
2013-10-18 13:58:00,50.0,37.9,30.04,WNW,292,10.7,10.7,63,0.00,,,0.00,VWS V14.01,2013-10-18 18:58:00,
2013-10-18 13:59:00,50.1,38.0,30.04,WNW,292,7.1,10.7,63,0.00,,,0.00,VWS V14.01,2013-10-18 18:59:00,
2013-10-18 14:00:00,50.1,38.0,30.04,WNW,292,7.1,7.1,63,0.00,,,0.00,VWS V14.01,2013-10-18 19:00:00,
2013-10-18 14:01:00,50.1,36.8,30.04,NNW,338,10.0,10.0,60,0.00,,,0.00,VWS V14.01,2013-10-18 19:01:00,
2013-10-18 14:02:00,50.1,36.8,30.04,NNW,338,10.0,10.0,60,0.00,,,0.00,VWS V14.01,2013-10-18 19:02:00,
2013-10-18 14:03:00,50.1,36.8,30.04,WNW,292,8.0,10.0,60,0.00,,,0.00,VWS V14.01,2013-10-18 19:03:00,
2013-10-18 14:04:00,50.1,36.8,30.04,WNW,292,8.0,8.0,60,0.00,,,0.00,VWS V14.01,2013-10-18 19:04:00,
2013-10-18 14:05:00,49.8,36.9,30.04,WNW,292,3.8,8.0,61,0.00,,,0.00,VWS V14.01,2013-10-18 19:05:00,
2013-10-18 14:06:00,49.8,36.9,30.04,WNW,292,3.8,3.8,61,0.00,,,0.00,VWS V14.01,2013-10-18 19:06:00,
2013-10-18 14:07:00,49.8,36.9,30.04,NW,315,13.6,13.6,61,0.00,,,0.00,VWS V14.01,2013-10-18 19:07:00,
2013-10-18 14:08:00,49.8,36.9,30.04,NW,315,13.6,13.6,61,0.00,,,0.00,VWS V14.01,2013-10-18 19:08:00,
2013-10-18 14:09:00,49.8,36.9,30.04,NW,315,6.0,13.6,61,0.00,,,0.00,VWS V14.01,2013-10-18 19:09:00,
2013-10-18 14:10:00,49.8,36.9,30.04,NW,315,6.0,6.0,61,0.00,,,0.00,VWS V14.01,2013-10-18 19:10:00,
2013-10-18 14:11:00,50.1,37.2,30.04,NW,315,6.0,6.0,61,0.00,,,0.00,VWS V14.01,2013-10-18 19:11:00,
2013-10-18 14:12:00,50.5,37.6,30.04,NNE,22,6.9,6.9,61,0.00,,,0.00,VWS V14.01,2013-10-18 19:12:00,
2013-10-18 14:13:00,50.5,37.6,30.03,NNE,22,6.9,6.9,61,0.00,,,0.00,VWS V14.01,2013-10-18 19:13:00,
2013-10-18 14:14:00,51.0,38.5,30.04,WNW,292,5.3,6.9,62,0.00,,,0.00,VWS V14.01,2013-10-18 19:14:00,
2013-10-18 14:15:00,51.0,38.5,30.04,WNW,292,5.3,5.3,62,0.00,,,0.00,VWS V14.01,2013-10-18 19:15:00,
2013-10-18 14:16:00,51.4,38.0,30.04,West,270,7.8,7.8,60,0.00,,,0.00,VWS V14.01,2013-10-18 19:16:00,
2013-10-18 14:17:00,51.4,38.0,30.03,West,270,7.8,7.8,60,0.00,,,0.00,VWS V14.01,2013-10-18 19:17:00,
2013-10-18 14:18:00,51.2,37.8,30.04,WNW,292,5.5,7.8,60,0.00,,,0.00,VWS V14.01,2013-10-18 19:18:00,
2013-10-18 14:19:00,51.2,37.8,30.04,WNW,292,5.5,5.5,60,0.00,,,0.00,VWS V14.01,2013-10-18 19:19:00,
2013-10-18 14:20:00,51.2,37.8,30.04,WNW,292,5.5,5.5,60,0.00,,,0.00,VWS V14.01,2013-10-18 19:20:00,
2013-10-18 14:21:00,51.0,37.6,30.04,West,270,4.6,4.6,60,0.00,,,0.00,VWS V14.01,2013-10-18 19:21:00,
2013-10-18 14:22:00,50.7,36.9,30.04,WNW,292,6.0,6.0,59,0.00,,,0.00,VWS V14.01,2013-10-18 19:22:00,
2013-10-18 14:23:00,50.7,36.9,30.04,WNW,292,6.0,6.0,59,0.00,,,0.00,VWS V14.01,2013-10-18 19:23:00,
2013-10-18 14:24:00,50.7,36.9,30.04,West,270,4.2,6.0,59,0.00,,,0.00,VWS V14.01,2013-10-18 19:24:00,
2013-10-18 14:25:00,50.7,36.9,30.04,West,270,4.2,4.2,59,0.00,,,0.00,VWS V14.01,2013-10-18 19:25:00,
2013-10-18 14:26:00,50.7,37.3,30.03,West,270,4.2,4.2,60,0.00,,,0.00,VWS V14.01,2013-10-18 19:26:00,
2013-10-18 14:27:00,50.5,37.2,30.04,WNW,292,5.8,5.8,60,0.00,,,0.00,VWS V14.01,2013-10-18 19:27:00,
2013-10-18 14:28:00,50.5,37.2,30.04,WNW,292,5.8,5.8,60,0.00,,,0.00,VWS V14.01,2013-10-18 19:28:00,
2013-10-18 14:29:00,50.5,37.2,30.04,WNW,292,2.0,5.8,60,0.00,,,0.00,VWS V14.01,2013-10-18 19:29:00,
2013-10-18 14:30:00,50.5,37.2,30.04,WNW,292,2.0,2.0,60,0.00,,,0.00,VWS V14.01,2013-10-18 19:30:00,
2013-10-18 14:31:00,50.5,36.7,30.04,WNW,292,10.5,10.5,59,0.00,,,0.00,VWS V14.01,2013-10-18 19:31:00,
2013-10-18 14:32:00,50.5,36.7,30.03,WNW,292,10.5,10.5,59,0.00,,,0.00,VWS V14.01,2013-10-18 19:32:00,
2013-10-18 14:33:00,50.1,36.3,30.04,WNW,292,6.4,10.5,59,0.00,,,0.00,VWS V14.01,2013-10-18 19:33:00,
2013-10-18 14:34:00,50.1,36.3,30.04,WNW,292,6.4,6.4,59,0.00,,,0.00,VWS V14.01,2013-10-18 19:34:00,
2013-10-18 14:35:00,50.1,36.3,30.04,WNW,292,6.4,6.4,59,0.00,,,0.00,VWS V14.01,2013-10-18 19:35:00,
2013-10-18 14:36:00,50.1,36.8,30.04,West,270,3.1,3.1,60,0.00,,,0.00,VWS V14.01,2013-10-18 19:36:00,
2013-10-18 14:37:00,50.1,36.8,30.04,West,270,4.4,4.4,60,0.00,,,0.00,VWS V14.01,2013-10-18 19:37:00,
2013-10-18 14:38:00,50.1,36.8,30.04,West,270,4.4,4.4,60,0.00,,,0.00,VWS V14.01,2013-10-18 19:38:00,
2013-10-18 14:39:00,50.1,36.8,30.04,WNW,292,1.5,4.4,60,0.00,,,0.00,VWS V14.01,2013-10-18 19:39:00,
2013-10-18 14:40:00,50.1,36.8,30.04,WNW,292,1.5,1.5,60,0.00,,,0.00,VWS V14.01,2013-10-18 19:40:00,
2013-10-18 14:41:00,50.1,36.8,30.03,WNW,292,1.5,1.5,60,0.00,,,0.00,VWS V14.01,2013-10-18 19:41:00,
2013-10-18 14:42:00,50.3,37.0,30.04,WNW,292,5.3,5.3,60,0.00,,,0.00,VWS V14.01,2013-10-18 19:42:00,
2013-10-18 14:43:00,50.3,37.0,30.04,WNW,292,5.3,5.3,60,0.00,,,0.00,VWS V14.01,2013-10-18 19:43:00,
2013-10-18 14:44:00,50.3,37.0,30.04,WNW,292,4.2,5.3,60,0.00,,,0.00,VWS V14.01,2013-10-18 19:44:00,
2013-10-18 14:45:00,50.3,37.0,30.04,WNW,292,4.2,4.2,60,0.00,,,0.00,VWS V14.01,2013-10-18 19:45:00,
2013-10-18 14:46:00,50.5,37.2,30.04,WNW,292,6.4,6.4,60,0.00,,,0.00,VWS V14.01,2013-10-18 19:46:00,
2013-10-18 14:47:00,50.5,37.2,30.04,WNW,292,6.4,6.4,60,0.00,,,0.00,VWS V14.01,2013-10-18 19:47:00,
2013-10-18 14:48:00,50.5,37.2,30.04,NNW,338,3.8,6.4,60,0.00,,,0.00,VWS V14.01,2013-10-18 19:48:00,
2013-10-18 14:49:00,50.5,37.2,30.04,NNW,338,3.8,3.8,60,0.00,,,0.00,VWS V14.01,2013-10-18 19:49:00,
2013-10-18 14:50:00,50.5,37.2,30.04,NNW,338,3.8,3.8,60,0.00,,,0.00,VWS V14.01,2013-10-18 19:50:00,
2013-10-18 14:51:00,50.5,36.7,30.03,WNW,292,4.9,4.9,59,0.00,,,0.00,VWS V14.01,2013-10-18 19:51:00,
2013-10-18 14:52:00,50.5,36.7,30.03,NW,315,7.3,7.3,59,0.00,,,0.00,VWS V14.01,2013-10-18 19:52:00,
2013-10-18 14:53:00,50.5,36.7,30.03,NW,315,7.3,7.3,59,0.00,,,0.00,VWS V14.01,2013-10-18 19:53:00,
2013-10-18 14:54:00,50.5,36.7,30.04,WNW,292,8.0,8.0,59,0.00,,,0.00,VWS V14.01,2013-10-18 19:54:00,
2013-10-18 14:55:00,50.5,36.7,30.04,WNW,292,8.0,8.0,59,0.00,,,0.00,VWS V14.01,2013-10-18 19:55:00,
2013-10-18 14:56:00,50.5,37.2,30.03,WNW,292,8.0,8.0,60,0.00,,,0.00,VWS V14.01,2013-10-18 19:56:00,
2013-10-18 14:57:00,50.3,36.5,30.04,WNW,292,6.9,8.0,59,0.00,,,0.00,VWS V14.01,2013-10-18 19:57:00,
2013-10-18 14:58:00,50.3,36.5,30.04,WNW,292,6.9,6.9,59,0.00,,,0.00,VWS V14.01,2013-10-18 19:58:00,
2013-10-18 14:59:00,50.3,36.5,30.04,WNW,292,5.5,6.9,59,0.00,,,0.00,VWS V14.01,2013-10-18 19:59:00,
2013-10-18 15:00:00,50.3,36.5,30.04,WNW,292,5.5,5.5,59,0.00,,,0.00,VWS V14.01,2013-10-18 20:00:00,
2013-10-18 15:01:00,50.1,35.9,30.04,WNW,292,4.4,5.5,58,0.00,,,0.00,VWS V14.01,2013-10-18 20:01:00,
2013-10-18 15:02:00,50.1,35.9,30.04,WNW,292,4.4,4.4,58,0.00,,,0.00,VWS V14.01,2013-10-18 20:02:00,
2013-10-18 15:03:00,49.8,35.6,30.04,WNW,292,4.6,4.6,58,0.00,,,0.00,VWS V14.01,2013-10-18 20:03:00,
2013-10-18 15:04:00,49.8,35.6,30.04,WNW,292,4.6,4.6,58,0.00,,,0.00,VWS V14.01,2013-10-18 20:04:00,
2013-10-18 15:05:00,49.8,35.6,30.04,WNW,292,4.6,4.6,58,0.00,,,0.00,VWS V14.01,2013-10-18 20:05:00,
2013-10-18 15:06:00,49.8,36.1,30.04,West,270,5.5,5.5,59,0.00,,,0.00,VWS V14.01,2013-10-18 20:06:00,
2013-10-18 15:07:00,49.8,36.1,30.04,WNW,292,4.9,5.5,59,0.00,,,0.00,VWS V14.01,2013-10-18 20:07:00,
2013-10-18 15:08:00,49.8,36.1,30.04,WNW,292,4.9,4.9,59,0.00,,,0.00,VWS V14.01,2013-10-18 20:08:00,
2013-10-18 15:09:00,49.8,36.1,30.04,NW,315,6.0,6.0,59,0.00,,,0.00,VWS V14.01,2013-10-18 20:09:00,
2013-10-18 15:10:00,49.8,36.1,30.04,NW,315,6.0,6.0,59,0.00,,,0.00,VWS V14.01,2013-10-18 20:10:00,
2013-10-18 15:11:00,49.8,36.1,30.04,NW,315,6.0,6.0,59,0.00,,,0.00,VWS V14.01,2013-10-18 20:11:00,
2013-10-18 15:12:00,49.8,36.1,30.04,West,270,5.1,6.0,59,0.00,,,0.00,VWS V14.01,2013-10-18 20:12:00,
2013-10-18 15:13:00,49.8,36.1,30.04,West,270,5.1,5.1,59,0.00,,,0.00,VWS V14.01,2013-10-18 20:13:00,
2013-10-18 15:14:00,50.1,36.8,30.04,WNW,292,5.5,5.5,60,0.00,,,0.00,VWS V14.01,2013-10-18 20:14:00,
2013-10-18 15:15:00,50.1,36.8,30.04,WNW,292,5.5,5.5,60,0.00,,,0.00,VWS V14.01,2013-10-18 20:15:00,
2013-10-18 15:16:00,50.3,36.5,30.04,WNW,292,5.5,5.5,59,0.00,,,0.00,VWS V14.01,2013-10-18 20:16:00,
2013-10-18 15:17:00,50.3,36.5,30.03,WNW,292,5.5,5.5,59,0.00,,,0.00,VWS V14.01,2013-10-18 20:17:00,
2013-10-18 15:18:00,50.5,35.8,30.04,WNW,292,4.0,5.5,57,0.00,,,0.00,VWS V14.01,2013-10-18 20:18:00,
2013-10-18 15:19:00,50.5,35.8,30.03,WNW,292,4.0,4.0,57,0.00,,,0.00,VWS V14.01,2013-10-18 20:19:00,
2013-10-18 15:20:00,50.5,35.8,30.03,WNW,292,4.0,4.0,57,0.00,,,0.00,VWS V14.01,2013-10-18 20:20:00,
2013-10-18 15:21:00,50.5,35.8,30.03,WNW,292,8.0,8.0,57,0.00,,,0.00,VWS V14.01,2013-10-18 20:21:00,
2013-10-18 15:22:00,50.3,35.7,30.04,NW,315,4.2,8.0,57,0.00,,,0.00,VWS V14.01,2013-10-18 20:22:00,
2013-10-18 15:23:00,50.3,35.7,30.04,NW,315,4.2,4.2,57,0.00,,,0.00,VWS V14.01,2013-10-18 20:23:00,
2013-10-18 15:24:00,50.3,35.7,30.04,WNW,292,3.5,4.2,57,0.00,,,0.00,VWS V14.01,2013-10-18 20:24:00,
2013-10-18 15:25:00,50.3,35.7,30.04,WNW,292,3.5,3.5,57,0.00,,,0.00,VWS V14.01,2013-10-18 20:25:00,
2013-10-18 15:26:00,50.5,36.3,30.04,WNW,292,3.5,3.5,58,0.00,,,0.00,VWS V14.01,2013-10-18 20:26:00,
2013-10-18 15:27:00,50.5,36.3,30.04,NW,315,3.5,3.5,58,0.00,,,0.00,VWS V14.01,2013-10-18 20:27:00,
2013-10-18 15:28:00,50.5,36.3,30.04,NW,315,3.5,3.5,58,0.00,,,0.00,VWS V14.01,2013-10-18 20:28:00,
2013-10-18 15:29:00,50.7,35.6,30.04,WSW,248,8.0,8.0,56,0.00,,,0.00,VWS V14.01,2013-10-18 20:29:00,
2013-10-18 15:30:00,50.7,35.6,30.04,WSW,248,8.0,8.0,56,0.00,,,0.00,VWS V14.01,2013-10-18 20:30:00,
2013-10-18 15:31:00,50.3,35.7,30.04,WNW,292,5.1,8.0,57,0.00,,,0.00,VWS V14.01,2013-10-18 20:31:00,
2013-10-18 15:32:00,50.3,35.7,30.04,WNW,292,5.1,5.1,57,0.00,,,0.00,VWS V14.01,2013-10-18 20:32:00,
2013-10-18 15:33:00,50.5,35.8,30.04,NW,315,2.6,5.1,57,0.00,,,0.00,VWS V14.01,2013-10-18 20:33:00,
2013-10-18 15:34:00,50.5,35.8,30.04,NW,315,2.6,2.6,57,0.00,,,0.00,VWS V14.01,2013-10-18 20:34:00,
2013-10-18 15:35:00,50.5,35.8,30.04,NW,315,2.6,2.6,57,0.00,,,0.00,VWS V14.01,2013-10-18 20:35:00,
2013-10-18 15:36:00,50.5,35.8,30.04,WNW,292,5.8,5.8,57,0.00,,,0.00,VWS V14.01,2013-10-18 20:36:00,
2013-10-18 15:37:00,50.7,35.6,30.04,WNW,292,5.8,5.8,56,0.00,,,0.00,VWS V14.01,2013-10-18 20:37:00,
2013-10-18 15:38:00,50.7,35.6,30.04,WNW,292,5.8,5.8,56,0.00,,,0.00,VWS V14.01,2013-10-18 20:38:00,
2013-10-18 15:39:00,50.7,35.6,30.04,West,270,6.9,6.9,56,0.00,,,0.00,VWS V14.01,2013-10-18 20:39:00,
2013-10-18 15:40:00,50.7,35.6,30.04,West,270,6.9,6.9,56,0.00,,,0.00,VWS V14.01,2013-10-18 20:40:00,
2013-10-18 15:41:00,50.7,35.1,30.03,West,270,6.9,6.9,55,0.00,,,0.00,VWS V14.01,2013-10-18 20:41:00,
2013-10-18 15:42:00,50.7,35.6,30.03,WNW,292,6.2,6.9,56,0.00,,,0.00,VWS V14.01,2013-10-18 20:42:00,
2013-10-18 15:43:00,50.7,35.6,30.04,WNW,292,6.2,6.2,56,0.00,,,0.00,VWS V14.01,2013-10-18 20:43:00,
2013-10-18 15:44:00,50.7,34.7,30.04,WNW,292,8.2,8.2,54,0.00,,,0.00,VWS V14.01,2013-10-18 20:44:00,
2013-10-18 15:45:00,50.7,34.7,30.04,WNW,292,8.2,8.2,54,0.00,,,0.00,VWS V14.01,2013-10-18 20:45:00,
2013-10-18 15:46:00,50.5,35.0,30.04,WNW,292,8.7,8.7,55,0.00,,,0.00,VWS V14.01,2013-10-18 20:46:00,
2013-10-18 15:47:00,50.5,35.0,30.04,WNW,292,8.7,8.7,55,0.00,,,0.00,VWS V14.01,2013-10-18 20:47:00,
2013-10-18 15:48:00,50.7,35.6,30.03,West,270,2.9,8.7,56,0.00,,,0.00,VWS V14.01,2013-10-18 20:48:00,
2013-10-18 15:49:00,50.7,35.6,30.04,West,270,2.9,2.9,56,0.00,,,0.00,VWS V14.01,2013-10-18 20:49:00,
2013-10-18 15:50:00,50.7,35.6,30.04,West,270,2.9,2.9,56,0.00,,,0.00,VWS V14.01,2013-10-18 20:50:00,
2013-10-18 15:51:00,50.7,34.7,30.03,West,270,7.8,7.8,54,0.00,,,0.00,VWS V14.01,2013-10-18 20:51:00,
2013-10-18 15:52:00,50.7,35.1,30.04,NNW,338,5.3,7.8,55,0.00,,,0.00,VWS V14.01,2013-10-18 20:52:00,
2013-10-18 15:53:00,50.7,35.1,30.03,NNW,338,5.3,5.3,55,0.00,,,0.00,VWS V14.01,2013-10-18 20:53:00,
2013-10-18 15:54:00,50.7,35.1,30.04,NNW,338,7.1,7.1,55,0.00,,,0.00,VWS V14.01,2013-10-18 20:54:00,
2013-10-18 15:55:00,50.7,35.1,30.04,NNW,338,7.1,7.1,55,0.00,,,0.00,VWS V14.01,2013-10-18 20:55:00,
2013-10-18 15:56:00,50.7,35.6,30.04,NNW,338,7.1,7.1,56,0.00,,,0.00,VWS V14.01,2013-10-18 20:56:00,
2013-10-18 15:57:00,50.7,35.1,30.04,NW,315,2.2,7.1,55,0.00,,,0.00,VWS V14.01,2013-10-18 20:57:00,
2013-10-18 15:58:00,50.7,35.1,30.04,NW,315,2.2,2.2,55,0.00,,,0.00,VWS V14.01,2013-10-18 20:58:00,
2013-10-18 15:59:00,50.7,35.1,30.03,NW,315,3.8,3.8,55,0.00,,,0.00,VWS V14.01,2013-10-18 20:59:00,
2013-10-18 16:00:00,50.7,35.1,30.03,NW,315,3.8,3.8,55,0.00,,,0.00,VWS V14.01,2013-10-18 21:00:00,
2013-10-18 16:01:00,50.7,35.1,30.04,WNW,292,5.3,5.3,55,0.00,,,0.00,VWS V14.01,2013-10-18 21:01:00,
2013-10-18 16:02:00,50.7,35.1,30.03,WNW,292,5.3,5.3,55,0.00,,,0.00,VWS V14.01,2013-10-18 21:02:00,
2013-10-18 16:03:00,50.5,35.4,30.03,NW,315,4.9,5.3,56,0.00,,,0.00,VWS V14.01,2013-10-18 21:03:00,
2013-10-18 16:04:00,50.5,35.4,30.03,NW,315,4.9,4.9,56,0.00,,,0.00,VWS V14.01,2013-10-18 21:04:00,
2013-10-18 16:05:00,50.5,35.4,30.03,NW,315,4.9,4.9,56,0.00,,,0.00,VWS V14.01,2013-10-18 21:05:00,
2013-10-18 16:06:00,50.5,35.0,30.03,WNW,292,7.3,7.3,55,0.00,,,0.00,VWS V14.01,2013-10-18 21:06:00,
2013-10-18 16:07:00,50.5,34.5,30.03,West,270,5.5,7.3,54,0.00,,,0.00,VWS V14.01,2013-10-18 21:07:00,
2013-10-18 16:08:00,50.5,34.5,30.03,West,270,5.5,5.5,54,0.00,,,0.00,VWS V14.01,2013-10-18 21:08:00,
2013-10-18 16:09:00,50.5,35.0,30.03,WNW,292,5.8,5.8,55,0.00,,,0.00,VWS V14.01,2013-10-18 21:09:00,
2013-10-18 16:10:00,50.5,35.0,30.03,WNW,292,5.8,5.8,55,0.00,,,0.00,VWS V14.01,2013-10-18 21:10:00,
2013-10-18 16:11:00,50.5,35.0,30.03,WNW,292,5.8,5.8,55,0.00,,,0.00,VWS V14.01,2013-10-18 21:11:00,
2013-10-18 16:12:00,50.3,33.8,30.04,WNW,292,8.0,8.0,53,0.00,,,0.00,VWS V14.01,2013-10-18 21:12:00,
2013-10-18 16:13:00,50.3,33.8,30.03,WNW,292,8.0,8.0,53,0.00,,,0.00,VWS V14.01,2013-10-18 21:13:00,
2013-10-18 16:14:00,50.1,34.1,30.03,WNW,292,5.5,8.0,54,0.00,,,0.00,VWS V14.01,2013-10-18 21:14:00,
2013-10-18 16:15:00,50.1,34.1,30.03,WNW,292,5.5,5.5,54,0.00,,,0.00,VWS V14.01,2013-10-18 21:15:00,
2013-10-18 16:16:00,50.1,34.1,30.03,WNW,292,9.1,9.1,54,0.00,,,0.00,VWS V14.01,2013-10-18 21:16:00,
2013-10-18 16:17:00,50.1,34.1,30.03,WNW,292,9.1,9.1,54,0.00,,,0.00,VWS V14.01,2013-10-18 21:17:00,
2013-10-18 16:18:00,50.1,34.6,30.03,WNW,292,4.6,9.1,55,0.00,,,0.00,VWS V14.01,2013-10-18 21:18:00,
2013-10-18 16:19:00,50.1,34.6,30.04,WNW,292,4.6,4.6,55,0.00,,,0.00,VWS V14.01,2013-10-18 21:19:00,
2013-10-18 16:20:00,50.1,34.6,30.04,WNW,292,4.6,4.6,55,0.00,,,0.00,VWS V14.01,2013-10-18 21:20:00,
2013-10-18 16:21:00,50.1,35.0,30.04,NW,315,1.5,1.5,56,0.00,,,0.00,VWS V14.01,2013-10-18 21:21:00,
2013-10-18 16:22:00,50.1,35.0,30.04,WNW,292,7.1,7.1,56,0.00,,,0.00,VWS V14.01,2013-10-18 21:22:00,
2013-10-18 16:23:00,50.1,35.0,30.04,WNW,292,7.1,7.1,56,0.00,,,0.00,VWS V14.01,2013-10-18 21:23:00,
2013-10-18 16:24:00,50.1,35.0,30.04,WNW,292,7.6,7.6,56,0.00,,,0.00,VWS V14.01,2013-10-18 21:24:00,
2013-10-18 16:25:00,50.1,35.0,30.04,WNW,292,7.6,7.6,56,0.00,,,0.00,VWS V14.01,2013-10-18 21:25:00,
2013-10-18 16:26:00,50.1,35.0,30.04,WNW,292,7.6,7.6,56,0.00,,,0.00,VWS V14.01,2013-10-18 21:26:00,
2013-10-18 16:27:00,50.1,35.0,30.04,WNW,292,2.9,7.6,56,0.00,,,0.00,VWS V14.01,2013-10-18 21:27:00,
2013-10-18 16:28:00,50.1,35.0,30.04,WNW,292,2.9,2.9,56,0.00,,,0.00,VWS V14.01,2013-10-18 21:28:00,
2013-10-18 16:29:00,50.1,35.5,30.04,NNW,338,3.1,3.1,57,0.00,,,0.00,VWS V14.01,2013-10-18 21:29:00,
2013-10-18 16:30:00,50.1,35.5,30.04,NNW,338,3.1,3.1,57,0.00,,,0.00,VWS V14.01,2013-10-18 21:30:00,
2013-10-18 16:31:00,50.1,35.0,30.05,WNW,292,4.9,4.9,56,0.00,,,0.00,VWS V14.01,2013-10-18 21:31:00,
2013-10-18 16:32:00,50.1,35.0,30.04,WNW,292,4.9,4.9,56,0.00,,,0.00,VWS V14.01,2013-10-18 21:32:00,
2013-10-18 16:33:00,50.1,35.0,30.04,NW,315,2.4,4.9,56,0.00,,,0.00,VWS V14.01,2013-10-18 21:33:00,
2013-10-18 16:34:00,50.1,35.0,30.04,NW,315,2.4,2.4,56,0.00,,,0.00,VWS V14.01,2013-10-18 21:34:00,
2013-10-18 16:35:00,50.1,35.0,30.04,NW,315,2.4,2.4,56,0.00,,,0.00,VWS V14.01,2013-10-18 21:35:00,
2013-10-18 16:36:00,50.1,34.6,30.04,WNW,292,5.1,5.1,55,0.00,,,0.00,VWS V14.01,2013-10-18 21:36:00,
2013-10-18 16:37:00,50.0,34.5,30.04,NW,315,3.3,5.1,55,0.00,,,0.00,VWS V14.01,2013-10-18 21:37:00,
2013-10-18 16:38:00,50.0,34.5,30.04,NW,315,3.3,3.3,55,0.00,,,0.00,VWS V14.01,2013-10-18 21:38:00,
2013-10-18 16:39:00,50.0,34.5,30.04,NW,315,3.3,3.3,55,0.00,,,0.00,VWS V14.01,2013-10-18 21:39:00,
2013-10-18 16:40:00,50.0,34.5,30.04,NW,315,3.3,3.3,55,0.00,,,0.00,VWS V14.01,2013-10-18 21:40:00,
2013-10-18 16:41:00,49.8,34.3,30.04,WNW,292,5.8,5.8,55,0.00,,,0.00,VWS V14.01,2013-10-18 21:41:00,
2013-10-18 16:42:00,49.8,34.3,30.04,WNW,292,6.2,6.2,55,0.00,,,0.00,VWS V14.01,2013-10-18 21:42:00,
2013-10-18 16:43:00,49.8,34.3,30.04,WNW,292,6.2,6.2,55,0.00,,,0.00,VWS V14.01,2013-10-18 21:43:00,
2013-10-18 16:44:00,49.8,34.3,30.04,WNW,292,6.0,6.2,55,0.00,,,0.00,VWS V14.01,2013-10-18 21:44:00,
2013-10-18 16:45:00,49.8,34.3,30.04,WNW,292,6.0,6.0,55,0.00,,,0.00,VWS V14.01,2013-10-18 21:45:00,
2013-10-18 16:46:00,49.6,34.1,30.04,WNW,292,6.7,6.7,55,0.00,,,0.00,VWS V14.01,2013-10-18 21:46:00,
2013-10-18 16:47:00,49.6,34.1,30.04,WNW,292,6.7,6.7,55,0.00,,,0.00,VWS V14.01,2013-10-18 21:47:00,
2013-10-18 16:48:00,49.6,34.6,30.04,WNW,292,5.5,6.7,56,0.00,,,0.00,VWS V14.01,2013-10-18 21:48:00,
2013-10-18 16:49:00,49.6,34.6,30.04,WNW,292,5.5,5.5,56,0.00,,,0.00,VWS V14.01,2013-10-18 21:49:00,
2013-10-18 16:50:00,49.6,34.6,30.04,WNW,292,5.5,5.5,56,0.00,,,0.00,VWS V14.01,2013-10-18 21:50:00,
2013-10-18 16:51:00,49.6,34.6,30.04,WNW,292,3.1,3.1,56,0.00,,,0.00,VWS V14.01,2013-10-18 21:51:00,
2013-10-18 16:52:00,49.6,34.6,30.04,WNW,292,4.0,4.0,56,0.00,,,0.00,VWS V14.01,2013-10-18 21:52:00,
2013-10-18 16:53:00,49.6,34.6,30.04,WNW,292,4.0,4.0,56,0.00,,,0.00,VWS V14.01,2013-10-18 21:53:00,
2013-10-18 16:54:00,49.6,34.1,30.05,WNW,292,5.8,5.8,55,0.00,,,0.00,VWS V14.01,2013-10-18 21:54:00,
2013-10-18 16:55:00,49.6,34.1,30.05,WNW,292,5.8,5.8,55,0.00,,,0.00,VWS V14.01,2013-10-18 21:55:00,
2013-10-18 16:56:00,49.6,34.1,30.04,WNW,292,5.8,5.8,55,0.00,,,0.00,VWS V14.01,2013-10-18 21:56:00,
2013-10-18 16:57:00,49.4,34.4,30.04,WNW,292,6.2,6.2,56,0.00,,,0.00,VWS V14.01,2013-10-18 21:57:00,
2013-10-18 16:58:00,49.4,34.4,30.04,WNW,292,6.2,6.2,56,0.00,,,0.00,VWS V14.01,2013-10-18 21:58:00,
2013-10-18 16:59:00,49.6,34.6,30.04,WNW,292,2.4,6.2,56,0.00,,,0.00,VWS V14.01,2013-10-18 21:59:00,
2013-10-18 17:00:00,49.6,34.6,30.04,WNW,292,2.4,2.4,56,0.00,,,0.00,VWS V14.01,2013-10-18 22:00:00,
2013-10-18 17:01:00,49.2,34.2,30.04,West,270,2.2,2.4,56,0.00,,,0.00,VWS V14.01,2013-10-18 22:01:00,
2013-10-18 17:02:00,49.2,34.2,30.04,West,270,2.2,2.2,56,0.00,,,0.00,VWS V14.01,2013-10-18 22:02:00,
2013-10-18 17:03:00,49.2,34.6,30.04,WNW,292,4.9,4.9,57,0.00,,,0.00,VWS V14.01,2013-10-18 22:03:00,
2013-10-18 17:04:00,49.2,34.6,30.04,WNW,292,4.9,4.9,57,0.00,,,0.00,VWS V14.01,2013-10-18 22:04:00,
2013-10-18 17:05:00,49.2,34.6,30.04,WNW,292,4.9,4.9,57,0.00,,,0.00,VWS V14.01,2013-10-18 22:05:00,
2013-10-18 17:06:00,49.2,34.6,30.04,WNW,292,4.6,4.6,57,0.00,,,0.00,VWS V14.01,2013-10-18 22:06:00,
2013-10-18 17:07:00,49.2,34.6,30.04,NW,315,6.2,6.2,57,0.00,,,0.00,VWS V14.01,2013-10-18 22:07:00,
2013-10-18 17:08:00,49.2,34.6,30.04,NW,315,6.2,6.2,57,0.00,,,0.00,VWS V14.01,2013-10-18 22:08:00,
2013-10-18 17:09:00,49.1,35.0,30.04,WNW,292,1.3,6.2,58,0.00,,,0.00,VWS V14.01,2013-10-18 22:09:00,
2013-10-18 17:10:00,49.1,35.0,30.04,WNW,292,1.3,1.3,58,0.00,,,0.00,VWS V14.01,2013-10-18 22:10:00,
2013-10-18 17:11:00,49.1,35.0,30.04,WNW,292,1.3,1.3,58,0.00,,,0.00,VWS V14.01,2013-10-18 22:11:00,
2013-10-18 17:12:00,49.1,35.0,30.04,WNW,292,0.8,1.3,58,0.00,,,0.00,VWS V14.01,2013-10-18 22:12:00,
2013-10-18 17:13:00,49.1,35.0,30.04,WNW,292,0.8,0.8,58,0.00,,,0.00,VWS V14.01,2013-10-18 22:13:00,
2013-10-18 17:14:00,48.9,34.8,30.04,WNW,292,3.1,3.1,58,0.00,,,0.00,VWS V14.01,2013-10-18 22:14:00,
2013-10-18 17:15:00,48.9,34.8,30.04,WNW,292,3.1,3.1,58,0.00,,,0.00,VWS V14.01,2013-10-18 22:15:00,
2013-10-18 17:16:00,48.9,34.3,30.04,WNW,292,5.1,5.1,57,0.00,,,0.00,VWS V14.01,2013-10-18 22:16:00,
2013-10-18 17:17:00,48.9,34.3,30.04,WNW,292,5.1,5.1,57,0.00,,,0.00,VWS V14.01,2013-10-18 22:17:00,
2013-10-18 17:18:00,48.9,34.8,30.04,WNW,292,2.0,5.1,58,0.00,,,0.00,VWS V14.01,2013-10-18 22:18:00,
2013-10-18 17:19:00,48.9,34.8,30.04,WNW,292,2.0,2.0,58,0.00,,,0.00,VWS V14.01,2013-10-18 22:19:00,
2013-10-18 17:20:00,48.9,34.8,30.04,WNW,292,2.0,2.0,58,0.00,,,0.00,VWS V14.01,2013-10-18 22:20:00,
2013-10-18 17:21:00,48.9,34.8,30.04,WNW,292,2.0,2.0,58,0.00,,,0.00,VWS V14.01,2013-10-18 22:21:00,
2013-10-18 17:22:00,48.7,34.6,30.04,WNW,292,5.8,5.8,58,0.00,,,0.00,VWS V14.01,2013-10-18 22:22:00,
2013-10-18 17:23:00,48.7,34.6,30.04,WNW,292,5.8,5.8,58,0.00,,,0.00,VWS V14.01,2013-10-18 22:23:00,
2013-10-18 17:24:00,48.7,34.2,30.04,WNW,292,5.5,5.8,57,0.00,,,0.00,VWS V14.01,2013-10-18 22:24:00,
2013-10-18 17:25:00,48.7,34.2,30.04,WNW,292,5.5,5.5,57,0.00,,,0.00,VWS V14.01,2013-10-18 22:25:00,
2013-10-18 17:26:00,48.7,34.2,30.04,WNW,292,5.5,5.5,57,0.00,,,0.00,VWS V14.01,2013-10-18 22:26:00,
2013-10-18 17:27:00,48.7,34.6,30.04,WNW,292,1.3,5.5,58,0.00,,,0.00,VWS V14.01,2013-10-18 22:27:00,
2013-10-18 17:28:00,48.7,34.6,30.04,WNW,292,1.3,1.3,58,0.00,,,0.00,VWS V14.01,2013-10-18 22:28:00,
2013-10-18 17:29:00,48.7,34.6,30.04,WNW,292,5.5,5.5,58,0.00,,,0.00,VWS V14.01,2013-10-18 22:29:00,
2013-10-18 17:30:00,48.7,34.6,30.04,WNW,292,5.5,5.5,58,0.00,,,0.00,VWS V14.01,2013-10-18 22:30:00,
2013-10-18 17:31:00,48.7,34.6,30.04,WNW,292,4.4,5.5,58,0.00,,,0.00,VWS V14.01,2013-10-18 22:31:00,
2013-10-18 17:32:00,48.7,34.6,30.04,WNW,292,4.4,4.4,58,0.00,,,0.00,VWS V14.01,2013-10-18 22:32:00,
2013-10-18 17:33:00,48.7,34.6,30.04,WNW,292,1.5,4.4,58,0.00,,,0.00,VWS V14.01,2013-10-18 22:33:00,
2013-10-18 17:34:00,48.7,34.6,30.04,WNW,292,1.5,1.5,58,0.00,,,0.00,VWS V14.01,2013-10-18 22:34:00,
2013-10-18 17:35:00,48.7,34.6,30.04,WNW,292,1.5,1.5,58,0.00,,,0.00,VWS V14.01,2013-10-18 22:35:00,
2013-10-18 17:36:00,48.5,34.4,30.04,WNW,292,2.4,2.4,58,0.00,,,0.00,VWS V14.01,2013-10-18 22:36:00,
2013-10-18 17:37:00,48.3,34.7,30.05,WNW,292,2.9,2.9,59,0.00,,,0.00,VWS V14.01,2013-10-18 22:37:00,
2013-10-18 17:38:00,48.3,34.7,30.05,WNW,292,2.9,2.9,59,0.00,,,0.00,VWS V14.01,2013-10-18 22:38:00,
2013-10-18 17:39:00,48.3,34.7,30.05,WNW,292,0.6,2.9,59,0.00,,,0.00,VWS V14.01,2013-10-18 22:39:00,
2013-10-18 17:40:00,48.3,34.7,30.05,WNW,292,0.6,0.6,59,0.00,,,0.00,VWS V14.01,2013-10-18 22:40:00,
2013-10-18 17:41:00,48.3,34.7,30.05,WNW,292,0.6,0.6,59,0.00,,,0.00,VWS V14.01,2013-10-18 22:41:00,
2013-10-18 17:42:00,48.2,34.6,30.05,WNW,292,1.5,1.5,59,0.00,,,0.00,VWS V14.01,2013-10-18 22:42:00,
2013-10-18 17:43:00,48.2,34.6,30.05,WNW,292,1.5,1.5,59,0.00,,,0.00,VWS V14.01,2013-10-18 22:43:00,
2013-10-18 17:44:00,48.0,34.4,30.05,WNW,292,3.3,3.3,59,0.00,,,0.00,VWS V14.01,2013-10-18 22:44:00,
2013-10-18 17:45:00,48.0,34.4,30.05,WNW,292,3.3,3.3,59,0.00,,,0.00,VWS V14.01,2013-10-18 22:45:00,
2013-10-18 17:46:00,48.0,34.4,30.05,WNW,292,1.7,3.3,59,0.00,,,0.00,VWS V14.01,2013-10-18 22:46:00,
2013-10-18 17:47:00,48.0,34.4,30.05,WNW,292,1.7,1.7,59,0.00,,,0.00,VWS V14.01,2013-10-18 22:47:00,
2013-10-18 17:48:00,48.0,34.4,30.05,WNW,292,2.6,2.6,59,0.00,,,0.00,VWS V14.01,2013-10-18 22:48:00,
2013-10-18 17:49:00,48.0,34.4,30.05,WNW,292,2.6,2.6,59,0.00,,,0.00,VWS V14.01,2013-10-18 22:49:00,
2013-10-18 17:50:00,48.0,34.4,30.05,WNW,292,2.6,2.6,59,0.00,,,0.00,VWS V14.01,2013-10-18 22:50:00,
2013-10-18 17:51:00,48.0,34.4,30.04,WNW,292,0.0,0.0,59,0.00,,,0.00,VWS V14.01,2013-10-18 22:51:00,
2013-10-18 17:52:00,48.0,34.4,30.04,West,270,0.0,0.0,59,0.00,,,0.00,VWS V14.01,2013-10-18 22:52:00,
2013-10-18 17:53:00,48.0,34.4,30.05,West,270,0.0,0.0,59,0.00,,,0.00,VWS V14.01,2013-10-18 22:53:00,
2013-10-18 17:54:00,47.8,34.2,30.04,West,270,0.0,0.0,59,0.00,,,0.00,VWS V14.01,2013-10-18 22:54:00,
2013-10-18 17:55:00,47.8,34.2,30.04,West,270,0.0,0.0,59,0.00,,,0.00,VWS V14.01,2013-10-18 22:55:00,
2013-10-18 17:56:00,47.8,34.2,30.04,West,270,0.0,0.0,59,0.00,,,0.00,VWS V14.01,2013-10-18 22:56:00,
2013-10-18 17:57:00,47.8,34.6,30.04,West,270,0.0,0.0,60,0.00,,,0.00,VWS V14.01,2013-10-18 22:57:00,
2013-10-18 17:58:00,47.8,34.6,30.04,West,270,0.0,0.0,60,0.00,,,0.00,VWS V14.01,2013-10-18 22:58:00,
2013-10-18 17:59:00,47.6,34.4,30.05,West,270,0.0,0.0,60,0.00,,,0.00,VWS V14.01,2013-10-18 22:59:00,
2013-10-18 18:00:00,47.6,34.4,30.05,West,270,0.0,0.0,60,0.00,,,0.00,VWS V14.01,2013-10-18 23:00:00,
2013-10-18 18:01:00,47.4,34.2,30.05,West,270,0.0,0.0,60,0.00,,,0.00,VWS V14.01,2013-10-18 23:01:00,
2013-10-18 18:02:00,47.4,34.2,30.04,West,270,0.0,0.0,60,0.00,,,0.00,VWS V14.01,2013-10-18 23:02:00,
2013-10-18 18:03:00,47.3,34.5,30.04,West,270,0.0,0.0,61,0.00,,,0.00,VWS V14.01,2013-10-18 23:03:00,
2013-10-18 18:04:00,47.3,34.5,30.05,West,270,0.0,0.0,61,0.00,,,0.00,VWS V14.01,2013-10-18 23:04:00,
2013-10-18 18:05:00,47.3,34.5,30.05,West,270,0.0,0.0,61,0.00,,,0.00,VWS V14.01,2013-10-18 23:05:00,
2013-10-18 18:06:00,47.1,34.4,30.04,West,270,0.0,0.0,61,0.00,,,0.00,VWS V14.01,2013-10-18 23:06:00,
2013-10-18 18:07:00,47.1,34.8,30.04,West,270,0.0,0.0,62,0.00,,,0.00,VWS V14.01,2013-10-18 23:07:00,
2013-10-18 18:08:00,47.1,34.8,30.04,West,270,0.0,0.0,62,0.00,,,0.00,VWS V14.01,2013-10-18 23:08:00,
2013-10-18 18:09:00,46.9,34.6,30.04,West,270,0.0,0.0,62,0.00,,,0.00,VWS V14.01,2013-10-18 23:09:00,
2013-10-18 18:10:00,46.9,34.6,30.04,West,270,0.0,0.0,62,0.00,,,0.00,VWS V14.01,2013-10-18 23:10:00,
2013-10-18 18:11:00,46.9,34.6,30.04,West,270,0.0,0.0,62,0.00,,,0.00,VWS V14.01,2013-10-18 23:11:00,
2013-10-18 18:12:00,46.9,34.6,30.04,West,270,0.0,0.0,62,0.00,,,0.00,VWS V14.01,2013-10-18 23:12:00,
2013-10-18 18:13:00,46.9,34.6,30.04,West,270,0.0,0.0,62,0.00,,,0.00,VWS V14.01,2013-10-18 23:13:00,
2013-10-18 18:14:00,46.7,34.4,30.04,West,270,0.0,0.0,62,0.00,,,0.00,VWS V14.01,2013-10-18 23:14:00,
2013-10-18 18:15:00,46.7,34.4,30.04,West,270,0.0,0.0,62,0.00,,,0.00,VWS V14.01,2013-10-18 23:15:00,
2013-10-18 18:16:00,46.7,34.4,30.04,West,270,0.0,0.0,62,0.00,,,0.00,VWS V14.01,2013-10-18 23:16:00,
2013-10-18 18:17:00,46.7,34.4,30.04,West,270,0.0,0.0,62,0.00,,,0.00,VWS V14.01,2013-10-18 23:17:00,
2013-10-18 18:18:00,46.5,34.6,30.04,West,270,0.0,0.0,63,0.00,,,0.00,VWS V14.01,2013-10-18 23:18:00,
2013-10-18 18:19:00,46.5,34.6,30.04,West,270,0.0,0.0,63,0.00,,,0.00,VWS V14.01,2013-10-18 23:19:00,
2013-10-18 18:20:00,46.5,34.6,30.04,West,270,0.0,0.0,63,0.00,,,0.00,VWS V14.01,2013-10-18 23:20:00,
2013-10-18 18:21:00,46.5,34.6,30.04,West,270,0.0,0.0,63,0.00,,,0.00,VWS V14.01,2013-10-18 23:21:00,
2013-10-18 18:22:00,46.5,34.6,30.04,West,270,0.0,0.0,63,0.00,,,0.00,VWS V14.01,2013-10-18 23:22:00,
2013-10-18 18:23:00,46.5,34.6,30.04,West,270,0.0,0.0,63,0.00,,,0.00,VWS V14.01,2013-10-18 23:23:00,
2013-10-18 18:24:00,46.5,34.6,30.04,West,270,0.0,0.0,63,0.00,,,0.00,VWS V14.01,2013-10-18 23:24:00,
2013-10-18 18:25:00,46.5,34.6,30.04,West,270,0.0,0.0,63,0.00,,,0.00,VWS V14.01,2013-10-18 23:25:00,
2013-10-18 18:26:00,46.5,34.6,30.05,West,270,0.0,0.0,63,0.00,,,0.00,VWS V14.01,2013-10-18 23:26:00,
2013-10-18 18:27:00,46.5,34.6,30.04,West,270,0.0,0.0,63,0.00,,,0.00,VWS V14.01,2013-10-18 23:27:00,
2013-10-18 18:28:00,46.5,34.6,30.04,West,270,0.0,0.0,63,0.00,,,0.00,VWS V14.01,2013-10-18 23:28:00,
2013-10-18 18:29:00,46.4,34.5,30.04,West,270,0.0,0.0,63,0.00,,,0.00,VWS V14.01,2013-10-18 23:29:00,
2013-10-18 18:30:00,46.4,34.5,30.04,West,270,0.0,0.0,63,0.00,,,0.00,VWS V14.01,2013-10-18 23:30:00,
2013-10-18 18:31:00,46.2,34.7,30.05,West,270,0.0,0.0,64,0.00,,,0.00,VWS V14.01,2013-10-18 23:31:00,
2013-10-18 18:32:00,46.2,34.7,30.05,West,270,0.0,0.0,64,0.00,,,0.00,VWS V14.01,2013-10-18 23:32:00,
2013-10-18 18:33:00,46.2,34.7,30.05,West,270,0.0,0.0,64,0.00,,,0.00,VWS V14.01,2013-10-18 23:33:00,
2013-10-18 18:34:00,46.2,34.7,30.05,West,270,0.0,0.0,64,0.00,,,0.00,VWS V14.01,2013-10-18 23:34:00,
2013-10-18 18:35:00,46.2,34.7,30.05,West,270,0.0,0.0,64,0.00,,,0.00,VWS V14.01,2013-10-18 23:35:00,
2013-10-18 18:36:00,46.2,34.7,30.04,West,270,0.0,0.0,64,0.00,,,0.00,VWS V14.01,2013-10-18 23:36:00,
2013-10-18 18:37:00,46.2,34.7,30.04,West,270,0.0,0.0,64,0.00,,,0.00,VWS V14.01,2013-10-18 23:37:00,
2013-10-18 18:38:00,46.2,34.7,30.04,West,270,0.0,0.0,64,0.00,,,0.00,VWS V14.01,2013-10-18 23:38:00,
2013-10-18 18:39:00,46.2,34.7,30.04,West,270,0.0,0.0,64,0.00,,,0.00,VWS V14.01,2013-10-18 23:39:00,
2013-10-18 18:40:00,46.2,34.7,30.04,West,270,0.0,0.0,64,0.00,,,0.00,VWS V14.01,2013-10-18 23:40:00,
2013-10-18 18:41:00,46.2,34.7,30.04,West,270,0.0,0.0,64,0.00,,,0.00,VWS V14.01,2013-10-18 23:41:00,
2013-10-18 18:42:00,46.2,34.7,30.04,West,270,0.0,0.0,64,0.00,,,0.00,VWS V14.01,2013-10-18 23:42:00,
2013-10-18 18:43:00,46.2,34.7,30.04,West,270,0.0,0.0,64,0.00,,,0.00,VWS V14.01,2013-10-18 23:43:00,
2013-10-18 18:44:00,46.0,34.5,30.04,West,270,0.0,0.0,64,0.00,,,0.00,VWS V14.01,2013-10-18 23:44:00,
2013-10-18 18:45:00,46.0,34.5,30.04,West,270,0.0,0.0,64,0.00,,,0.00,VWS V14.01,2013-10-18 23:45:00,
2013-10-18 18:46:00,46.0,34.5,30.04,West,270,0.0,0.0,64,0.00,,,0.00,VWS V14.01,2013-10-18 23:46:00,
2013-10-18 18:47:00,46.0,34.5,30.04,West,270,0.0,0.0,64,0.00,,,0.00,VWS V14.01,2013-10-18 23:47:00,
2013-10-18 18:48:00,46.0,34.5,30.04,West,270,0.0,0.0,64,0.00,,,0.00,VWS V14.01,2013-10-18 23:48:00,
2013-10-18 18:49:00,46.0,34.5,30.04,West,270,0.0,0.0,64,0.00,,,0.00,VWS V14.01,2013-10-18 23:49:00,
2013-10-18 18:50:00,45.8,34.3,30.04,West,270,0.0,0.0,64,0.00,,,0.00,VWS V14.01,2013-10-18 23:50:00,
2013-10-18 18:51:00,45.8,34.3,30.04,West,270,0.0,0.0,64,0.00,,,0.00,VWS V14.01,2013-10-18 23:51:00,
2013-10-18 18:52:00,45.6,34.5,30.04,West,270,0.0,0.0,65,0.00,,,0.00,VWS V14.01,2013-10-18 23:52:00,
2013-10-18 18:53:00,48.0,34.4,30.05,West,270,0.0,0.0,59,0.00,,,0.00,VWS V14.01,2013-10-18 23:53:00,
2013-10-18 18:54:00,45.6,34.5,30.04,West,270,0.0,0.0,65,0.00,,,0.00,VWS V14.01,2013-10-18 23:54:00,
2013-10-18 18:55:00,45.6,34.5,30.04,West,270,0.0,0.0,65,0.00,,,0.00,VWS V14.01,2013-10-18 23:55:00,
2013-10-18 18:56:00,45.6,34.5,30.04,West,270,0.0,0.0,65,0.00,,,0.00,VWS V14.01,2013-10-18 23:56:00,
2013-10-18 18:57:00,45.6,34.5,30.04,West,270,0.0,0.0,65,0.00,,,0.00,VWS V14.01,2013-10-18 23:57:00,
2013-10-18 18:58:00,45.6,34.5,30.04,West,270,0.0,0.0,65,0.00,,,0.00,VWS V14.01,2013-10-18 23:58:00,
2013-10-18 18:59:00,45.5,34.4,30.04,West,270,0.0,0.0,65,0.00,,,0.00,VWS V14.01,2013-10-18 23:59:00,
2013-10-18 19:00:00,45.5,34.4,30.04,West,270,0.0,0.0,65,0.00,,,0.00,VWS V14.01,2013-10-19 00:00:00,
2013-10-18 19:01:00,45.5,34.4,30.04,West,270,0.0,0.0,65,0.00,,,0.00,VWS V14.01,2013-10-19 00:01:00,
2013-10-18 19:02:00,45.5,34.4,30.04,West,270,0.0,0.0,65,0.00,,,0.00,VWS V14.01,2013-10-19 00:02:00,
2013-10-18 19:03:00,45.3,34.2,30.04,West,270,0.0,0.0,65,0.00,,,0.00,VWS V14.01,2013-10-19 00:03:00,
2013-10-18 19:04:00,45.3,34.2,30.04,West,270,0.0,0.0,65,0.00,,,0.00,VWS V14.01,2013-10-19 00:04:00,
2013-10-18 19:05:00,45.3,34.6,30.04,West,270,0.0,0.0,66,0.00,,,0.00,VWS V14.01,2013-10-19 00:05:00,
2013-10-18 19:06:00,45.3,34.6,30.05,West,270,0.0,0.0,66,0.00,,,0.00,VWS V14.01,2013-10-19 00:06:00,
2013-10-18 19:07:00,45.1,34.4,30.04,West,270,0.0,0.0,66,0.00,,,0.00,VWS V14.01,2013-10-19 00:07:00,
2013-10-18 19:08:00,45.1,34.4,30.05,West,270,0.0,0.0,66,0.00,,,0.00,VWS V14.01,2013-10-19 00:08:00,
2013-10-18 19:09:00,45.1,34.4,30.04,West,270,0.8,0.8,66,0.00,,,0.00,VWS V14.01,2013-10-19 00:09:00,
2013-10-18 19:10:00,45.1,34.4,30.04,West,270,0.8,0.8,66,0.00,,,0.00,VWS V14.01,2013-10-19 00:10:00,
2013-10-18 19:11:00,45.1,34.4,30.04,West,270,0.0,0.8,66,0.00,,,0.00,VWS V14.01,2013-10-19 00:11:00,
2013-10-18 19:12:00,45.1,34.4,30.04,West,270,0.0,0.0,66,0.00,,,0.00,VWS V14.01,2013-10-19 00:12:00,
2013-10-18 19:13:00,45.1,34.4,30.04,West,270,0.0,0.0,66,0.00,,,0.00,VWS V14.01,2013-10-19 00:13:00,
2013-10-18 19:14:00,45.1,34.4,30.05,West,270,0.0,0.0,66,0.00,,,0.00,VWS V14.01,2013-10-19 00:14:00,
2013-10-18 19:15:00,45.1,34.4,30.05,West,270,0.0,0.0,66,0.00,,,0.00,VWS V14.01,2013-10-19 00:15:00,
2013-10-18 19:16:00,45.1,34.4,30.04,West,270,0.6,0.6,66,0.00,,,0.00,VWS V14.01,2013-10-19 00:16:00,
2013-10-18 19:17:00,45.1,34.4,30.05,West,270,0.6,0.6,66,0.00,,,0.00,VWS V14.01,2013-10-19 00:17:00,
2013-10-18 19:18:00,44.9,34.6,30.04,West,270,0.4,0.6,67,0.00,,,0.00,VWS V14.01,2013-10-19 00:18:00,
2013-10-18 19:19:00,44.9,34.6,30.05,West,270,0.4,0.4,67,0.00,,,0.00,VWS V14.01,2013-10-19 00:19:00,
2013-10-18 19:20:00,44.9,34.6,30.05,West,270,0.0,0.4,67,0.00,,,0.00,VWS V14.01,2013-10-19 00:20:00,
2013-10-18 19:21:00,44.9,34.6,30.05,West,270,0.0,0.0,67,0.00,,,0.00,VWS V14.01,2013-10-19 00:21:00,
2013-10-18 19:22:00,44.9,34.6,30.04,West,270,0.0,0.0,67,0.00,,,0.00,VWS V14.01,2013-10-19 00:22:00,
2013-10-18 19:23:00,44.9,34.6,30.04,West,270,0.0,0.0,67,0.00,,,0.00,VWS V14.01,2013-10-19 00:23:00,
2013-10-18 19:24:00,44.9,34.6,30.05,West,270,0.0,0.0,67,0.00,,,0.00,VWS V14.01,2013-10-19 00:24:00,
2013-10-18 19:25:00,44.9,34.6,30.04,West,270,0.0,0.0,67,0.00,,,0.00,VWS V14.01,2013-10-19 00:25:00,
2013-10-18 19:26:00,44.9,34.6,30.04,West,270,0.0,0.0,67,0.00,,,0.00,VWS V14.01,2013-10-19 00:26:00,
2013-10-18 19:27:00,46.5,34.6,30.04,West,270,0.0,0.0,63,0.00,,,0.00,VWS V14.01,2013-10-19 00:27:00,
2013-10-18 19:28:00,44.9,34.6,30.04,West,270,0.0,0.0,67,0.00,,,0.00,VWS V14.01,2013-10-19 00:28:00,
2013-10-18 19:29:00,44.9,34.6,30.04,West,270,0.6,0.6,67,0.00,,,0.00,VWS V14.01,2013-10-19 00:29:00,
2013-10-18 19:30:00,44.9,34.6,30.05,West,270,0.6,0.6,67,0.00,,,0.00,VWS V14.01,2013-10-19 00:30:00,
2013-10-18 19:31:00,44.9,34.6,30.05,West,270,0.0,0.6,67,0.00,,,0.00,VWS V14.01,2013-10-19 00:31:00,
2013-10-18 19:32:00,44.9,34.6,30.04,West,270,0.0,0.0,67,0.00,,,0.00,VWS V14.01,2013-10-19 00:32:00,
2013-10-18 19:33:00,44.9,34.6,30.04,West,270,0.0,0.0,67,0.00,,,0.00,VWS V14.01,2013-10-19 00:33:00,
2013-10-18 19:34:00,44.9,34.6,30.04,West,270,0.0,0.0,67,0.00,,,0.00,VWS V14.01,2013-10-19 00:34:00,
2013-10-18 19:35:00,44.9,34.6,30.04,West,270,0.0,0.0,67,0.00,,,0.00,VWS V14.01,2013-10-19 00:35:00,
2013-10-18 19:36:00,44.9,34.6,30.04,West,270,0.0,0.0,67,0.00,,,0.00,VWS V14.01,2013-10-19 00:36:00,
2013-10-18 19:37:00,44.7,34.4,30.04,West,270,0.0,0.0,67,0.00,,,0.00,VWS V14.01,2013-10-19 00:37:00,
2013-10-18 19:38:00,44.7,34.4,30.05,West,270,0.0,0.0,67,0.00,,,0.00,VWS V14.01,2013-10-19 00:38:00,
2013-10-18 19:39:00,44.7,34.4,30.04,West,270,0.0,0.0,67,0.00,,,0.00,VWS V14.01,2013-10-19 00:39:00,
2013-10-18 19:40:00,44.7,34.4,30.04,West,270,0.0,0.0,67,0.00,,,0.00,VWS V14.01,2013-10-19 00:40:00,
2013-10-18 19:41:00,44.7,34.4,30.04,West,270,0.0,0.0,67,0.00,,,0.00,VWS V14.01,2013-10-19 00:41:00,
2013-10-18 19:42:00,44.7,34.4,30.04,West,270,0.0,0.0,67,0.00,,,0.00,VWS V14.01,2013-10-19 00:42:00,
2013-10-18 19:43:00,44.7,34.4,30.04,West,270,0.0,0.0,67,0.00,,,0.00,VWS V14.01,2013-10-19 00:43:00,
2013-10-18 19:44:00,44.6,34.3,30.04,West,270,0.0,0.0,67,0.00,,,0.00,VWS V14.01,2013-10-19 00:44:00,
2013-10-18 19:45:00,44.6,34.3,30.04,West,270,0.0,0.0,67,0.00,,,0.00,VWS V14.01,2013-10-19 00:45:00,
2013-10-18 19:46:00,44.4,34.1,30.04,West,270,0.0,0.0,67,0.00,,,0.00,VWS V14.01,2013-10-19 00:46:00,
2013-10-18 19:47:00,44.4,34.1,30.04,West,270,0.0,0.0,67,0.00,,,0.00,VWS V14.01,2013-10-19 00:47:00,
2013-10-18 19:48:00,44.4,34.1,30.04,West,270,0.0,0.0,67,0.00,,,0.00,VWS V14.01,2013-10-19 00:48:00,
2013-10-18 19:49:00,44.4,34.1,30.04,West,270,0.0,0.0,67,0.00,,,0.00,VWS V14.01,2013-10-19 00:49:00,
2013-10-18 19:50:00,44.4,34.1,30.04,West,270,0.0,0.0,67,0.00,,,0.00,VWS V14.01,2013-10-19 00:50:00,
2013-10-18 19:51:00,44.4,34.1,30.04,West,270,0.0,0.0,67,0.00,,,0.00,VWS V14.01,2013-10-19 00:51:00,
2013-10-18 19:52:00,44.4,34.5,30.04,West,270,1.3,1.3,68,0.00,,,0.00,VWS V14.01,2013-10-19 00:52:00,
2013-10-18 19:53:00,44.4,34.5,30.04,West,270,1.3,1.3,68,0.00,,,0.00,VWS V14.01,2013-10-19 00:53:00,
2013-10-18 19:54:00,44.2,34.3,30.04,West,270,0.6,0.6,68,0.00,,,0.00,VWS V14.01,2013-10-19 00:54:00,
2013-10-18 19:55:00,44.2,34.3,30.04,West,270,0.6,0.6,68,0.00,,,0.00,VWS V14.01,2013-10-19 00:55:00,
2013-10-18 19:56:00,44.2,34.3,30.04,WSW,248,1.7,1.7,68,0.00,,,0.00,VWS V14.01,2013-10-19 00:56:00,
2013-10-18 19:57:00,44.2,34.3,30.04,WSW,248,1.7,1.7,68,0.00,,,0.00,VWS V14.01,2013-10-19 00:57:00,
2013-10-18 19:58:00,44.2,34.3,30.04,WSW,248,1.7,1.7,68,0.00,,,0.00,VWS V14.01,2013-10-19 00:58:00,
2013-10-18 19:59:00,44.2,34.7,30.04,SW,225,2.6,2.6,69,0.00,,,0.00,VWS V14.01,2013-10-19 00:59:00,
2013-10-18 20:00:00,44.2,34.7,30.04,SW,225,2.6,2.6,69,0.00,,,0.00,VWS V14.01,2013-10-19 01:00:00,
2013-10-18 20:01:00,44.0,34.5,30.04,SW,225,1.3,2.6,69,0.00,,,0.00,VWS V14.01,2013-10-19 01:01:00,
2013-10-18 20:02:00,44.0,34.5,30.04,SW,225,1.3,1.3,69,0.00,,,0.00,VWS V14.01,2013-10-19 01:02:00,
2013-10-18 20:03:00,43.8,34.7,30.04,SW,225,2.0,2.0,70,0.00,,,0.00,VWS V14.01,2013-10-19 01:03:00,
2013-10-18 20:04:00,43.8,34.7,30.04,SW,225,2.0,2.0,70,0.00,,,0.00,VWS V14.01,2013-10-19 01:04:00,
2013-10-18 20:05:00,43.7,34.6,30.04,SW,225,0.0,2.0,70,0.00,,,0.00,VWS V14.01,2013-10-19 01:05:00,
2013-10-18 20:06:00,43.7,34.6,30.04,SW,225,0.0,0.0,70,0.00,,,0.00,VWS V14.01,2013-10-19 01:06:00,
2013-10-18 20:07:00,43.5,34.4,30.04,SW,225,0.0,0.0,70,0.00,,,0.00,VWS V14.01,2013-10-19 01:07:00,
2013-10-18 20:08:00,43.5,34.4,30.04,SW,225,0.0,0.0,70,0.00,,,0.00,VWS V14.01,2013-10-19 01:08:00,
2013-10-18 20:09:00,43.5,34.4,30.04,SW,225,0.0,0.0,70,0.00,,,0.00,VWS V14.01,2013-10-19 01:09:00,
2013-10-18 20:10:00,43.5,34.4,30.04,SW,225,0.0,0.0,70,0.00,,,0.00,VWS V14.01,2013-10-19 01:10:00,
2013-10-18 20:11:00,43.5,34.4,30.04,SW,225,1.7,1.7,70,0.00,,,0.00,VWS V14.01,2013-10-19 01:11:00,
2013-10-18 20:12:00,43.5,34.4,30.04,SW,225,1.7,1.7,70,0.00,,,0.00,VWS V14.01,2013-10-19 01:12:00,
2013-10-18 20:13:00,43.5,34.4,30.04,SW,225,1.7,1.7,70,0.00,,,0.00,VWS V14.01,2013-10-19 01:13:00,
2013-10-18 20:14:00,43.5,34.4,30.04,SW,225,1.3,1.3,70,0.00,,,0.00,VWS V14.01,2013-10-19 01:14:00,
2013-10-18 20:15:00,43.5,34.4,30.04,SW,225,1.3,1.3,70,0.00,,,0.00,VWS V14.01,2013-10-19 01:15:00,
2013-10-18 20:16:00,43.3,33.8,30.04,WSW,248,2.2,2.2,69,0.00,,,0.00,VWS V14.01,2013-10-19 01:16:00,
2013-10-18 20:17:00,43.3,33.8,30.04,WSW,248,2.2,2.2,69,0.00,,,0.00,VWS V14.01,2013-10-19 01:17:00,
2013-10-18 20:18:00,43.3,34.2,30.04,WSW,248,1.1,2.2,70,0.00,,,0.00,VWS V14.01,2013-10-19 01:18:00,
2013-10-18 20:19:00,43.3,34.2,30.04,WSW,248,1.1,1.1,70,0.00,,,0.00,VWS V14.01,2013-10-19 01:19:00,
2013-10-18 20:20:00,43.3,34.2,30.04,SW,225,1.3,1.3,70,0.00,,,0.00,VWS V14.01,2013-10-19 01:20:00,
2013-10-18 20:21:00,43.3,34.2,30.04,SW,225,1.3,1.3,70,0.00,,,0.00,VWS V14.01,2013-10-19 01:21:00,
2013-10-18 20:22:00,43.1,34.0,30.04,SW,225,1.3,1.3,70,0.00,,,0.00,VWS V14.01,2013-10-19 01:22:00,
2013-10-18 20:23:00,43.1,34.0,30.04,SW,225,1.3,1.3,70,0.00,,,0.00,VWS V14.01,2013-10-19 01:23:00,
2013-10-18 20:24:00,43.1,34.0,30.04,SW,225,2.6,2.6,70,0.00,,,0.00,VWS V14.01,2013-10-19 01:24:00,
2013-10-18 20:25:00,43.1,34.0,30.04,SW,225,2.6,2.6,70,0.00,,,0.00,VWS V14.01,2013-10-19 01:25:00,
2013-10-18 20:26:00,43.1,34.0,30.04,SW,225,1.1,2.6,70,0.00,,,0.00,VWS V14.01,2013-10-19 01:26:00,
2013-10-18 20:27:00,43.1,34.0,30.05,SW,225,1.1,1.1,70,0.00,,,0.00,VWS V14.01,2013-10-19 01:27:00,
2013-10-18 20:28:00,43.1,34.0,30.04,SW,225,2.4,2.4,70,0.00,,,0.00,VWS V14.01,2013-10-19 01:28:00,
2013-10-18 20:29:00,43.1,34.0,30.04,SW,225,2.4,2.4,70,0.00,,,0.00,VWS V14.01,2013-10-19 01:29:00,
2013-10-18 20:30:00,43.1,34.0,30.04,SW,225,2.4,2.4,70,0.00,,,0.00,VWS V14.01,2013-10-19 01:30:00,
2013-10-18 20:31:00,42.9,33.8,30.05,SW,225,0.6,2.4,70,0.00,,,0.00,VWS V14.01,2013-10-19 01:31:00,
2013-10-18 20:32:00,42.9,33.8,30.04,SW,225,0.6,0.6,70,0.00,,,0.00,VWS V14.01,2013-10-19 01:32:00,
2013-10-18 20:33:00,42.9,33.8,30.04,SW,225,2.0,2.0,70,0.00,,,0.00,VWS V14.01,2013-10-19 01:33:00,
2013-10-18 20:34:00,42.9,33.8,30.05,SW,225,2.0,2.0,70,0.00,,,0.00,VWS V14.01,2013-10-19 01:34:00,
2013-10-18 20:35:00,42.9,34.2,30.04,SW,225,0.0,2.0,71,0.00,,,0.00,VWS V14.01,2013-10-19 01:35:00,
2013-10-18 20:36:00,42.9,34.2,30.04,SW,225,0.0,0.0,71,0.00,,,0.00,VWS V14.01,2013-10-19 01:36:00,
2013-10-18 20:37:00,42.9,34.2,30.04,WSW,248,1.1,1.1,71,0.00,,,0.00,VWS V14.01,2013-10-19 01:37:00,
2013-10-18 20:38:00,42.9,34.2,30.04,WSW,248,1.1,1.1,71,0.00,,,0.00,VWS V14.01,2013-10-19 01:38:00,
2013-10-18 20:39:00,44.7,34.4,30.04,West,270,0.0,0.0,67,0.00,,,0.00,VWS V14.01,2013-10-19 01:39:00,
2013-10-18 20:40:00,44.7,34.4,30.04,West,270,0.0,0.0,67,0.00,,,0.00,VWS V14.01,2013-10-19 01:40:00,
2013-10-18 20:41:00,44.7,34.4,30.04,West,270,0.0,0.0,67,0.00,,,0.00,VWS V14.01,2013-10-19 01:41:00,
2013-10-18 20:42:00,44.7,34.4,30.04,West,270,0.0,0.0,67,0.00,,,0.00,VWS V14.01,2013-10-19 01:42:00,
2013-10-18 20:43:00,44.7,34.4,30.04,West,270,0.0,0.0,67,0.00,,,0.00,VWS V14.01,2013-10-19 01:43:00,
2013-10-18 20:44:00,44.6,34.3,30.04,West,270,0.0,0.0,67,0.00,,,0.00,VWS V14.01,2013-10-19 01:44:00,
2013-10-18 20:45:00,44.6,34.3,30.04,West,270,0.0,0.0,67,0.00,,,0.00,VWS V14.01,2013-10-19 01:45:00,
2013-10-18 20:46:00,44.4,34.1,30.04,West,270,0.0,0.0,67,0.00,,,0.00,VWS V14.01,2013-10-19 01:46:00,
2013-10-18 20:47:00,44.4,34.1,30.04,West,270,0.0,0.0,67,0.00,,,0.00,VWS V14.01,2013-10-19 01:47:00,
2013-10-18 20:48:00,44.4,34.1,30.04,West,270,0.0,0.0,67,0.00,,,0.00,VWS V14.01,2013-10-19 01:48:00,
2013-10-18 20:49:00,44.4,34.1,30.04,West,270,0.0,0.0,67,0.00,,,0.00,VWS V14.01,2013-10-19 01:49:00,
2013-10-18 20:50:00,44.4,34.1,30.04,West,270,0.0,0.0,67,0.00,,,0.00,VWS V14.01,2013-10-19 01:50:00,
2013-10-18 20:51:00,44.4,34.1,30.04,West,270,0.0,0.0,67,0.00,,,0.00,VWS V14.01,2013-10-19 01:51:00,
2013-10-18 20:52:00,44.4,34.5,30.04,West,270,1.3,1.3,68,0.00,,,0.00,VWS V14.01,2013-10-19 01:52:00,
2013-10-18 20:53:00,44.4,34.5,30.04,West,270,1.3,1.3,68,0.00,,,0.00,VWS V14.01,2013-10-19 01:53:00,
2013-10-18 20:54:00,44.2,34.3,30.04,West,270,0.6,1.3,68,0.00,,,0.00,VWS V14.01,2013-10-19 01:54:00,
2013-10-18 20:55:00,44.2,34.3,30.04,West,270,0.6,0.6,68,0.00,,,0.00,VWS V14.01,2013-10-19 01:55:00,
2013-10-18 20:56:00,45.7,34.6,29.06,West,270,0.0,0.0,65,2.04,,,2.04,VWS V14.01,2013-10-19 01:56:00,
2013-10-18 20:57:00,44.2,34.3,30.04,WSW,248,1.7,1.7,68,0.00,,,0.00,VWS V14.01,2013-10-19 01:57:00,
2013-10-18 20:58:00,44.2,34.3,30.04,WSW,248,1.7,1.7,68,0.00,,,0.00,VWS V14.01,2013-10-19 01:58:00,
2013-10-18 20:59:00,44.2,34.7,30.04,SW,225,2.6,2.6,69,0.00,,,0.00,VWS V14.01,2013-10-19 01:59:00,
2013-10-18 21:00:00,44.2,34.7,30.04,SW,225,2.6,2.6,69,0.00,,,0.00,VWS V14.01,2013-10-19 02:00:00,
2013-10-18 21:01:00,44.0,34.5,30.04,SW,225,1.3,2.6,69,0.00,,,0.00,VWS V14.01,2013-10-19 02:01:00,
2013-10-18 21:02:00,44.0,34.5,30.04,SW,225,1.3,1.3,69,0.00,,,0.00,VWS V14.01,2013-10-19 02:02:00,
2013-10-18 21:03:00,43.8,34.7,30.04,SW,225,2.0,2.0,70,0.00,,,0.00,VWS V14.01,2013-10-19 02:03:00,
2013-10-18 21:04:00,43.8,34.7,30.04,SW,225,2.0,2.0,70,0.00,,,0.00,VWS V14.01,2013-10-19 02:04:00,
2013-10-18 21:05:00,43.7,34.6,30.04,SW,225,0.0,2.0,70,0.00,,,0.00,VWS V14.01,2013-10-19 02:05:00,
2013-10-18 21:06:00,43.7,34.6,30.04,SW,225,0.0,0.0,70,0.00,,,0.00,VWS V14.01,2013-10-19 02:06:00,
2013-10-18 21:07:00,43.5,34.4,30.04,SW,225,0.0,0.0,70,0.00,,,0.00,VWS V14.01,2013-10-19 02:07:00,
2013-10-18 21:08:00,43.5,34.4,30.04,SW,225,0.0,0.0,70,0.00,,,0.00,VWS V14.01,2013-10-19 02:08:00,
2013-10-18 21:09:00,43.5,34.4,30.04,SW,225,0.0,0.0,70,0.00,,,0.00,VWS V14.01,2013-10-19 02:09:00,
2013-10-18 21:10:00,43.5,34.4,30.04,SW,225,0.0,0.0,70,0.00,,,0.00,VWS V14.01,2013-10-19 02:10:00,
2013-10-18 21:11:00,43.5,34.4,30.04,SW,225,1.7,1.7,70,0.00,,,0.00,VWS V14.01,2013-10-19 02:11:00,
2013-10-18 21:12:00,43.5,34.4,30.04,SW,225,1.7,1.7,70,0.00,,,0.00,VWS V14.01,2013-10-19 02:12:00,
2013-10-18 21:13:00,43.5,34.4,30.04,SW,225,1.7,1.7,70,0.00,,,0.00,VWS V14.01,2013-10-19 02:13:00,
2013-10-18 21:14:00,43.5,34.4,30.04,SW,225,1.3,1.7,70,0.00,,,0.00,VWS V14.01,2013-10-19 02:14:00,
2013-10-18 21:15:00,43.5,34.4,30.04,SW,225,1.3,1.3,70,0.00,,,0.00,VWS V14.01,2013-10-19 02:15:00,
2013-10-18 21:16:00,43.3,33.8,30.04,WSW,248,2.2,2.2,69,0.00,,,0.00,VWS V14.01,2013-10-19 02:16:00,
2013-10-18 21:17:00,43.3,33.8,30.04,WSW,248,2.2,2.2,69,0.00,,,0.00,VWS V14.01,2013-10-19 02:17:00,
2013-10-18 21:18:00,43.3,34.2,30.04,WSW,248,1.1,2.2,70,0.00,,,0.00,VWS V14.01,2013-10-19 02:18:00,
2013-10-18 21:19:00,43.3,34.2,30.04,WSW,248,1.1,1.1,70,0.00,,,0.00,VWS V14.01,2013-10-19 02:19:00,
2013-10-18 21:20:00,43.3,34.2,30.04,SW,225,1.3,1.3,70,0.00,,,0.00,VWS V14.01,2013-10-19 02:20:00,
2013-10-18 21:21:00,43.3,34.2,30.04,SW,225,1.3,1.3,70,0.00,,,0.00,VWS V14.01,2013-10-19 02:21:00,
2013-10-18 21:22:00,43.1,34.0,30.04,SW,225,1.3,1.3,70,0.00,,,0.00,VWS V14.01,2013-10-19 02:22:00,
2013-10-18 21:23:00,43.1,34.0,30.04,SW,225,1.3,1.3,70,0.00,,,0.00,VWS V14.01,2013-10-19 02:23:00,
2013-10-18 21:24:00,43.1,34.0,30.04,SW,225,2.6,2.6,70,0.00,,,0.00,VWS V14.01,2013-10-19 02:24:00,
2013-10-18 21:25:00,43.1,34.0,30.04,SW,225,2.6,2.6,70,0.00,,,0.00,VWS V14.01,2013-10-19 02:25:00,
2013-10-18 21:26:00,43.1,34.0,30.04,SW,225,1.1,2.6,70,0.00,,,0.00,VWS V14.01,2013-10-19 02:26:00,
2013-10-18 21:27:00,43.1,34.0,30.05,SW,225,1.1,1.1,70,0.00,,,0.00,VWS V14.01,2013-10-19 02:27:00,
2013-10-18 21:28:00,43.1,34.0,30.04,SW,225,2.4,2.4,70,0.00,,,0.00,VWS V14.01,2013-10-19 02:28:00,
2013-10-18 21:29:00,43.1,34.0,30.04,SW,225,2.4,2.4,70,0.00,,,0.00,VWS V14.01,2013-10-19 02:29:00,
2013-10-18 21:30:00,43.1,34.0,30.04,SW,225,2.4,2.4,70,0.00,,,0.00,VWS V14.01,2013-10-19 02:30:00,
2013-10-18 21:31:00,42.9,33.8,30.05,SW,225,0.6,2.4,70,0.00,,,0.00,VWS V14.01,2013-10-19 02:31:00,
2013-10-18 21:32:00,42.9,33.8,30.04,SW,225,0.6,0.6,70,0.00,,,0.00,VWS V14.01,2013-10-19 02:32:00,
2013-10-18 21:33:00,42.9,33.8,30.04,SW,225,2.0,2.0,70,0.00,,,0.00,VWS V14.01,2013-10-19 02:33:00,
2013-10-18 21:34:00,42.9,33.8,30.05,SW,225,2.0,2.0,70,0.00,,,0.00,VWS V14.01,2013-10-19 02:34:00,
2013-10-18 21:35:00,42.9,34.2,30.04,SW,225,0.0,2.0,71,0.00,,,0.00,VWS V14.01,2013-10-19 02:35:00,
2013-10-18 21:36:00,42.9,34.2,30.04,SW,225,0.0,0.0,71,0.00,,,0.00,VWS V14.01,2013-10-19 02:36:00,
2013-10-18 21:37:00,42.9,34.2,30.04,WSW,248,1.1,1.1,71,0.00,,,0.00,VWS V14.01,2013-10-19 02:37:00,
2013-10-18 21:38:00,42.9,34.2,30.04,WSW,248,1.1,1.1,71,0.00,,,0.00,VWS V14.01,2013-10-19 02:38:00,
2013-10-18 21:56:00,44.2,34.4,29.06,West,270,0.7,0.7,68,2.04,,,2.04,VWS V14.01,2013-10-19 02:56:00,
2013-10-18 22:56:00,42.4,33.7,29.06,SW,225,1.6,1.6,71,0.00,,,2.04,VWS V14.01,2013-10-19 03:56:00,
2013-10-18 23:56:00,42.1,34.7,29.06,WSW,248,0.0,1.6,75,0.00,,,2.04,VWS V14.01,2013-10-19 04:56:00,